     2              OBSERVATION DATA    GPS                 RINEX VERSION / TYPE
TRRINEXO V2.4.6 UX                                          PGM / RUN BY / DATE
                                                            COMMENT
Original Marker Name: mayo                                  COMMENT
Campaign Name: STRC 1995                                    COMMENT
4-Character Station Name: MAYO                              COMMENT
6-Character Antenna Code: TRMSST                            COMMENT
Vertical Measurement Point: TGP                             COMMENT
Vertical Offset to Rinex Ref. Point: 0.0629                 COMMENT
Radial Measurement Point: NGP                               COMMENT
Radial Offset to Rinex Ref. Point: 0.2334                   COMMENT
Antenna Height from Field Measurement: 1.5295 m             COMMENT
Original XYZ: -2309140.8591 -4897617.7254 3359319.5944      COMMENT
New XYZ position is based on association with SCEC monument COMMENT
E1C3Q8G2+0011. Position of that monument is believed to be  COMMENT
valid to within 1 m horizontally; vertical accuracy         COMMENT
should be no worse than 3-times this value.                 COMMENT
                                                            COMMENT
Revised Rinex header created by UCSD GPS archive for        COMMENT
GSAC on 05-Apr-1999 (1999:095) 18:39:12 GMT                 COMMENT
For assistance contact dagnew@ucsd.edu or hjohnson@ucsd.edu COMMENT
                                                            COMMENT
MAYO                                                        MARKER NAME
EL MAYOR                                                    MARKER NUMBER
R. Reilinger MASS INST. OF TECHNOLOGY                       OBSERVER / AGENCY
3052 TRIMBLE 4000 SSE 6.10                                  REC # / TYPE / VERS
4936 TR 4000SST L1/L2 GEO                                   ANT # / TYPE
 -2309136.0000 -4897660.0000  3359327.0000                  APPROX POSITION XYZ
        1.4487        0.0000        0.0000                  ANTENNA: DELTA H/E/N
     1     1     0                                          WAVELENGTH FACT L1/2
     5    C1    L1    L2    P2    P1                        # / TYPES OF OBSERV
    30                                                      INTERVAL
  1995     2     9    16     0   30.000000                  TIME OF FIRST OBS
  1995     2    10     0     0    0.000000                  TIME OF LAST OBS
     0                                                      # OF SATELLITES
                                                            END OF HEADER
 95  2  9 16  0 30.0000000  0  7  1 14 15 21 22 25 29
  23495108.711     2053431.56916   1528976.13059  23495110.2464
  22554305.164    -2251750.77416  -1664567.81659  22554307.1914
  21001378.078      498846.43917    388980.22959  21001379.7194
  23874144.789     2598198.22815   1897209.94459  23874146.7704
  23791555.672    -2413105.64115  -1773552.21858  23791558.4614
  20689197.602      765422.97117    585732.08059  20689197.7664
  23948705.688    -1529319.28714  -1111161.12959  23948707.3164
 95  2  9 16  1  0.0000000  0  7  1 14 15 21 22 25 29
  23510221.062     2132846.236 6   1590857.67949  23510222.4344
  22540301.352    -2325342.406 6  -1721911.94049  22540302.1024
  21007584.352      531459.263 7    414392.80449  21007585.6884
  23893619.047     2700539.825 5   1976956.53149  23893622.4804
  23776205.023    -2493776.009 5  -1836412.17749  23776208.7504
  20696891.391      805853.852 7    617236.66949  20696891.5204
  23938638.023    -1582227.119 5  -1152387.97949  23938640.6024
 95  2  9 16  1 30.0000000  0  7  1 14 15 21 22 25 29
  23525380.992     2212513.823 6   1652936.28249  23525382.6334
  22526360.586    -2398600.528 6  -1778996.16749  22526361.4534
  21013949.984      564910.346 7    440458.56849  21013951.7544
  23913179.062     2803325.904 5   2057049.48649  23913182.1684
  23760904.828    -2574172.956 5  -1899059.10748  23760908.7544
  20704721.586      847000.957 7    649299.35449  20704721.8204
  23928631.672    -1634814.809 5  -1193365.40249  23928634.2504
 95  2  9 16  2  0.0000000  0  7  1 14 15 21 22 25 29
  23540588.492     2292430.252 6   1715208.78949  23540589.6414
  22512483.891    -2471524.735 6  -1835820.19249  22512485.1684
  21020473.398      599191.904 7    467171.46149  21020475.1454
  23932822.055     2906553.845 5   2137486.73147  23932826.6844
  23745657.945    -2654301.297 5  -1961496.70349  23745661.0164
  20712686.367      888857.326 7    681914.71149  20712686.5084
  23918682.812    -1687092.652 5  -1234101.34649  23918684.5354
 95  2  9 16  2 30.0000000  0  7  1 14 15 21 22 25 29
  23555840.992     2372582.388 6   1777664.93049  23555842.7624
  22498668.234    -2544124.901 6  -1892391.72849  22498669.3244
  21027153.648      634293.889 7    494523.64749  21027155.2074
  23952547.734     3010210.106 4   2218257.74449  23952551.8014
  23730459.312    -2734167.594 5  -2023730.13849  23730462.5824
  20720781.562      931397.022 7    715062.53049  20720781.5044
  23908794.852    -1739055.871 5  -1274592.12149  23908796.7974
 95  2  9 16  3  0.0000000  0  7  1 14 15 21 22 25 29
  23571135.234     2452950.425 6   1840289.34549  23571136.7344
  22484913.281    -2616410.487 6  -1948718.16549  22484914.5944
  21033987.711      670209.048 7    522509.47449  21033989.1644
  23972351.250     3114279.160 4   2299350.41149  23972354.9534
  23715309.430    -2813784.978 5  -2085769.61049  23715312.7934
  20729004.148      974608.928 7    748734.15249  20729004.1954
  23898967.875    -1790696.477 5  -1314831.53049  23898968.8834
 95  2  9 16  3 30.0000000  0  7  1 14 15 21 22 25 29
  23586468.961     2533531.901 6   1903080.05649  23586470.7304
  22471218.969    -2688367.970 6  -2004788.89149  22471221.0904
  21040978.859      706949.329 7    551138.25449  21040980.9924
  23992240.492     3218793.222 5   2380789.82147  23992243.7854
  23700203.508    -2893163.584 5  -2147623.02849  23700205.8404
  20737359.453     1018512.454 7    782944.69449  20737359.4184
  23889204.594    -1842003.788 5  -1354811.23249  23889206.1174
 95  2  9 16  4  0.0000000  0  7  1 14 15 21 22 25 29
  23601840.656     2614309.240 6   1966023.43249  23601842.0864
  22457585.570    -2760018.478 6  -2060620.41549  22457585.7114
  21048123.969      744495.939 7    580395.34249  21048125.4454
  24012210.234     3323738.406 3   2462565.20646  24012214.4654
  23685141.055    -2972318.724 5  -2209302.28449  23685144.4184
  20745844.680     1063104.713 7    817691.91649  20745844.5984
  23879502.625    -1892987.655 5  -1394538.89649  23879503.3404
 95  2  9 16  4 30.0000000  0  7  1 14 15 21 22 25 29
  23617247.969     2695275.666 6   2029114.09549  23617248.9774
  22444003.867    -2831389.045 6  -2116233.88349  22444004.5354
  21055419.984      782835.651 7    610270.42549  21055421.2154
  24032256.906     3429085.862 3   2544653.98048  24032260.8674
  23670118.852    -3051261.997 5  -2270816.48349  23670122.4734
  20754463.234     1108398.319 7    852985.64349  20754463.3874
  23869858.352    -1943663.942 5  -1434026.88849  23869859.1954
 95  2  9 16  5  0.0000000  0  7  1 14 15 21 22 25 29
  23632696.547     2776460.063 6   2092374.63049  23632697.9774
  22430480.289    -2902457.106 6  -2171611.48049  22430482.1764
  21062868.969      821981.576 7    640773.73649  21062870.5164
  24052384.281     3534855.531 3   2627071.80947  24052389.3914
  23655139.805    -3129978.376 5  -2332153.87349  23655144.0704
  20763222.812     1154428.177 7    888853.06549  20763222.6024
  23860272.047    -1994038.984 5  -1473280.16949  23860273.7934
 95  2  9 16  5 30.0000000  0  7  1 14 15 21 22 25 29
  23648189.961     2857879.658 6   2155818.41949  23648191.7894
  22417016.773    -2973207.016 6  -2226741.30049  22417016.9144
  21070473.289      861943.047 7    671912.52849  21070475.0704
  24072596.156     3641068.923 3   2709835.38047  24072601.4884
  23640207.406    -3208443.789 5  -2393295.70749  23640210.5234
  20772123.305     1201199.252 7    925298.06049  20772123.0824
  23850744.508    -2044109.831 5  -1512296.42049  23850745.5044
 95  2  9 16  6  0.0000000  0  7  1 14 15 21 22 25 29
  23663722.195     2939499.152 6   2219417.98849  23663723.5204
  22403607.992    -3043667.669 6  -2281645.68149  22403610.1374
  21078225.312      902678.877 7    703654.72049  21078227.1294
  24092883.375     3747675.936 3   2792905.65947  24092887.5234
  23625320.977    -3286676.003 5  -2454255.81649  23625324.0354
  20781152.500     1248647.238 7    962270.51749  20781152.4774
  23841265.711    -2093922.769 5  -1551111.67849  23841267.2584
 95  2  9 16  6 30.0000000  0  7  1 14 15 21 22 25 29
  23679288.547     3021301.051 6   2283159.68049  23679290.1174
  22390257.438    -3113829.147 6  -2336316.93349  22390258.8324
  21086122.047      944177.313 7    735991.13949  21086123.7114
  24113245.008     3854676.663 3   2876282.68247  24113250.6914
  23610477.562    -3364680.576 5  -2515038.51449  23610479.8244
  20790303.375     1296738.794 7    999744.45549  20790303.4104
  23831832.625    -2143496.523 5  -1589740.55249  23831833.8914
 95  2  9 16  7  0.0000000  0  7  1 14 15 21 22 25 29
  23694886.055     3103267.961 6   2347029.98249  23694887.6844
  22376965.195    -3183677.454 6  -2390744.16549  22376966.4144
  21094164.578      986440.843 7    768923.74749  21094166.3954
  24133684.578     3962084.084 5   2959976.64649  24133688.5624
  23595679.539    -3442439.383 5  -2575629.72349  23595682.4224
  20799573.000     1345447.766 7   1037699.49349  20799573.1644
  23822444.828    -2192826.985 5  -1628179.83349  23822447.1134
 95  2  9 16  7 30.0000000  0  7  1 14 15 21 22 25 29
  23710510.898     3185376.410 6   2411010.53549  23710512.5744
  22363732.188    -3253220.750 6  -2444933.71249  22363733.2664
  21102351.938     1029465.056 7    802449.09149  21102353.6844
  24154201.180     4069899.535 4   3043988.57849  24154205.1524
  23580930.523    -3519946.657 5  -2636024.94149  23580933.5234
  20808958.008     1394766.866 7   1076129.95649  20808958.2194
  23813105.445    -2241907.230 5  -1666424.16049  23813107.2974
 95  2  9 16  8  0.0000000  0  7  1 14 15 21 22 25 29
  23726160.711     3267614.754 6   2475092.33249  23726163.1604
  22350555.242    -3322463.982 6  -2498889.44749  22350555.8404
  21110683.695     1073246.250 7    836564.28649  21110685.2304
  24174795.563     4178121.181 5   3128316.95549  24174800.0744
  23566227.898    -3597206.328 5  -2696227.18249  23566231.0864
  20818460.969     1444705.830 7   1115043.43149  20818461.1684
  23803813.484    -2290737.004 5  -1704473.33747  23803815.0554
 95  2  9 16  8 30.0000000  0  7  1 14 15 21 22 25 29
  23741834.609     3349984.417 6   2539276.44449  23741836.4024
  22337433.008    -3391421.779 6  -2552622.79149  22337433.5944
  21119158.812     1117782.048 7    871267.49149  21119160.1484
  24195466.094     4286745.263 5   3212958.99149  24195470.1024
  23551572.367    -3674223.401 5  -2756240.43949  23551575.0744
  20828086.445     1495290.510 7   1154460.06049  20828086.6214
  23794572.078    -2339299.582 5  -1742314.28949  23794572.5594
 95  2  9 16  9  0.0000000  0  7  1 14 15 21 22 25 29
  23757532.844     3432476.341 6   2603555.82049  23757534.0984
  22324357.875    -3460132.833 6  -2606163.81449  22324358.7664
  21127771.750     1163042.858 7    906535.63749  21127772.8984
  24216204.570     4395734.161 3   3297885.29848  24216211.1334
  23536956.805    -3751027.453 5  -2816087.68149  23536961.5514
  20837831.195     1546499.537 7   1194363.19349  20837831.4654
  23785378.062    -2387613.092 5  -1779961.13749  23785378.7774
 95  2  9 16  9 30.0000000  0  7  1 14 15 21 22 25 29
  23773265.094     3515149.014 6   2667976.06249  23773266.9224
  22311336.828    -3528558.589 6  -2659482.61149  22311336.4304
  21136528.656     1209062.546 7    942395.11949  21136529.8874
  24237020.273     4505117.875 3   3383119.21048  24237025.5124
  23522385.102    -3827603.954 5  -2875757.61549  23522388.6414
  20847701.805     1598368.390 7   1234780.47549  20847701.9454
  23776241.180    -2435626.150 5  -1817373.91649  23776241.2274
 95  2  9 16 10  0.0000000  0  7  1 14 15 21 22 25 29
  23789034.133     3598015.498 6   2732547.31049  23789036.1254
  22298368.680    -3596705.691 6  -2712584.20849  22298370.0274
  21145427.984     1255828.780 7    978836.31949  21145429.4844
  24257904.750     4614862.794 4   3468634.59648  24257909.9414
  23507852.820    -3903971.104 5  -2935264.41649  23507856.2544
  20857692.641     1650870.452 7   1275691.16649  20857692.6994
  23767159.609    -2483352.411 5  -1854563.20947  23767160.3244
 95  2  9 16 10 30.0000000  0  7  1 14 15 21 22 25 29
  23804846.992     3681113.230 6   2797298.74849  23804848.7974
  22285461.859    -3664535.010 7  -2765438.21749  22285462.1294
  21154474.156     1303369.992 7   1015881.40949  21154475.5514
  24278858.992     4724980.399 3   3554440.41149  24278863.6454
  23493367.898    -3980090.305 5  -2994578.02849  23493370.9924
  20867805.727     1704012.899 7   1317100.86049  20867805.7274
  23758135.789    -2530775.383 5  -1891516.18649  23758136.7734
 95  2  9 16 11  0.0000000  0  7  1 14 15 21 22 25 29
  23820697.828     3764409.426 6   2862204.83049  23820699.0474
  22272610.477    -3732066.162 6  -2818059.89549  22272611.4614
  21163662.617     1351654.753 7   1053505.87749  21163664.0004
  24299878.289     4835432.080 3   3640506.50846  24299883.4104
  23478924.258    -4055991.429 5  -3053721.68549  23478927.1994
  20878028.328     1757731.111 8   1358959.20949  20878028.0704
  23749160.398    -2577941.193 5  -1928268.70449  23749161.6294
 95  2  9 16 11 30.0000000  0  7  1 14 15 21 22 25 29
  23836570.805     3847826.420 5   2927205.06249  23836573.6994
  22259807.938    -3799343.402 6  -2870483.70549  22259809.0044
  21172982.375     1400629.626 7   1091668.10449  21172983.8054
  24320951.750     4946172.438 3   3726797.57148  24320957.2934
  23464514.891    -4131713.756 5  -3112726.05549  23464517.7734
  20888348.078     1811965.988 7   1401220.15749  20888347.9144
  23740222.086    -2624910.382 5  -1964868.04949  23740223.2464
 95  2  9 16 12  0.0000000  0  7  1 14 15 21 22 25 29
  23852472.727     3931387.252 6   2992317.33449  23852473.8634
  22247062.406    -3866326.131 7  -2922678.05349  22247062.8634
  21182440.523     1450331.999 7   1130397.21249  21182441.9884
  24342089.641     5057250.195 3   3813351.48347  24342092.5004
  23450151.930    -4207185.144 5  -3171534.87449  23450155.4104
  20898775.617     1866764.446 7   1443920.26249  20898775.3834
  23731324.445    -2671662.383 5  -2001298.18549  23731326.4494
 95  2  9 16 12 30.0000000  0  7  1 14 15 21 22 25 29
  23868399.688     4015084.413 6   3057535.90549  23868401.1994
  22234372.781    -3933001.852 6  -2974633.13049  22234374.4344
  21192037.781     1500764.268 7   1169695.06249  21192039.3874
  24363295.938     5168690.813 4   3900188.19447  24363300.1804
  23435842.531    -4282385.512 5  -3230132.49849  23435846.2704
  20909312.719     1922134.572 7   1487065.81549  20909312.6254
  23722470.906    -2718192.339 5  -2037555.24849  23722472.6294
 95  2  9 16 13  0.0000000  0  7  1 14 15 21 22 25 29
  23884353.430     4098920.721 6   3122862.83749  23884355.2234
  22221745.156    -3999368.527 7  -3026347.42149  22221745.5084
  21201773.414     1551926.171 7   1209561.46849  21201775.1484
  24384574.227     5280508.772 3   3987318.93447  24384577.6954
  23421583.875    -4357315.767 5  -3288519.64749  23421587.5314
  20919962.406     1978095.915 8   1530672.05049  20919962.3124
  23713660.781    -2764491.367 5  -2073632.38049  23713662.2934
 95  2  9 16 13 30.0000000  0  7  1 14 15 21 22 25 29
  23900333.211     4182892.397 6   3188295.31049  23900334.6174
  22209172.164    -4065435.473 6  -3077828.13249  22209173.9224
  21211645.102     1603802.639 7   1249984.66349  21211646.9064
  24405922.836     5392700.837 3   4074741.18947  24405928.2384
  23407376.898    -4431976.331 5  -3346696.63549  23407379.4534
  20930727.156     2034667.771 7   1574754.01749  20930727.0274
  23704892.523    -2810569.792 5  -2109537.64249  23704893.2624
 95  2  9 16 14  0.0000000  0  7  1 14 15 21 22 25 29
  23916341.281     4267019.113 6   3253848.54649  23916343.0984
  22196656.500    -4131204.066 6  -3129076.38049  22196657.8124
  21221651.711     1656386.038 7   1290958.71749  21221653.3524
  24427339.641     5505246.829 3   4162439.22047  24427344.3874
  23393217.344    -4506382.631 5  -3404675.51749  23393219.5124
  20941607.477     2091846.635 7   1619308.98049  20941607.3594
  23696166.250    -2856430.546 5  -2145273.26949  23696166.6954
 95  2  9 16 14 30.0000000  0  7  1 14 15 21 22 25 29
  23932381.344     4351310.712 6   3319530.26749  23932382.9964
  22184199.023    -4196671.258 6  -3180089.73249  22184200.8284
  21231792.477     1709676.409 7   1332483.66149  21231793.7194
  24448820.969     5618130.090 3   4250400.09746  24448825.2934
  23379102.867    -4580554.322 5  -3462471.58149  23379106.1724
  20952603.195     2149627.733 7   1664333.21349  20952603.0554
  23687482.141    -2902064.180 5  -2180831.91649  23687483.1254
 95  2  9 16 15  0.0000000  0  7  1 14 15 21 22 25 29
  23948451.828     4435762.507 6   3385336.82549  23948454.1844
  22171794.875    -4261849.374 6  -3230877.87749  22171796.7274
  21242067.328     1763669.809 7   1374556.42349  21242068.9224
  24470362.820     5731330.172 3   4338607.83747  24470368.3284
  23365031.000    -4654500.312 5  -3520091.76749  23365034.4694
  20963712.344     2208006.832 7   1709823.41649  20963712.3914
  23678841.414    -2947468.089 5  -2216211.55249  23678842.9964
 95  2  9 16 15 30.0000000  0  7  1 14 15 21 22 25 29
  23964553.367     4520374.798 6   3451268.46749  23964555.0204
  22159451.133    -4326728.525 7  -3281433.00749  22159451.9534
  21252476.914     1818371.547 7   1417181.12549  21252478.2034
  24491967.031     5844861.852 3   4427073.90548  24491971.2154
  23351004.477    -4728209.783 5  -3577527.64849  23351008.4384
  20974934.695     2266979.342 7   1755776.01349  20974934.6374
  23670247.953    -2992625.004 5  -2251398.75049  23670249.9224
 95  2  9 16 16  0.0000000  0  7  1 14 15 21 22 25 29
  23980679.195     4605115.725 5   3517300.27549  23980681.6094
  22147157.828    -4391320.115 6  -3331764.11549  22147159.3524
  21263018.352     1873769.934 7   1460348.67749  21263019.7234
  24513630.508     5958709.592 3   4515786.30147  24513635.6884
  23337020.852    -4801698.803 5  -3634791.72749  23337022.4224
  20986262.266     2326505.544 7   1802160.05349  20986262.3954
  23661699.172    -3037549.781 5  -2286405.07349  23661700.6954
 95  2  9 16 16 30.0000000  0  7  1 14 15 21 22 25 29
  23996827.766     4689976.142 6   3583425.25749  23996829.0554
  22134923.359    -4455618.170 7  -3381866.47549  22134924.4144
  21273696.500     1929881.421 7   1504071.89749  21273697.8594
  24535360.688     6072896.150 3   4604762.67646  24535366.6414
  23323084.109    -4874936.814 5  -3691860.21349  23323086.4774
  20997697.617     2386600.406 7   1848987.20649  20997697.8284
  23653197.547    -3082228.302 5  -2321219.49849  23653199.4454
 95  2  9 16 17  0.0000000  0  7  1 14 15 21 22 25 29
  24012995.984     4774941.807 6   3649632.26749  24012997.1334
  22122740.281    -4519637.941 6  -3431751.96149  22122741.8984
  21284506.742     1986690.951 7   1548339.04649  21284508.0084
  24557154.008     6187423.129 3   4694004.33947  24557157.1134
  23309194.820    -4947922.535 5  -3748732.11449  23309198.0664
  21009238.688     2447249.543 7   1896246.26849  21009238.8874
  23644739.703    -3126672.689 5  -2355851.47949  23644740.8404
 95  2  9 16 17 30.0000000  0  7  1 14 15 21 22 25 29
  24029182.930     4860005.142 6   3715915.32549  24029184.8404
  22110611.930    -4583371.196 6  -3481414.28649  22110612.4104
  21295448.633     2044192.300 7   1593145.27549  21295449.8874
  24579013.258     6302290.978 3   4783511.65646  24579017.5474
  23295354.242    -5020657.293 5  -3805408.48249  23295357.5124
  21020885.016     2508452.328 7   1943936.73849  21020885.1094
  23636325.469    -3170892.727 5  -2390308.62349  23636326.2424
 95  2  9 16 18  0.0000000  0  7  1 14 15 21 22 25 29
  24045390.688     4945175.227 6   3782281.60549  24045392.0474
  22098540.672    -4646812.421 7  -3530848.93249  22098542.1844
  21306523.438     2102389.482 7   1638493.70549  21306524.7154
  24600934.016     6417485.958 3   4873273.81848  24600939.0904
  23281562.391    -5093130.239 5  -3861880.83549  23281566.2464
  21032638.289     2570210.071 8   1992059.64449  21032638.3244
  23627953.539    -3214885.792 5  -2424588.89149  23627954.5474
 95  2  9 16 18 30.0000000  0  7  1 14 15 21 22 25 29
  24061623.383     5030478.693 6   3848751.78649  24061624.9064
  22086524.750    -4709951.515 6  -3580048.26849  22086524.6804
  21317730.172     2161281.689 7   1684383.72249  21317731.7304
  24622917.133     6533011.213 3   4963293.34947  24622923.5204
  23267824.484    -5165324.405 5  -3918135.96049  23267828.4224
  21044499.531     2632541.068 8   2040629.24249  21044499.3914
  23619628.500    -3258632.305 5  -2458677.04549  23619629.5664
 95  2  9 16 19  0.0000000  0  7  1 14 15 21 22 25 29
  24077884.469     5115930.277 6   3915337.41849  24077886.0274
  22074569.406    -4772780.838 7  -3629006.13749  22074570.3444
  21329067.430     2220856.928 7   1730805.96249  21329068.8834
  24644963.508     6648859.372 3   5053564.45546  24644967.1054
  23254138.141    -5237244.785 5  -3974177.75249  23254141.1644
  21056467.672     2695436.875 7   2089638.95749  21056467.6724
  23611348.867    -3302140.971 5  -2492579.86149  23611350.2854
 95  2  9 16 19 30.0000000  0  6  1 14 15 22 25 29
  24094172.297     5201525.092 5   3982034.63249  24094174.3594
  22062673.047    -4835297.359 7  -3677720.29549  22062672.8594
  21340532.672     2281108.694 7   1777755.36849  21340534.0314
  23240505.773    -5308885.408 5  -4030001.53449  23240508.3874
  21068541.742     2758887.378 7   2139080.89449  21068541.6844
  23603113.070    -3345420.327 5  -2526304.02049  23603115.4264
 95  2  9 16 20  0.0000000  0  6  1 14 15 22 25 29
  24110488.977     5287268.633 5   4048847.73949  24110491.0624
  22050834.969    -4897501.604 6  -3726191.12249  22050836.7504
  21352126.820     2342035.752 7   1825230.97749  21352128.5784
  23226929.656    -5380228.959 5  -4085593.82549  23226932.2814
  21080719.305     2822880.583 8   2188945.72049  21080719.3404
  23594919.828    -3388476.293 5  -2559854.09349  23594922.1254
 95  2  9 16 20 30.0000000  0  6  1 14 15 22 25 29
  24126831.844     5373151.399 5   4115769.32649  24126833.6134
  22039056.586    -4959398.776 6  -3774422.67949  22039056.4574
  21363847.539     2403629.172 7   1873225.82249  21363849.3204
  23213410.109    -5451274.878 5  -4140954.20649  23213412.8984
  21093001.445     2887422.725 8   2239238.29249  21093001.1994
  23586765.258    -3431330.230 5  -2593246.74749  23586767.6844
 95  2  9 16 21  0.0000000  0  6  1 14 15 22 25 29
  24143198.211     5459155.744 6   4182785.65949  24143200.0624
  22027335.508    -5020994.719 6  -3822419.46449  22027337.4064
  21375694.320     2465885.198 6   1921736.99349  21375696.1724
  23199943.758    -5522036.118 5  -4196092.79349  23199947.3204
  21105385.508     2952504.724 7   2289951.53349  21105385.2734
  23578644.328    -3474005.115 5  -2626499.84549  23578645.7704
 95  2  9 16 21 30.0000000  0  6  1 14 15 22 25 29
  24159585.992     5545274.552 5   4249891.17149  24159587.5984
  22015671.531    -5082286.179 6  -3870179.07349  22015672.1054
  21387667.609     2528805.794 6   1970766.01249  21387669.4144
  23186534.023    -5592507.377 5  -4251005.40249  23186537.0824
  21117873.586     3018127.604 8   2341086.23549  21117873.4924
  23570559.328    -3516493.945 5  -2659607.99349  23570559.7624
 95  2  9 16 22  0.0000000  0  6  1 14 15 22 25 29
  24175995.156     5631505.360 5   4317083.95049  24175996.7154
  22004066.172    -5143276.652 7  -3917704.07649  22004067.1094
  21399765.961     2592380.148 7   2020304.44649  21399767.8014
  23173174.953    -5662705.236 5  -4305704.94749  23173178.3164
  21130464.297     3084293.594 7   2392644.14349  21130464.2154
  23562507.117    -3558803.767 5  -2692576.65049  23562508.1844
 95  2  9 16 22 30.0000000  0  6  1 14 15 22 25 29
  24192428.070     5717859.862 5   4384373.13549  24192430.3204
  21992518.773    -5203960.047 7  -3964989.82649  21992518.9024
  21411988.703     2656612.801 6   2070355.83849  21411990.4494
  23159868.398    -5732633.879 5  -4360194.73849  23159871.1764
  21143160.680     3151015.564 7   2444635.27849  21143160.7504
  23554492.242    -3600919.624 5  -2725394.14349  23554494.8444
 95  2  9 16 23  0.0000000  0  6  1 14 15 22 25 29
  24208885.359     5804345.095 5   4451764.18149  24208886.6724
  21981029.617    -5264329.821 6  -4012031.21549  21981031.1764
  21424336.516     2721501.940 6   2120918.78549  21424338.4964
  23146613.133    -5802291.522 5  -4414473.37549  23146616.0864
  21155959.766     3218273.179 7   2497043.80249  21155959.7074
  23546518.055    -3642828.322 5  -2758050.24449  23546519.2504
 95  2  9 16 23 30.0000000  0  6  1 14 15 22 25 29
  24225365.922     5890950.594 5   4519248.93649  24225367.4804
  21969603.219    -5324384.388 7  -4058826.97249  21969602.5624
  21436808.047     2787039.606 6   2171987.06649  21436810.0274
  23133410.859    -5871671.721 5  -4468535.76649  23133412.6764
  21168859.016     3286056.409 8   2549861.89749  21168859.0744
  23538583.891    -3684521.475 5  -2790538.37149  23538585.3324
 95  2  9 16 24  0.0000000  0  6  1 14 15 22 25 29
  24241868.758     5977673.392 5   4586825.11649  24241870.8204
  21958233.766    -5384126.277 7  -4105379.04149  21958235.9344
  21449402.203     2853222.566 6   2223558.17849  21449404.1604
  23120259.016    -5940782.573 5  -4522388.30549  23120262.2034
  21181856.094     3354356.506 8   2603082.74349  21181856.2814
  23530691.109    -3725999.979 5  -2822859.22849  23530692.6804
 95  2  9 16 24 30.0000000  0  6  1 14 15 22 25 29
  24258391.750     6064499.428 5   4654481.73449  24258393.6954
  21946921.766    -5443567.546 6  -4151696.97849  21946922.0354
  21462118.109     2920042.742 6   2275625.82749  21462120.1254
  23107157.898    -6009627.207 5  -4576033.39749  23107160.4414
  21194947.562     3423152.500 8   2656690.00549  21194947.6804
  23522838.977    -3767263.737 5  -2855012.77049  23522839.8324
 95  2  9 16 25  0.0000000  0  6  1 14 15 22 25 29
  24274932.430     6151425.464 5   4722216.26849  24274934.9844
  21935671.711    -5502694.509 7  -4197769.86049  21935672.6024
  21474954.633     2987502.060 6   2328191.50249  21474956.3794
  23094109.508    -6078199.009 5  -4629465.87949  23094112.8594
  21208133.281     3492446.080 7   2710684.99549  21208133.6334
  23515029.719    -3808302.350 6  -2886990.87449  23515030.8794
 95  2  9 16 25 30.0000000  0  6  1 14 15 22 25 29
  24291493.219     6238450.518 5   4790027.94849  24291495.2934
  21924476.281    -5561520.795 6  -4243608.52649  21924477.8404
  21487912.922     3055597.070 6   2381252.52349  21487914.7384
  23081110.859    -6146507.654 5  -4682693.32849  23081113.7774
  21221414.688     3562243.201 7   2765072.35649  21221414.7704
  23507262.570    -3849116.592 5  -2918794.14749  23507264.4694
 95  2  9 16 26  0.0000000  0  6  1 14 15 22 25 29
  24308078.984     6325609.702 5   4857944.14149  24308080.9534
  21913342.438    -5620028.087 6  -4289198.61949  21913343.2584
  21500995.555     3124347.262 6   2434824.07549  21500997.4304
  23068165.555    -6214534.733 5  -4735701.35849  23068168.4384
  21234797.070     3632565.527 7   2819868.96249  21234797.1054
  23499542.531    -3889684.583 5  -2950405.53549  23499544.0784
 95  2  9 16 26 30.0000000  0  6  1 14 15 22 25 29
  24324686.125     6412882.220 5   4925948.64149  24324688.5164
  21902266.945    -5678235.435 7  -4334554.94749  21902267.8594
  21514199.188     3193730.429 6   2488888.85049  21514201.3094
  23055274.391    -6282280.410 6  -4788490.13149  23055276.9804
  21248276.938     3703400.236 7   2875064.83349  21248277.0084
  23491864.516    -3930034.013 5  -2981846.59749  23491865.5474
 95  2  9 16 27  0.0000000  0  6  1 14 15 22 25 29
  24341309.023     6500236.599 5   4994016.93049  24341312.4224
  21891243.711    -5736164.432 7  -4379694.41349  21891244.1684
  21527516.711     3263715.621 6   2543422.74049  21527518.9024
  23042432.187    -6349766.922 6  -4841076.92749  23042434.2974
  21261849.281     3774721.687 8   2930639.98749  21261849.1764
  23484220.734    -3970204.607 5  -3013148.31049  23484221.8244
 95  2  9 16 27 30.0000000  0  6  1 14 15 22 25 29
  24357950.445     6587686.941 5   5062160.00549  24357952.7894
  21880275.406    -5793799.501 7  -4424604.84049  21880276.7424
  21540952.031     3334319.023 6   2598438.35449  21540954.0824
  23029643.180    -6416969.692 5  -4893442.60749  23029646.1214
  21275517.125     3846544.413 8   2986605.74749  21275517.0204
  23476610.266    -4010198.560 5  -3044312.39249  23476611.5434
 95  2  9 16 28  0.0000000  0  6  1 14 15 22 25 29
  24374610.641     6675236.244 5   5130380.17549  24374613.2774
  21869370.602    -5851104.271 7  -4469257.90149  21869371.2464
  21554506.742     3405548.643 6   2653941.92449  21554508.6524
  23016914.133    -6483861.500 5  -4945566.03149  23016917.0394
  21289281.633     3918878.103 8   3042969.66549  21289281.5984
  23469030.789    -4050027.196 5  -3075347.62049  23469031.7734
 95  2  9 16 28 30.0000000  0  6  1 14 15 22 25 29
  24391289.383     6762884.992 5   5198677.84549  24391291.5274
  21858531.891    -5908065.717 7  -4513643.42049  21858532.7704
  21568180.789     3477408.382 6   2709936.49649  21568182.9924
  23004247.508    -6550425.774 5  -4997434.20749  23004249.2774
  21303143.281     3991726.048 7   3099734.29849  21303143.3874
  23461480.789    -4089699.499 5  -3106261.04849  23461482.2074
 95  2  9 16 29  0.0000000  0  6  1 14 15 22 25 29
  24407991.094     6850647.586 5   5267064.25249  24407993.6374
  21847757.305    -5964684.258 7  -4557761.74349  21847758.8284
  21581974.867     3549893.939 6   2766418.72749  21581976.9184
  22991641.492    -6616670.832 6  -5049053.64849  22991644.0354
  21317101.484     4065079.577 7   3156892.88449  21317101.7664
  23453961.797    -4129213.688 5  -3137051.28349  23453963.9414
 95  2  9 16 29 30.0000000  0  6  1 14 15 22 25 29
  24424715.555     6938538.653 5   5335550.76749  24424717.3954
  21837047.633    -6020961.067 7  -4601613.80249  21837048.6994
  21595886.789     3623002.585 6   2823386.47149  21595888.6764
  22979097.742    -6682590.362 6  -5100419.40849  22979099.9804
  21331157.375     4138942.209 7   3214448.17649  21331157.6334
  23446472.852    -4168566.635 5  -3167715.87749  23446474.8094
 95  2  9 16 30  0.0000000  0  6  1 14 15 22 25 29
  24441466.383     7026565.042 5   5404142.71149  24441469.1374
  21826403.953    -6076897.730 7  -4645200.80149  21826404.3524
  21609917.438     3696731.279 6   2880837.37249  21609919.4414
  22966616.914    -6748176.932 6  -5151525.73049  22966619.5514
  21345311.227     4213318.721 7   3272403.88849  21345311.4844
  23439018.023    -4207740.947 5  -3198241.26049  23439019.3364
 95  2  9 16 30 30.0000000  0  6  1 14 15 22 25 29
  24458244.617     7114735.939 5   5472847.26449  24458248.5204
  21815822.211    -6132506.874 7  -4688532.52549  21815823.2074
  21624065.938     3771081.668 6   2938772.71549  21624067.7664
  22954200.531    -6813422.199 6  -5202366.10449  22954202.5234
  21359561.977     4288207.616 8   3330758.87449  21359562.1294
  23431603.625    -4246704.801 5  -3228602.66549  23431604.5984
 95  2  9 16 31  0.0000000  0  6  1 14 15 22 25 29
  24475049.898     7203044.704 5   5541659.25549  24475051.3524
  21805301.258    -6187786.652 6  -4731607.70649  21805302.4304
  21638332.203     3846051.758 6   2997190.94749  21638333.7624
  22941848.930    -6878326.862 5  -5252941.08249  22941851.5784
  21373908.672     4363601.854 7   3389507.63149  21373908.7664
  23424232.094    -4285444.845 5  -3258789.66449  23424232.5044
 95  2  9 16 31 30.0000000  0  6  1 14 15 22 25 29
  24491877.336     7291474.691 5   5610565.68649  24491880.0664
  21794848.820    -6242717.666 7  -4774411.07149  21794849.5004
  21652717.031     3921644.977 6   3056094.73349  21652718.5434
  22929565.156    -6942881.729 6  -5303243.48749  22929566.9734
  21388351.359     4439498.520 7   3448647.89049  21388351.5004
  23416903.641    -4323956.463 5  -3288798.68649  23416904.3794
 95  2  9 16 32  0.0000000  0  6  1 14 15 22 25 29
  24508725.461     7380011.464 5   5679555.33549  24508727.8634
  21784465.430    -6297286.953 7  -4816932.58149  21784465.6054
  21667219.719     3997859.939 6   3115482.97749  21667221.5944
  22917347.773    -7007082.906 5  -5353270.29949  22917350.3404
  21402886.250     4515879.964 7   3508165.90149  21402886.5314
  23409620.187    -4362228.243 5  -3318620.79849  23409621.4304
 95  2  9 16 32 30.0000000  0  6  1 14 15 22 25 29
  24525596.680     7468668.987 5   5748639.05549  24525598.7894
  21774152.883    -6351477.385 7  -4859158.87149  21774153.4924
  21681841.930     4074697.430 6   3175356.27849  21681844.3444
  22905198.586    -7070929.114 6  -5403020.50249  22905200.2504
  21417510.930     4592734.565 7   3568052.60349  21417511.2114
  23402382.195    -4400262.072 5  -3348257.53249  23402383.4494
 95  2  9 16 33  0.0000000  0  6  1 14 15 22 25 29
  24542492.492     7557457.610 5   5817824.95249  24542495.2344
  21763918.188    -6405262.710 7  -4901069.52049  21763919.0434
  21696583.375     4152167.963 6   3235722.94749  21696585.5314
  22893116.773    -7134418.121 6  -5452492.34349  22893119.3984
  21432229.484     4670076.686 7   3628319.17649  21432229.5434
  23395190.344    -4438061.527 6  -3377711.61649  23395191.4574
 95  2  9 16 33 30.0000000  0  6  1 14 15 22 25 29
  24559416.062     7646391.127 5   5887123.75949  24559419.3204
  21753760.609    -6458640.283 7  -4942662.43749  21753761.1604
  21711445.836     4230269.136 6   3296580.98149  21711448.2384
  22881104.867    -7197541.240 6  -5501679.09849  22881107.7154
  21447040.789     4747915.763 7   3688973.00249  21447040.9304
  23388041.484    -4475626.768 6  -3406983.20549  23388042.6914
 95  2  9 16 34  0.0000000  0  6  1 14 15 22 25 29
  24576370.039     7735484.243 5   5956546.93549  24576372.3244
  21743674.656    -6511638.643 7  -4983959.83549  21743675.4534
  21726426.047     4308988.084 6   3357920.39149  21726428.3794
  22869161.102    -7260304.151 6  -5550585.17449  22869163.5164
  21461947.672     4826245.578 8   3750009.21949  21461947.7774
  23380936.273    -4512966.467 6  -3436079.03049  23380936.8594
 95  2  9 16 34 30.0000000  0  6  1 14 15 22 25 29
  24593355.289     7824745.767 5   6026101.31549  24593359.1914
  21733659.594    -6564273.453 7  -5024973.97949  21733660.2734
  21741522.625     4388322.543 6   3419739.41849  21741524.8634
  22857285.555    -7322710.831 6  -5599213.66049  22857288.5554
  21476948.883     4905079.757 7   3811438.45449  21476948.8714
  23373871.844    -4550089.263 6  -3465005.83749  23373872.4184
 95  2  9 16 35  0.0000000  0  6  1 14 15 22 25 29
  24610368.938     7914151.508 5   6095768.07749  24610371.9144
  21723710.109    -6616562.188 7  -5065718.40049  21723710.0514
  21756735.883     4468268.977 6   3482035.31749  21756737.7584
  22845480.617    -7384745.566 6  -5647552.34749  22845483.1024
  21492047.570     4984425.582 7   3873266.36749  21492047.5354
  23366847.492    -4586999.851 5  -3493767.28849  23366848.2304
 95  2  9 16 35 30.0000000  0  6  1 14 15 22 25 29
  24627410.047     8003702.212 5   6165547.80549  24627412.1214
  21713823.531    -6668511.575 7  -5106198.40649  21713825.3364
  21772065.414     4548826.392 6   3544807.30649  21772067.6524
  22833749.414    -7446394.719 6  -5695590.56049  22833752.0744
  21507243.312     5064277.853 8   3935488.91149  21507243.2664
  23359864.500    -4623695.080 5  -3522360.92149  23359865.9774
 95  2  9 16 36  0.0000000  0  6  1 14 15 22 25 29
  24644473.555     8093370.541 5   6235419.18249  24644475.3834
  21704002.047    -6720119.403 7  -5146412.32349  21704004.1214
  21787509.859     4629987.250 6   3608049.51149  21787511.9104
  22822089.250    -7507670.295 6  -5743337.69249  22822091.4414
  21522531.570     5144620.789 7   3998093.79649  21522531.5474
  23352920.055    -4660188.227 6  -3550797.10149  23352921.3324
 95  2  9 16 36 30.0000000  0  6  1 14 15 22 25 29
  24661558.406     8183151.673 5   6305378.45149  24661560.6454
  21694253.383    -6771347.990 7  -5186330.68849  21694253.7934
  21803071.609     4711765.183 6   3671772.55749  21803073.7894
  22810504.859    -7568547.891 6  -5790774.69749  22810506.2074
  21537915.820     5225464.176 7   4061088.63949  21537915.9844
  23346014.055    -4696477.856 6  -3579074.68049  23346014.6414
 95  2  9 16 37  0.0000000  0  6  1 14 15 22 25 29
  24678663.359     8273040.918 5   6375421.96749  24678666.1724
  21684579.234    -6822189.402 7  -5225947.34849  21684580.1484
  21818749.078     4794149.125 6   3735967.80649  21818750.9064
  22798994.641    -7629029.714 6  -5837903.30349  22798997.1134
  21553392.117     5306791.016 7   4124460.20249  21553392.2814
  23339144.273    -4732581.967 6  -3607207.72449  23339144.4144
 95  2  9 16 37 30.0000000  0  6  1 14 15 22 25 29
  24695793.852     8363063.167 5   6445569.13449  24695796.3484
  21674983.516    -6872617.375 7  -5265241.89449  21674983.6094
  21834541.102     4877136.444 6   3800633.22049  21834542.9304
  22787559.398    -7689125.475 6  -5884731.11649  22787561.5904
  21568957.516     5388591.363 7   4188200.72749  21568957.3984
  23332309.727    -4768498.700 6  -3635194.74149  23332309.7034
 95  2  9 16 38  0.0000000  0  6  1 14 15 22 25 29
  24712951.820     8453228.501 5   6515827.78849  24712954.4344
  21665468.469    -6922622.114 7  -5304206.58449  21665467.9414
  21850447.484     4960723.631 6   3865766.06349  21850449.1134
  22776197.672    -7748828.352 6  -5931252.78149  22776199.8984
  21584614.383     5470865.931 7   4252310.77749  21584614.3244
  23325510.273    -4804228.496 6  -3663036.11149  23325510.4024
 95  2  9 16 38 30.0000000  0  6  1 14 15 22 25 29
  24730143.117     8543566.590 5   6586221.07049  24730144.8984
  21656032.898    -6972205.356 7  -5342842.85949  21656033.3554
  21866468.133     5044912.734 6   3931367.92749  21866470.1484
  22764915.773    -7808114.785 6  -5977449.94849  22764917.7544
  21600363.047     5553626.485 7   4316799.51749  21600363.2814
  23318749.055    -4839758.160 6  -3690721.51449  23318749.3364
 95  2  9 16 39  0.0000000  0  6  1 14 15 22 25 29
  24747365.781     8634071.900 5   6656744.63849  24747368.3714
  21646674.750    -7021381.599 7  -5381161.99749  21646675.5354
  21882600.461     5129689.004 6   3997427.32749  21882602.6174
  22753711.898    -7866993.733 6  -6023329.58049  22753713.7384
  21616203.883     5636868.801 8   4381663.65349  21616204.0234
  23312027.914    -4875078.448 6  -3718243.78949  23312027.9024
 95  2  9 16 39 30.0000000  0  6  1 14 15 22 25 29
  24764620.570     8724745.408 5   6727399.27349  24764622.5744
  21637395.750    -7070141.500 7  -5419156.71449  21637396.5124
  21898845.250     5215058.197 6   4063948.75849  21898847.4654
  22742586.344    -7925456.378 6  -6068884.82249  22742588.1134
  21632137.688     5720603.625 7   4446911.57149  21632137.7114
  23305350.469    -4910169.194 6  -3745587.19549  23305350.7624
 95  2  9 16 40  0.0000000  0  6  1 14 15 22 25 29
  24781903.078     8815564.987 5   6798167.75349  24781905.4804
  21628192.977    -7118503.192 7  -5456841.12449  21628194.3014
  21915202.328     5301011.936 6   4130925.67249  21915204.0864
  22731539.586    -7983506.896 6  -6114118.92649  22731541.9654
  21648164.367     5804823.095 7   4512537.11249  21648164.6954
  23298715.664    -4945035.686 6  -3772755.84849  23298716.2624
 95  2  9 16 40 30.0000000  0  6  1 14 15 22 25 29
  24799209.992     8906514.467 5   6869037.43449  24799212.5824
  21619065.805    -7166469.251 7  -5494217.27249  21619066.9534
  21931668.562     5387543.434 6   4198352.78349  21931670.4734
  22720569.789    -8041157.819 6  -6159041.67349  22720571.6414
  21664282.086     5889525.428 7   4578538.92249  21664282.4494
  23292124.258    -4979672.523 6  -3799745.56549  23292124.3874
 95  2  9 16 41  0.0000000  0  6  1 14 15 22 25 29
  24816539.578     8997582.012 5   6939999.12349  24816542.1214
  21610016.398    -7214020.784 7  -5531270.41249  21610017.4414
  21948246.039     5474658.427 6   4266234.56649  21948248.0204
  22709675.336    -8098407.309 6  -6203651.60749  22709676.7074
  21680491.766     5974705.362 7   4644912.88749  21680492.1644
  23285577.406    -5014075.049 6  -3826552.70749  23285577.4884
 95  2  9 16 41 30.0000000  0  6  1 14 15 22 25 29
  24833887.164     9088743.988 5   7011034.37349  24833889.5314
  21601043.086    -7261176.420 7  -5568015.06049  21601043.7074
  21964930.039     5562332.979 6   4334552.37349  21964932.3244
  22698853.352    -8155274.827 6  -6247963.91849  22698854.9224
  21696783.367     6060319.788 7   4711625.42549  21696783.0864
  23279069.039    -5048274.841 6  -3853201.86149  23279069.8714
 95  2  9 16 42  0.0000000  0  6  1 14 15 22 25 29
  24851253.805     9180003.544 5   7082145.68149  24851255.4924
  21592144.719    -7307936.062 7  -5604451.15049  21592144.8124
  21981719.727     5650563.102 6   4403303.09449  21981721.7894
  22688106.258    -8211753.547 6  -6291973.25449  22688107.8524
  21713155.914     6146354.030 8   4778665.08649  21713155.8204
  23272599.438    -5082274.987 6  -3879695.46049  23272599.5314
 95  2  9 16 42 30.0000000  0  6  1 14 15 22 25 29
  24868639.305     9271365.708 5   7153336.94549  24868641.2854
  21583321.836    -7354299.977 7  -5640578.87749  21583322.2584
  21998614.297     5739347.632 6   4472485.81949  21998616.5354
  22677435.922    -8267823.508 6  -6335664.09849  22677437.8324
  21729605.836     6232797.616 8   4846023.72649  21729605.6374
  23266168.000    -5116073.448 6  -3906031.87549  23266168.0704
 95  2  9 16 43  0.0000000  0  6  1 14 15 22 25 29
  24886045.039     9362834.490 5   7224611.27749  24886048.2974
  21574573.578    -7400271.623 7  -5676400.93749  21574574.1294
  22015614.695     5828684.393 6   4542098.85349  22015616.8524
  22666847.500    -8323469.239 6  -6379024.36449  22666849.0234
  21746130.828     6319641.459 7   4913694.26349  21746130.5234
  23259772.844    -5149681.283 6  -3932219.75849  23259772.7974
 95  2  9 16 43 30.0000000  0  6  1 14 15 22 25 29
  24903475.633     9454434.241 5   7295987.67249  24903479.6524
  21565899.820    -7445853.108 7  -5711918.96549  21565900.5354
  22032720.758     5918575.686 6   4612143.99249  22032722.9844
  22656339.430    -8378689.138 6  -6422052.81049  22656341.4924
  21762736.664     6406899.206 8   4981687.30349  21762736.4884
  23253414.195    -5183095.949 6  -3958257.13849  23253414.6054
 95  2  9 16 44  0.0010000  0  6  1 14 15 22 25 29
  24920932.239     9546169.266 5   7367469.46349  24920935.5094
  21557298.591    -7491052.449 7  -5747139.21949  21557299.2474
  22049931.044     6009014.351 6   4682615.65249  22049932.8374
  22645910.528    -8433491.561 6  -6464755.96849  22645912.8254
  21779423.903     6494597.252 7   5050023.43549  21779423.9624
  23247092.521    -5216313.614 6  -3984141.00249  23247093.5994
 95  2  9 16 44 30.0010000  0  6  1 14 15 22 25 29
  24938413.325     9638031.056 5   7439050.04348  24938415.3884
  21548771.427    -7535865.717 7  -5782058.62149  21548772.5404
  22067242.286     6099988.386 6   4753504.47949  22067244.4664
  22635562.200    -8487872.736 6  -6507130.86449  22635563.7824
  21796197.372     6582742.581 7   5118708.09849  21796197.8414
  23240807.372    -5249341.309 6  -4009876.84649  23240808.5094
 95  2  9 16 45  0.0010000  0  6  1 14 15 22 25 29
  24955920.317     9730033.127 4   7510739.93748  24955924.3374
  21540321.567    -7580270.796 7  -5816659.97649  21540322.2244
  22084656.583     6191499.696 6   4824811.96549  22084658.5284
  22625290.200    -8541848.095 6  -6549189.56749  22625292.3214
  21813060.278     6671356.727 7   5187758.07049  21813060.5364
  23234557.864    -5282185.237 6  -4035469.49849  23234558.4624
 95  2  9 16 45 30.0010000  0  6  1 14 15 22 25 29
  24973455.755     9822181.722 4   7582544.09445  24973460.4894
  21531953.888    -7624242.548 7  -5850923.66649  21531954.8374
  22102173.474     6283548.656 6   4896538.38549  22102175.2314
  22615097.341    -8595417.022 6  -6590931.54549  22615099.6614
  21830011.021     6760438.411 7   5257172.36749  21830011.0794
  23228344.138    -5314839.658 6  -4060914.47149  23228343.8214
 95  2  9 16 46  0.0010000  0  6  1 14 15 22 25 29
  24991016.403     9914463.474 4   7654451.82048  24991018.2784
  21523670.255    -7667772.101 7  -5884842.79949  21523670.5954
  22119790.528     6376129.095 6   4968678.96249  22119792.1694
  22604982.271    -8648571.145 6  -6632350.30449  22604984.6494
  21847050.575     6849975.276 7   5326941.33449  21847051.0564
  23222165.294    -5347307.345 6  -4086213.93049  23222165.7984
 95  2  9 16 46 30.0010000  0  6  1 14 15 22 25 29
  25008600.208    10006864.236 5   7726452.35949  25008603.6884
  21515470.989    -7710860.061 7  -5918417.81049  21515471.4704
  22137508.021     6469235.474 6   5041229.35949  22137509.8844
  22594945.130    -8701316.219 6  -6673450.32849  22594947.1464
  21864168.802     6939934.172 7   5397039.18149  21864168.7434
  23216021.122    -5379595.825 6  -4111373.76749  23216021.4854
 95  2  9 16 47  0.0010000  0  6  1 14 15 22 25 29
  25026204.911    10099379.396 5   7798542.03649  25026206.4704
  21507356.395    -7753501.297 7  -5951644.74849  21507356.7704
  22155325.685     6562868.233 6   5114189.92449  22155327.3134
  22584986.989    -8753645.187 6  -6714226.11049  22584988.9234
  21881366.247     7030305.891 7   5467458.68749  21881366.3174
  23209912.427    -5411695.705 6  -4136386.64349  23209913.6344
 95  2  9 16 47 30.0010000  0  6  1 14 15 22 25 29
  25043829.513    10191995.697 5   7870710.57949  25043831.3644
  21499322.005    -7795721.780 7  -5984543.81249  21499322.5094
  22173241.794     6657016.114 6   5187551.88549  22173243.8454
  22575107.716    -8805559.125 6  -6754678.50549  22575109.4744
  21898639.075     7121074.389 7   5538187.38249  21898639.1694
  23203840.396    -5443605.565 6  -4161251.44949  23203841.7314
 95  2  9 16 48  0.0010000  0  6  1 14 15 22 25 29
  25061470.403       34001.16515
  21491362.497    -7837551.179 7  -6017138.14349  21491362.6384
  22191253.614     6751669.548 6   5261307.78049  22191255.6184
  22565309.013    -8857054.009 6  -6794804.35549  22565311.4854
  21915989.239     7212248.725 8   5609232.31749  21915988.9584
  23197803.786    -5475328.874 6  -4185970.87849  23197804.5954
 95  2  9 16 48 30.0010000  0  6  1 14 15 22 25 29
  25079130.513      126803.198 5
  21483476.661    -7878990.264 7  -6049428.33149  21483477.0364
  22209361.599     6846829.840 6   5335458.63549  22209363.7904
  22555593.739    -8908106.718 6  -6834585.66449  22555595.8964
  21933419.466     7303843.925 7   5680605.19949  21933419.2554
  23191802.942    -5506865.374 6  -4210544.73149  23191803.1064
 95  2  9 16 49  0.0010000  0  5 14 15 22 25 29
  21475668.106    -7920025.365 7  -6081403.72149  21475668.0954
  22227567.106     6942497.587 6   5410004.91149  22227569.1464
  22545965.505    -8958703.745 6  -6874011.88949  22545967.7554
  21950931.239     7395871.018 7   5752314.61449  21950931.3684
  23185835.005    -5538225.531 6  -4234981.18949  23185835.1694
 95  2  9 16 49 30.0010000  0  5 14 15 22 25 29
  21467933.505    -7960669.264 7  -6113074.27949  21467934.4194
  22245865.325     7038656.835 6   5484934.15649  22245867.3764
  22536421.458    -9008859.283 6  -6913094.09949  22536423.5094
  21968524.286     7488325.592 7   5824357.13949  21968524.6144
  23179898.958    -5569417.174 6  -4259286.34049  23179899.6264
 95  2  9 16 50  0.0010000  0  5 14 15 22 25 29
  21460275.013    -8000915.492 7  -6144434.96849  21460276.1264
  22264256.794     7135303.507 6   5560243.22049  22264258.6104
  22526963.122    -9058560.827 6  -6951822.54349  22526965.2314
  21986196.411     7581194.361 7   5896722.40749  21986196.5524
  23173995.380    -5600441.201 6  -4283460.85449  23173996.5284
 95  2  9 16 50 30.0010000  0  5 14 15 22 25 29
  21452693.450    -8040756.964 7  -6175480.26549  21452694.9504
  22282740.138     7232432.434 6   5635928.07049  22282742.2004
  22517589.372    -9107823.212 6  -6990208.79449  22517590.7554
  22003941.614     7674445.434 7   5969385.56649  22003942.2824
  23168123.208    -5631299.437 6  -4307506.21249  23168124.4744
 95  2  9 16 51  0.0010000  0  5 14 15 22 25 29
  21445188.927    -8080193.986 7  -6206210.39649  21445189.8414
  22301314.442     7330041.906 6   5711987.36949  22301316.3884
  22508295.575    -9156661.867 6  -7028264.85549  22508297.2394
  22021755.435     7768054.727 7   6042327.85949  22021755.2124
  23162284.716    -5661983.235 6  -4331415.63649  23162285.7944
 95  2  9 16 51 30.0010000  0  5 14 15 22 25 29
  21437757.396    -8119246.801 7  -6236641.14749  21437758.2044
  22319978.630     7428123.695 6   5788414.70049  22319980.4464
  22499082.747    -9205074.939 6  -7065989.28549  22499084.7984
  22039634.169     7862008.281 7   6115538.40449  22039633.8884
  23156478.763    -5692492.212 6  -4355188.83149  23156479.7244
 95  2  9 16 52  0.0010000  0  5 14 15 22 25 29
  21430399.919    -8157911.391 7  -6266769.38149  21430400.4584
  22338732.310     7526674.237 6   5865207.29149  22338734.1964
  22489952.567    -9253051.927 6  -7103373.92149  22489954.2904
  22057572.200     7956278.085 7   6188995.39449  22057572.2594
  23150703.036    -5722843.255 6  -4378838.97449  23150703.5524
 95  2  9 16 52 30.0010000  0  5 14 15 22 25 29
  21423118.981    -8196172.716 7  -6296583.39649  21423119.7554
  22357575.349     7625694.929 6   5942366.23349  22357577.1304
  22480905.708    -9300594.645 6  -7140420.16349  22480907.4074
  22075573.716     8050874.121 7   6262706.58949  22075573.4234
  23144956.013    -5753041.616 6  -4402370.14549  23144957.4074
 95  2  9 16 53  0.0010000  0  5 14 15 22 25 29
  21415917.153    -8234017.384 7  -6326072.74849  21415917.7164
  22376506.685     7725178.633 6   6019885.97249  22376508.5014
  22471944.185    -9347690.073 6  -7177117.86249  22471946.0834
  22093640.036     8145812.760 7   6336684.74249  22093640.1424
  23139237.255    -5783096.258 6  -4425789.32449  23139238.4154
 95  2  9 16 53 30.0010000  0  5 14 15 22 25 29
  21408797.817    -8271428.034 7  -6355223.89649  21408799.1064
  22395523.005     7825113.506 6   6097757.26749  22395525.1964
  22463066.630    -9394346.048 6  -7213473.13049  22463068.4814
  22111772.208     8241097.122 7   6410932.28549  22111772.3254
  23133542.989    -5813019.893 6  -4449106.39949  23133543.7744
 95  2  9 16 54  0.0010000  0  5 14 15 22 25 29
  21401768.130    -8308371.454 7  -6384010.96549  21401769.0794
  22414628.169     7925511.722 6   6175989.61649  22414630.4194
  22454272.606    -9440551.115 6  -7249477.06249  22454274.3534
  22129975.224     8336750.427 7   6485467.30549  22129974.8134
  23127878.075    -5842791.045 6  -4472304.65249  23127879.2004
 95  2  9 16 54 30.0010000  0  5 14 15 22 25 29
  21394825.958    -8344852.131 7  -6412437.44849  21394826.7784
  22433820.067     8026364.917 6   6254576.48849  22433822.0834
  22445564.122    -9486316.689 6  -7285138.52249  22445565.9744
  22148251.708     8432797.385 7   6560309.07049  22148251.5564
  23122242.489    -5872405.336 6  -4495380.69149  23122243.1924
 95  2  9 16 55  0.0010000  0  5 14 15 22 25 29
  21387971.255    -8380877.027 7  -6440508.76649  21387971.4314
  22453097.724     8127670.238 6   6333515.66649  22453100.0324
  22436940.060    -9531637.169 6  -7320453.14949  22436941.4314
  22166603.841     8529238.809 7   6635458.21649  22166603.9234
  23116636.903    -5901860.587 6  -4518332.82049  23116637.4664
 95  2  9 16 55 30.0010000  0  5 14 15 22 25 29
  21381199.474    -8416461.370 7  -6468236.82549  21381199.7904
  22472461.903     8229426.201 6   6412805.99049  22472463.9664
  22428400.185    -9576515.452 6  -7355423.20349  22428401.5674
  22185030.708     8626075.879 7   6710915.67249  22185030.3564
  23111064.536    -5931145.513 6  -4541152.23549  23111064.8764
 95  2  9 16 56  0.0010000  0  5 14 15 22 25 29
  21374506.856    -8451631.718 7  -6495642.27649  21374507.0214
  22491909.989     8331627.857 6   6492443.60649  22491912.2284
  22419946.083    -9620941.776 6  -7390041.09349  22419947.8534
  22203533.146     8723303.908 7   6786677.75049  22203533.0994
  23105525.060    -5960257.064 6  -4563836.55449  23105525.1304
 95  2  9 16 56 30.0010000  0  5 14 15 22 25 29
  21367891.403    -8486395.723 7  -6522731.10849  21367891.8254
  22511442.731     8434271.023 6   6572425.24349  22511444.9814
  22411578.802    -9664909.147 6  -7424301.36749  22411580.5364
  22222106.403     8820908.742 7   6862733.46149  22222106.3454
  23100016.935    -5989198.403 6  -4586388.21649  23100016.7944
 95  2  9 16 57  0.0010000  0  5 14 15 22 25 29
  21361355.177    -8520744.819 7  -6549496.62649  21361355.8804
  22531057.481     8537347.520 6   6652744.56449  22531059.5324
  22403301.075    -9708407.468 6  -7458196.14449  22403302.8334
  22240747.396     8918867.004 7   6939064.55149  22240747.4074
  23094542.630    -6017966.462 6  -4608804.84649  23094543.6144
 95  2  9 16 57 30.0010000  0  5 14 15 22 25 29
  21354900.310    -8554665.307 7  -6575928.16449  21354901.0834
  22550755.435     8640861.586 6   6733404.83149  22550757.2744
  22395115.856    -9751424.073 6  -7491715.56449  22395118.2944
  22259453.419     9017170.542 7   7015664.68449  22259453.8994
  23089103.278    -6046549.710 6  -4631077.46549  23089104.6144
 95  2  9 16 58  0.0010000  0  5 14 15 22 25 29
  21348529.622    -8588142.801 7  -6602014.52049  21348530.3844
  22570535.427     8744805.694 6   6814400.19849  22570537.4784
  22387023.310    -9793948.227 6  -7524851.26049  22387025.1734
  22278220.536     9115793.008 7   7092513.34149  22278220.6654
  23083695.442    -6074968.334 6  -4653221.81849  23083696.8024
 95  2  9 16 58 30.0010000  0  5 14 15 22 25 29
  21342246.005    -8621163.064 7  -6627744.58049  21342246.6614
  22590396.325     8849175.649 6   6895727.38549  22590398.6224
  22379026.896    -9835975.420 7  -7557599.70349  22379028.0794
  22297047.005     9214726.045 7   7169603.99749  22297047.2394
  23078316.669    -6103234.678 6  -4675247.50649  23078317.2904
 95  2  9 16 59  0.0010000  0  5 14 15 22 25 29
  21336050.153    -8653724.115 7  -6653116.81949  21336050.2244
  22610336.997     8953965.282 6   6977381.60149  22610339.0244
  22371121.021    -9877519.293 6  -7589971.54349  22371122.1694
  22315931.950     9313964.845 7   7246932.91249  22315931.9744
  23072965.286    -6131357.444 6  -4697161.32749  23072965.2634
 95  2  9 16 59 30.0010000  0  5 14 15 22 25 29
  21329937.997    -8685841.045 7  -6678142.99449  21329938.2314
  22630357.341     9059170.827 6   7059359.90449  22630359.5564
  22363304.872    -9918589.791 6  -7621974.50449  22363306.7004
  22334873.817     9413504.905 7   7324496.57849  22334873.9814
  23067639.169    -6159345.884 6  -4718970.46149  23067639.0404
 95  2  9 17  0  0.0010000  0  5 14 15 22 25 29
  21323910.317    -8717516.698 7  -6702825.32049  21323910.4704
  22650455.005     9164786.764 6   7141658.00049  22650457.9114
  22355578.622    -9959190.883 6  -7653611.70349  22355580.1104
  22353875.677     9513360.102 7   7402305.80449  22353875.9464
  23062337.552    -6187204.845 6  -4740678.72649  23062338.0914
 95  2  9 17  0 30.0010000  0  5 14 15 22 25 29
  21317965.505    -8748757.815 7  -6727169.03749  21317965.7864
  22670630.981     9270813.190 6   7224275.94349  22670633.7124
  22347941.013    -9999330.481 6  -7684889.29449  22347942.6654
  22372942.677     9613557.308 7   7480381.54249  22372942.8534
  23057064.231    -6214916.193 6  -4762271.95449  23057064.9814
 95  2  9 17  1  0.0010000  0  5 14 15 22 25 29
  21312101.942    -8779569.234 7  -6751177.92949  21312102.5054
  22690883.302     9377237.721 6   7307204.10249  22690885.9274
  22340388.052   -10039021.417 6  -7715817.28649  22340389.3884
  22392074.435     9714094.091 7   7558721.87549  22392074.4114
  23051819.403    -6242476.918 6  -4783747.80349  23051820.3414
 95  2  9 17  1 30.0010000  0  5 14 15 22 25 29
  21306322.317    -8809944.905 7  -6774847.27449  21306322.5754
  22711209.981     9484053.649 6   7390437.24149  22711212.3254
  22332924.481   -10078239.027 6  -7746376.46249  22332926.2164
  22411271.919     9814976.898 7   7637331.83349  22411271.9074
  23046602.552    -6269892.116 6  -4805110.25949  23046603.1854
 95  2  9 17  2  0.0010000  0  5 14 15 22 25 29
  21300627.466    -8839871.834 7  -6798166.95049  21300628.0404
  22731610.216     9591257.403 6   7473972.58849  22731612.7004
  22325553.114   -10116975.796 6  -7776560.93949  22325554.7554
  22430535.052     9916204.944 7   7716210.81649  22430535.3804
  23041413.614    -6297161.902 6  -4826359.41249  23041413.8494
 95  2  9 17  2 30.0010000  0  5 14 15 22 25 29
  21295018.122    -8869346.630 7  -6821134.32249  21295018.7084
  22752082.536     9698841.049 6   7557803.94749  22752085.0674
  22318273.755   -10155232.582 7  -7806371.40249  22318275.1734
  22449858.435    10017747.684 7   7795335.00349  22449858.4934
  23036252.661    -6324283.637 6  -4847493.20949  23036252.4274
 95  2  9 17  3  0.0010000  0  5 14 15 22 25 29
  21289497.513    -8898357.081 7  -6843739.87149  21289498.2394
  22772626.935     9806801.511 6   7641928.92949  22772629.1144
  22311085.099   -10193007.321 7  -7835806.24749  22311086.4584
  22469236.716    10119585.531 7   7874689.14749  22469236.9974
  23031117.958    -6351262.493 6  -4868515.67549  23031117.9464
 95  2  9 17  3 30.0010000  0  5 14 15 22 25 29
  21284065.083    -8926906.950 7  -6865986.51349  21284065.6814
  22793242.825     9915137.489 6   7726346.52749  22793244.7354
  22303988.356   -10230300.744 7  -7864866.05149  22303990.0214
  22488671.419    10221716.277 7   7954271.53349  22488671.5364
  23026011.606    -6378098.425 6  -4889426.76149  23026011.7944
 95  2  9 17  4  0.0010000  0  5 14 15 22 25 29
  21278718.411    -8955002.583 7  -6887879.21549  21278719.3254
  22813928.942    10023843.423 6   7811052.40349  22813931.1924
  22296978.442   -10267138.583 7  -7893570.84149  22296979.6734
  22508158.653    10324120.336 7   8034066.87349  22508158.7474
  23020933.856    -6404783.757 6  -4910220.50049  23020933.9744
 95  2  9 17  4 30.0010000  0  5 14 15 22 25 29
  21273456.356    -8982652.884 7  -6909424.90649  21273457.1304
  22834683.560    10132912.407 6   7896041.16049  22834686.3134
  22290054.895   -10303523.349 7  -7921922.58349  22290056.3494
  22527696.849    10426794.871 7   8114072.98249  22527697.0714
  23015882.130    -6431330.688 6  -4930906.39449  23015882.7394
 95  2  9 17  5  0.0010000  0  5 14 15 22 25 29
  21268281.060    -9009851.557 7  -6930618.66849  21268281.4704
  22855509.950    10242352.751 6   7981319.30149  22855512.3764
  22283221.411   -10339432.075 7  -7949903.38949  22283223.0874
  22547292.091    10529769.358 7   8194312.82949  22547292.2554
  23010856.036    -6457740.202 6  -4951485.19649  23010856.9034
 95  2  9 17  5 30.0010000  0  5 14 15 22 25 29
  21263189.739    -9036606.141 7  -6951466.40349  21263190.1494
  22876404.411    10352155.389 6   8066879.74549  22876406.6964
  22276481.224   -10374850.946 6  -7977502.50849  22276483.0754
  22566942.927    10633035.917 7   8274780.26249  22566943.0674
  23005854.911    -6484020.400 6  -4971963.23549  23005855.6854
 95  2  9 17  6  0.0010000  0  5 14 15 22 25 29
  21258182.966    -9062918.753 7  -6971969.72949  21258183.1534
  22897367.450    10462314.873 6   8152718.25749  22897369.4074
  22269837.786   -10409764.034 7  -8004707.48549  22269839.3214
  22586647.771    10736582.152 7   8355465.61849  22586647.4894
  23000875.653    -6510187.604 6  -4992353.32849  23000875.7824
 95  2  9 17  6 30.0010000  0  5 14 15 22 25 29
  21253258.825    -9088794.203 7  -6992132.42049  21253259.2354
  22918397.067    10572827.289 6   8238831.77249  22918399.2474
  22263292.489   -10444158.444 6  -8031508.30049  22263294.4814
  22606407.138    10840416.547 7   8436375.52249  22606407.1034
  22995916.466    -6536250.243 6  -5012661.78749  22995916.6774
 95  2  9 17  7  0.0010000  0  5 14 15 22 25 29
  21248419.028    -9114227.192 7  -7011950.32549  21248419.7204
  22939492.685    10683684.891 6   8325214.26949  22939494.4314
  22256846.419   -10478031.833 6  -8057903.13849  22256848.2004
  22626219.146    10944529.749 7   8517502.67949  22626219.0524
  22990977.903    -6562200.841 6  -5032883.01249  22990977.6224
 95  2  9 17  7 30.0010000  0  5 14 15 22 25 29
  21243667.997    -9139192.714 7  -7031403.96849  21243668.7474
  22960656.208    10794901.039 6   8411876.15349  22960658.8334
  22250501.841   -10511373.110 7  -8083883.33149  22250503.5754
  22646083.833    11048923.741 7   8598848.64549  22646083.8214
  22986064.692    -6588020.143 6  -5053001.94649  22986065.1034
 95  2  9 17  8  0.0010000  0  5 14 15 22 25 29
  21239005.521    -9163694.720 7  -7050496.43749  21239006.3064
  22981885.864    10906462.445 6   8498807.05549  22981887.8334
  22244255.927   -10544196.686 7  -8109460.11849  22244257.8724
  22666001.950    11153591.816 7   8680408.16249  22666001.7284
  22981175.263    -6613710.705 6  -5073020.52949  22981176.0364
 95  2  9 17  8 30.0010000  0  5 14 15 22 25 29
  21234439.106    -9187691.436 7  -7069195.17849  21234439.4234
  23003184.989    11018391.481 6   8586024.43349  23003187.5564
  22238112.958   -10576477.007 6  -8134613.59049  22238115.2674
  22685978.833    11258567.882 7   8762207.66349  22685978.7864
  22976319.544    -6639229.984 6  -5092905.66549  22976320.1304
 95  2  9 17  9  0.0010000  0  5 14 15 22 25 29
  21229969.380    -9211181.129 7  -7087498.83649  21229969.8254
  23024552.310    11130674.388 6   8673517.55549  23024555.0874
  22232073.013   -10608219.088 7  -8159347.65049  22232074.6774
  22706010.911    11363841.537 7   8844239.06849  22706010.7594
  22971497.200    -6664573.289 6  -5112653.67549  22971497.9274
 95  2  9 17  9 30.0010000  0  5 14 15 22 25 29
  21225596.192    -9234160.658 7  -7105404.96449  21225596.6384
  23045986.419    11243312.162 6   8761287.18649  23045989.0914
  22226135.661   -10639420.324 7  -8183660.25849  22226137.4664
  22726101.552    11469416.918 7   8926505.57449  22726101.4114
  22966711.106    -6689724.260 6  -5132251.80349  22966710.9664
 95  2  9 17 10  0.0010000  0  5 14 15 22 25 29
  21221318.935    -9256639.953 7  -7122921.28949  21221319.6264
  23067486.278    11356295.194 6   8849325.85849  23067488.6454
  22220301.216   -10670078.180 7  -8207549.46449  22220302.9504
  22746248.411    11575289.559 7   9009003.69949  22746248.7514
  22961961.130    -6714685.355 6  -5151701.97749  22961961.1064
 95  2  9 17 10 30.0010000  0  5 14 15 22 25 29
  21217136.685    -9278617.383 7  -7140046.54749  21217137.5284
  23089052.099    11469623.259 6   8937633.39949  23089054.8064
  22214569.950   -10700197.132 7  -8231018.72649  22214571.5214
  22766452.005    11681460.158 7   9091734.00249  22766452.1464
  22957246.567    -6739458.218 6  -5171005.49249  22957246.5214
 95  2  9 17 11  0.0010000  0  5 14 15 22 25 29
  21213049.981    -9300092.708 7  -7156780.56949  21213050.6854
  23110683.419    11583297.478 6   9026210.65049  23110685.5994
  22208941.646   -10729774.231 7  -8254065.77649  22208943.5794
  22786711.146    11787922.410 7   9174691.57149  22786710.9934
  22952567.450    -6764049.978 6  -5190167.89449  22952567.2634
 95  2  9 17 11 30.0010000  0  5 14 15 22 25 29
  21209058.810    -9321065.969 7  -7173123.35449  21209059.6424
  23132379.927    11697312.552 6   9115053.50549  23132382.5284
  22203415.841   -10758810.892 7  -8276691.69149  22203417.6694
  22807023.919    11894666.413 7   9257868.68949  22807024.2944
  22947916.114    -6788493.791 6  -5209215.00549  22947916.4314
 95  2  9 17 12  0.0010000  0  5 14 15 22 25 29
  21205161.606    -9341546.839 7  -7189082.46349  21205162.1574
  23154138.817    11811656.664 6   9204152.75649  23154140.8104
  22197993.364   -10787307.141 7  -8298896.51049  22197995.0054
  22827388.060    12001680.105 7   9341255.97149  22827388.4234
  22943286.942    -6812820.377 6  -5228170.77749  22943287.1064
 95  2  9 17 12 30.0010000  0  5 14 15 22 25 29
  21201358.685    -9361530.967 7  -7204654.50449  21201359.4464
  23175960.638    11926328.855 6   9293507.64549  23175962.9234
  22192671.005   -10815274.528 7  -8320689.23349  22192673.0444
  22847803.153    12108961.671 7   9424851.98349  22847803.3414
  22938678.239    -6837036.958 6  -5247040.81949  22938678.4974
 95  2  9 17 13  0.0010000  0  5 14 15 22 25 29
  21197650.513    -9381018.074 7  -7219839.26349  21197650.7714
  23197844.177    12041329.189 6   9383118.23149  23197846.1224
  22187451.419   -10842705.430 7  -8342063.90449  22187453.2474
  22868269.021    12216508.381 7   9508654.60949  22868268.8684
  22934089.513    -6861149.011 6  -5265829.41749  22934090.1694
 95  2  9 17 13 30.0010000  0  5 14 15 22 25 29
  21194036.231    -9400009.653 7  -7234637.90149  21194036.5714
  23219790.013    12156654.736 6   9472982.23649  23219792.5444
  22182334.747   -10869595.038 7  -8363016.78149  22182336.2944
  22888785.044    12324323.037 7   9592666.01449  22888785.0674
  22929523.052    -6885147.289 6  -5284529.34849  22929523.1694
 95  2  9 17 14  0.0010000  0  5 14 15 22 25 29
  21190516.716    -9418505.686 7  -7249050.39349  21190517.1614
  23241798.216    12272307.724 6   9563101.37649  23241801.1574
  22177320.474   -10895944.064 7  -8383548.43249  22177321.8804
  22909351.317    12432399.029 7   9676881.07149  22909351.2944
  22924983.849    -6909004.473 6  -5303119.36149  22924984.1064
 95  2  9 17 14 30.0020000  0  5 14 15 22 25 29
  21187093.549    -9436495.560 7  -7263068.47549  21187094.0184
  23263869.010    12388289.571 6   9653476.78749  23263871.5534
  22172406.557   -10921762.258 7  -8403666.45849  22172408.3264
  22929968.799    12540745.706 7   9761307.03649  22929969.1394
  22920471.408    -6932713.783 6  -5321594.13549  22920471.3504
 95  2  9 17 15  0.0020000  0  5 14 15 22 25 29
  21183766.822    -9453977.598 7  -7276690.84149  21183767.6894
  23285998.666    12504584.315 6   9744095.99649  23286001.6314
  22167599.322   -10947028.201 7  -8423354.15649  22167601.1744
  22950636.057    12649351.163 7   9845934.64649  22950636.6074
  22915990.275    -6956261.098 6  -5339942.65449  22915991.1194
 95  2  9 17 15 30.0020000  0  5 14 15 22 25 29
  21180538.299    -9470942.049 7  -7289909.89049  21180539.1194
  23308188.252    12621192.645 6   9834959.58149  23308190.9944
  22162898.353   -10971731.294 7  -8442603.27749  22162900.3574
  22971352.846    12758220.368 7   9930767.78249  22971353.3504
  22911543.744    -6979629.428 6  -5358151.72049  22911543.8264
 95  2  9 17 16  0.0020000  0  5 14 15 22 25 29
  21177411.205    -9487375.663 7  -7302715.30249  21177412.2834
  23330438.463    12738114.493 6   9926067.44349  23330441.6394
  22158305.955   -10995864.450 7  -8461408.28649  22158307.6894
  22992122.713    12867366.042 7  10015816.32949  22992122.9824
  22907131.268    -7002817.633 6  -5376220.44049  22907130.7644
 95  2  9 17 16 30.0020000  0  5 14 15 22 25 29
  21174386.432    -9503269.966 7  -7315100.47749  21174387.1464
  23352745.588    12855341.568 6  10017413.14449  23352748.8224
  22153824.674   -11019412.454 7  -8479757.32249  22153826.3384
  23012945.330    12976790.805 7  10101082.34649  23012945.6584
  22902752.150    -7025831.246 6  -5394153.11549  22902751.8694
 95  2  9 17 17  0.0020000  0  5 14 15 22 25 29
  21171467.385    -9518611.015 7  -7327054.54249  21171468.0294
  23375114.197    12972886.917 6  10109006.85749  23375117.2914
  22149460.572   -11042346.949 7  -8497628.33149  22149462.3074
  23033823.424    13086504.766 7  10186573.72349  23033823.8464
  22898409.221    -7048651.621 6  -5411935.17749  22898408.8344
 95  2  9 17 17 30.0020000  0  5 14 15 22 25 29
  21168651.955    -9533406.606 7  -7338583.58149  21168652.3424
  23397540.572    13090741.016 6  10200841.16449  23397542.9044
  22145210.525   -11064682.646 7  -8515032.70249  22145211.9434
  23054755.932    13196505.097 7  10272288.24749  23054756.1314
  22894099.314    -7071299.097 6  -5429582.59749  22894099.4904
 95  2  9 17 18  0.0020000  0  5 14 15 22 25 29
  21165937.119    -9547672.334 7  -7349699.73549  21165937.7054
  23420023.416    13208887.871 6  10292903.57449  23420026.7794
  22141068.807   -11086445.123 7  -8531990.43749  22141070.2484
  23075737.549    13306764.125 7  10358204.35549  23075737.5254
  22889816.416    -7093802.351 6  -5447117.56449  22889817.7404
 95  2  9 17 18 30.0020000  0  5 14 15 22 25 29
  21163322.986    -9561411.772 7  -7360405.78749  21163323.5144
  23442562.807    13327332.042 6  10385197.67849  23442565.3384
  22137038.104   -11107626.372 7  -8548495.25249  22137039.4984
  23096765.869    13417268.542 7  10444311.68249  23096766.0454
  22885563.174    -7116157.637 6  -5464537.23749  22885564.1934
 95  2  9 17 19  0.0020000  0  5 14 15 22 25 29
  21160806.268    -9574636.641 7  -7370710.87649  21160806.8654
  23465157.611    13446068.400 6  10477719.44749  23465160.4244
  22133115.549   -11128237.904 7  -8564556.16349  22133117.0844
  23117840.189    13528015.026 7  10530607.61949  23117840.2954
  22881338.596    -7138361.764 7  -5481839.15149  22881338.3034
 95  2  9 17 19 30.0020000  0  5 14 15 22 25 29
  21158387.385    -9587345.675 7  -7380614.01649  21158388.1464
  23487808.338    13565095.869 6  10570468.04649  23487810.2364
  22129302.088   -11148280.425 7  -8580173.66949  22129303.3184
  23138959.494    13638997.639 7  10617087.57449  23138959.7404
  22877142.049    -7160412.116 6  -5499021.24249  22877141.4864
 95  2  9 17 20  0.0020000  0  5 14 15 22 25 29
  21156069.541    -9599526.266 7  -7390105.39249  21156070.1154
  23510513.697    13684413.787 6  10663442.97749  23510515.5144
  22125597.924   -11167746.409 7  -8595341.92049  22125599.0494
  23160122.846    13750212.054 7  10703748.13349  23160122.5644
  22872977.580    -7182295.287 6  -5516073.04949  22872978.0144
 95  2  9 17 20 30.0020000  0  5 14 15 22 25 29
  21153850.619    -9611188.421 7  -7399192.78149  21153851.2874
  23533272.010    13804009.155 6  10756634.10949  23533273.7794
  22122005.213   -11186625.408 7  -8610052.78549  22122006.4674
  23181331.533    13861663.242 7  10790593.17449  23181331.6154
  22868845.471    -7204009.058 6  -5532992.83449  22868845.8464
 95  2  9 17 21  0.0020000  0  5 14 15 22 25 29
  21151733.244    -9622315.228 7  -7407863.01649  21151733.9474
  23556083.814    13923882.701 6  10850041.97849  23556085.7364
  22118525.658   -11204911.027 7  -8624301.29349  22118527.1354
  23202587.564    13973363.902 7  10877632.63549  23202587.8224
  22864746.877    -7225552.188 7  -5549779.67349  22864746.7714
 95  2  9 17 21 30.0020000  0  5 14 15 22 25 29
  21149719.150    -9632899.785 7  -7416110.71949  21149719.6314
  23578944.861    14044022.816 6  10943657.58849  23578947.4394
  22115158.135   -11222604.806 7  -8638088.61749  22115159.2134
  23223888.408    14085300.034 7  10964855.56349  23223887.7404
  22860676.072    -7246943.461 7  -5566448.18649  22860675.4284
 95  2  9 17 22  0.0020000  0  5 14 15 22 25 29
  21147811.627    -9642922.487 7  -7423920.61749  21147812.2604
  23601857.603    14164432.428 5  11037483.18049  23601860.6864
  22111906.010   -11239692.843 7  -8651403.93549  22111907.4864
  23245234.643    14197476.505 7  11052265.74849  23245234.4434
  22856633.502    -7268183.087 6  -5582998.52949  22856633.3504
 95  2  9 17 22 30.0020000  0  5 14 15 22 25 29
  21146010.768    -9652387.453 7  -7431295.90849  21146011.1894
  23624821.549    14285105.876 6  11131514.36949  23624824.5374
  22108769.135   -11256180.195 7  -8664251.19449  22108770.4474
  23266626.393    14309887.468 7  11139858.66749  23266627.1894
  22852618.479    -7289282.669 6  -5599439.73149  22852619.0644
 95  2  9 17 23  0.0020000  0  5 14 15 22 25 29
  21144319.166    -9661276.355 7  -7438222.32749  21144319.6934
  23647834.721    14406042.763 5  11225750.85049  23647838.4244
  22105746.104   -11272068.070 7  -8676631.33849  22105747.5214
  23288060.697    14422528.297 7  11227630.73249  23288060.7914
  22848630.369    -7310242.590 7  -5615772.10949  22848630.7914
 95  2  9 17 23 30.0020000  0  5 14 15 22 25 29
  21142737.291    -9669588.496 7  -7444699.32149  21142738.0884
  23670897.268    14527237.947 5  11320188.56449  23670901.7794
  22102836.213   -11287360.294 7  -8688547.33149  22102837.3614
  23309537.510    14535394.205 6  11315578.15349  23309538.2714
  22844667.955    -7331063.528 6  -5631996.20249  22844667.9794
 95  2  9 17 24  0.0020000  0  5 14 15 22 25 29
  21141264.283    -9677329.046 7  -7450730.91349  21141264.8344
  23694009.393    14648690.160 5  11414826.58849  23694013.2014
  22100039.393   -11302051.945 7  -8699995.35149  22100040.8344
  23331058.822    14648487.855 7  11403703.06249  23331059.2564
  22840733.314    -7351740.544 6  -5648108.15549  22840733.0804
 95  2  9 17 24 30.0020000  0  5 14 15 22 25 29
  21139899.947    -9684500.680 7  -7456319.19649  21139900.5214
  23717169.096    14770398.839 5  11509664.45249  23717173.6544
  22097357.760   -11316143.126 7  -8710975.48249  22097359.2834
  23352624.924    14761815.009 7  11492009.89149  23352624.9944
  22836828.377    -7372257.761 6  -5664095.58249  22836829.1154
 95  2  9 17 25  0.0020000  0  5 14 15 22 25 29
  21138644.135    -9691100.093 7  -7461461.58949  21138644.8734
  23740378.994    14892361.844 5  11604700.49449  23740382.7324
  22094793.104   -11329622.770 7  -8721479.07449  22094794.2054
  23374235.018    14875375.169 7  11580498.29949  23374235.1934
  22832956.166    -7392608.023 6  -5679952.89549  22832957.2794
 95  2  9 17 25 30.0020000  0  5 14 15 22 25 29
  21137495.119    -9697134.918 7  -7466164.05149  21137495.7524
  23763635.939    15014578.515 5  11699934.17849  23763639.4904
  22092345.830   -11342484.250 7  -8731500.98949  22092346.8964
  23395887.947    14989165.790 7  11669166.29549  23395887.6784
  22829114.932    -7412797.823 7  -5695685.19849  22829114.5104
 95  2  9 17 26  0.0020000  0  5 14 15 22 25 29
  21136451.916    -9702619.898 7  -7470438.06349  21136452.6664
  23786940.025    15137042.123 5  11795360.29749  23786943.0024
  22090016.471   -11354725.614 7  -8741039.69649  22090017.5964
  23417585.361    15103187.155 6  11758014.06649  23417585.7714
  22825305.439    -7432813.216 7  -5711281.63349  22825305.0064
 95  2  9 17 26 30.0020000  0  6 18 14 15 22 25 29
  25146263.838      -26365.44113
  21135512.822    -9707554.533 7  -7474283.23149  21135513.2444
  23810291.018    15259750.765 5  11890977.36149  23810293.5964
  22087805.119   -11366346.155 7  -8750094.64349  22087806.3734
  23439327.775    15217440.719 7  11847042.81049  23439327.8464
  22821530.213    -7452651.284 6  -5726739.84649  22821530.9634
 95  2  9 17 27  0.0020000  0  6 18 14 15 22 25 29
  25137423.463      -72823.474 4         0.36257  25137427.5294
  21134676.299    -9711948.517 7  -7477707.11949  21134676.8964
  23833686.791    15382696.032 5  11986778.79249  23833690.1434
  22085711.635   -11377348.213 7  -8758667.65449  22085712.7364
  23461111.752    15331917.215 6  11936245.22149  23461111.4944
  22817785.221    -7472331.371 6  -5742074.93149  22817786.1934
 95  2  9 17 27 30.0020000  0  6 18 14 15 22 25 29
  25128603.674     -119172.011 4    -36115.35449  25128606.1354
  21133944.416    -9715795.238 7  -7480704.56649  21133945.1894
  23857129.182    15505885.737 5  12082770.67549  23857131.7364
  22083736.252   -11387728.565 7  -8766756.21949  22083737.2014
  23482941.408    15446634.028 6  12025634.93249  23482942.3344
  22814072.111    -7491844.484 7  -5757279.96449  22814071.8544
 95  2  9 17 28  0.0020000  0  6 18 14 15 22 25 29
  25119804.104     -165412.254 4    -72146.64749  25119807.6784
  21133317.338    -9719091.012 7  -7483272.70249  21133318.0064
  23880617.244    15629315.513 5  12178949.62849  23880619.4004
  22081879.885   -11397485.308 7  -8774358.85649  22081880.9514
  23504816.377    15561586.249 6  12115208.05549  23504816.6234
  22810394.088    -7511171.423 6  -5772339.92349  22810394.4754
 95  2  9 17 28 30.0020000  0  6 18 14 15 22 25 29
  25111025.080     -211543.186 4   -108092.82349  25111027.8224
  21132798.205    -9721817.765 7  -7485397.44749  21132799.1434
  23904150.377    15752982.600 5  12275313.51149  23904153.3184
  22080141.752   -11406617.555 7  -8781474.87649  22080142.8774
  23526732.791    15676757.436 6  12204951.80749  23526733.2484
  22806747.463    -7530333.126 6  -5787271.09649  22806748.3544
 95  2  9 17 29  0.0020000  0  6 18 14 15 22 25 29
  25102267.994     -257564.113 4   -143953.22949  25102271.7094
  21132389.947    -9723964.961 7  -7487070.58749  21132390.6744
  23927728.369    15876883.474 5  12371859.57349  23927731.4164
  22078522.916   -11415124.008 7  -8788103.25549  22078523.9824
  23548689.002    15792136.574 6  12294857.60549  23548689.5414
  22803132.018    -7549335.738 7  -5802078.33149  22803132.3224
 95  2  9 17 29 30.0020000  0  6 18 14 15 22 25 29
  25093531.869     -303470.655 5   -179724.52049  25093533.7324
  21132092.518    -9725527.546 7  -7488288.18749  21132093.3034
  23951347.830    16001006.266 5  12468578.54749  23951350.6434
  22077022.994   -11423006.780 7  -8794245.64849  22077024.1544
  23570682.252    15907711.674 6  12384916.10049  23570682.5214
  22799546.416    -7568180.093 7  -5816762.22549  22799546.6394
 95  2  9 17 30  0.0020000  0  6 18 14 15 22 25 29
  25084817.939     -349264.781 5   -215408.20149  25084818.9004
  21131909.127    -9726491.723 7  -7489039.50149  21131909.7484
  23975009.791    16125351.068 5  12565470.50749  23975012.1704
  22075642.557   -11430263.282 7  -8799900.04049  22075643.6464
  23592709.393    16023468.136 6  12475115.90349  23592709.8504
  22795990.291    -7586862.785 6  -5831320.14849  22795990.7954
 95  2  9 17 30 30.0020000  0  6 18 14 15 22 25 29
  25076124.439     -394949.922 5   -251006.98549  25076126.8304
  21131843.049    -9726837.961 7  -7489309.30349  21131843.8574
  23998714.830    16249924.113 5  12662540.31549  23998717.9594
  22074382.424   -11436884.571 7  -8805059.46149  22074383.4794
  23614774.283    16139416.950 6  12565465.59249  23614774.7404
  22792465.447    -7605388.051 7  -5845755.42849  22792464.8854
 95  2  9 17 31  0.0020000  0  6 18 14 15 22 25 29
  25067447.127     -440545.475 5   -286535.93349  25067449.1544
  21131894.502    -9726569.405 7  -7489100.04649  21131895.0294
  24022463.549    16374723.537 5  12759786.53849  24022467.4754
  22073245.189   -11442856.735 7  -8809713.06549  22073246.6074
  23636878.143    16255577.251 6  12655980.08049  23636879.0574
  22788974.518    -7623735.563 7  -5860052.21149  22788974.4244
 95  2  9 17 31 30.0020000  0  6 18 14 15 22 25 29
  25058782.900     -486077.704 5   -322015.53549  25058786.0644
  21132058.643    -9725705.976 7  -7488427.25149  21132059.3344
  24046252.674    16499735.508 5  12857198.35349  24046256.0724
  22072230.393   -11448190.037 7  -8813868.86049  22072231.6934
  23659022.846    16371946.501 6  12746657.40849  23659023.4324
  22785518.057    -7641896.860 6  -5874203.82749  22785518.9824
 95  2  9 17 32  0.0020000  0  6 18 14 15 22 25 29
  25050127.385     -531559.547 4   -357455.88049  25050130.9004
  21132338.221    -9724237.628 7  -7487283.08849  21132338.7364
  24070084.018    16624970.415 5  12954783.89549  24070087.5104
  22071340.455   -11452867.671 7  -8817513.74149  22071341.4044
  23681210.979    16488544.472 6  12837512.91949  23681211.2954
  22782102.479    -7659851.176 7  -5888194.17849  22782101.1074
 95  2  9 17 32 30.0020000  0  6 18 14 15 22 25 29
  25041486.283     -576971.951 5   -392842.13149  25041489.2134
  21132733.924    -9722157.223 7  -7485662.00549  21132734.5684
  24093961.393    16750446.990 5  13052557.74649  24093965.6114
  22070582.236   -11456850.098 7  -8820616.90449  22070583.3264
  23703449.900    16605411.723 6  12928578.29049  23703450.1934
  22778727.580    -7677580.808 7  -5902009.51949  22778727.3934
 95  2  9 17 33  0.0020000  0  6 18 14 15 22 25 29
  25032856.088     -622324.572 5   -428181.79749  25032858.4204
  21133239.408    -9719501.724 7  -7483592.78849  21133240.3114
  24117878.658    16876132.581 5  13150494.46649  24117882.3964
  22069951.893   -11460162.782 7  -8823198.19449  22069952.9364
  23725736.025    16722524.448 6  13019834.90649  23725736.6704
  22775388.775    -7695126.197 7  -5915681.17449  22775390.5214
 95  2  9 17 33 30.0020000  0  6 18 14 15 22 25 29
  25024243.354     -667588.665 5   -463452.48149  25024245.4394
  21133856.705    -9716257.694 7  -7481064.98049  21133857.3034
  24141835.650    17002027.847 5  13248594.59449  24141840.1744
  22069448.994   -11462807.317 7  -8825258.83849  22069450.1314
  23748064.674    16839864.880 6  13111269.00249  23748065.5064
  22772082.986    -7712503.912 7  -5929222.26749  22772082.0254
 95  2  9 17 34  0.0020000  0  6 18 14 15 22 25 29
  25015649.330     -712747.212 5   -498640.89049  25015651.1704
  21134586.627    -9712422.559 7  -7478076.56649  21134587.2834
  24165831.127    17128121.036 5  13346848.91649  24165835.2174
  22069072.760   -11464783.110 7  -8826798.40049  22069073.7684
  23770434.463    16957415.268 7  13202866.68049  23770433.9474
  22768801.135    -7729742.201 6  -5942654.70649  22768801.4984
 95  2  9 17 34 30.0020000  0  6 18 14 15 22 25 29
  25007082.877     -757764.088 5   -533718.91849  25007084.5884
  21135431.869    -9707979.009 7  -7474614.07049  21135432.5144
  24189864.166    17254417.731 5  13445261.82049  24189867.8934
  22068825.447   -11466082.738 7  -8827811.07349  22068826.7714
  23792843.369    17075175.733 7  13294628.03049  23792843.8964
  22765548.135    -7746844.472 7  -5955981.11249  22765548.5684
 95  2  9 17 35  0.0020000  0  6 18 14 15 22 25 29
  24998544.986     -802631.211 5   -568680.25349  24998546.9904
  21136398.307    -9702899.475 7  -7470655.99449  21136399.0924
  24213936.010    17380916.191 5  13543831.95449  24213939.8184
  22068704.822   -11466718.284 7  -8828306.27649  22068705.8424
  23815288.275    17193126.367 6  13386537.61049  23815288.5334
  22762320.932    -7763798.602 7  -5969192.11749  22762321.0964
 95  2  9 17 35 30.0020000  0  6 18 14 15 22 25 29
  24990032.932     -847358.327 4   -603532.51048  24990036.5414
  21137484.814    -9697190.657 7  -7466207.57549  21137485.6234
  24238045.135    17507608.765 5  13642553.33849  24238049.1544
  22068709.354   -11466695.971 7  -8828288.87449  22068710.2444
  23837767.291    17311251.900 6  13478583.45349  23837767.3264
  22759125.760    -7780589.964 7  -5982276.29449  22759125.4904
 95  2  9 17 36  0.0020000  0  6 18 14 15 22 25 29
  24981544.135     -891971.322 4   -638295.83749  24981547.6624
  21138686.799    -9690875.895 7  -7461286.98749  21138687.4674
  24262188.283    17634481.384 5  13741415.01249  24262191.9864
  22068834.299   -11466034.507 7  -8827773.42949  22068835.4364
  23860280.158    17429557.380 6  13570769.49949  23860280.0294
  22755961.986    -7797215.439 7  -5995231.21149  22755962.6434
 95  2  9 17 36 30.0020000  0  6 18 14 15 22 25 29
  24973072.971     -936481.471 4   -672979.03149  24973076.3694
  21140003.260    -9683956.930 7  -7455895.58749  21140003.9164
  24286366.213    17761534.103 5  13840417.02049  24286369.8224
  22069081.252   -11464738.711 7  -8826763.72049  22069082.4124
  23882826.705    17548041.618 6  13663094.84749  23882827.0214
  22752832.424    -7813660.053 7  -6008045.16149  22752833.0214
 95  2  9 17 37  0.0020000  0  6 18 14 15 22 25 29
  24964621.916     -980897.086 3   -707588.58049  24964626.3344
  21141432.158    -9676449.841 7  -7450045.91249  21141432.9324
  24310577.166    17888762.424 5  13939555.80749  24310581.1044
  22069447.971   -11462813.253 7  -8825263.34449  22069449.2014
  23905406.002    17666697.747 6  13755554.15849  23905406.3534
  22749738.643    -7829920.074 7  -6020715.33849  22749738.1974
 95  2  9 17 37 30.0020000  0  6 18 14 15 22 25 29
  24956186.478    -1025224.188 3   -742129.12049  24956190.3464
  21142970.807    -9668362.560 7  -7443744.14049  21142971.6044
  24334820.314    18016163.475 5  14038829.24549  24334824.6154
  22069935.260   -11460254.218 7  -8823269.29349  22069936.4434
  23928019.877    17785532.689 6  13848152.76749  23928020.0644
  22746679.307    -7845996.651 7  -6033242.50049  22746680.3854
 95  2  9 17 38  0.0020000  0  6 18 14 15 22 25 29
  24947767.541    -1069468.320 3   -776604.99549  24947770.4594
  21144620.838    -9659691.016 7  -7436987.09649  21144621.7524
  24359095.744    18143730.058 5  14138231.66749  24359098.6274
  22070543.025   -11457060.412 7  -8820780.60749  22070544.1624
  23950666.635    17904542.338 6  13940887.51749  23950667.0804
  22743654.158    -7861895.866 7  -6045631.48849  22743653.3964
 95  2  9 17 38 30.0020000  0  6 18 14 15 22 25 29
  24939363.033    -1113633.971 3   -811019.75048  24939364.0184
  21146385.955    -9650415.679 7  -7429759.57049  21146386.8224
  24383401.502    18271459.999 5  14237761.37849  24383405.3224
  22071272.322   -11453227.738 7  -8817794.10649  22071273.1894
  23973344.752    18023716.011 6  14033750.09949  23973345.2914
  22740661.346    -7877619.315 7  -6057883.55149  22740661.4754
 95  2  9 17 39  0.0020000  0  6 18 14 15 22 25 29
  24930969.947    -1157739.644 3   -845387.77449  24930971.4004
  21148266.963    -9640530.558 7  -7422056.87949  21148267.8184
  24407737.072    18399341.238 5  14337408.93949  24407741.0574
  22072123.596   -11448751.869 7  -8814306.40949  22072124.5804
  23996054.213    18143053.998 6  14126740.68149  23996054.8224
  22737699.971    -7893183.739 7  -6070011.65349  22737700.2054
 95  2  9 17 39 30.0020000  0  6 18 14 15 22 25 29
  24922588.541    -1201779.243 3   -879704.26748  24922588.7874
  21150270.604    -9630001.909 7  -7413852.74149  21150271.3654
  24432103.564    18527386.474 5  14437184.30549  24432106.9634
  22073102.822   -11443605.856 7  -8810296.51949  22073103.7954
  24018797.205    18262571.920 6  14219871.50349  24018797.7914
  22734771.025    -7908572.528 6  -6082002.90649  22734771.3304
 95  2  9 17 40  0.0020000  0  6 18 14 15 22 25 29
  24914221.486    -1245750.789 3   -913967.74847  24914224.6974
  21152395.338    -9618836.932 7  -7405152.76349  21152396.1934
  24456500.611    18655589.971 5  14537083.00849  24456503.8344
  22074210.627   -11437783.801 7  -8805759.84949  22074211.6114
  24041575.049    18382270.006 6  14313142.72149  24041575.9864
  22731876.111    -7923790.918 7  -6093861.38849  22731875.7364
 95  2  9 17 40 30.0030000  0  6 18 14 15 22 25 29
  24905866.788    -1289658.182 3   -948181.27447  24905868.2294
  21154640.882    -9607037.197 7  -7395958.17749  21154641.6904
  24480926.030    18783945.970 5  14637100.56449  24480930.1444
  22075446.233   -11431290.290 7  -8800699.94849  22075447.1594
  24064386.210    18502141.582 6  14406549.08649  24064386.3274
  22729007.679    -7938858.112 7  -6105602.05749  22729007.6324
 95  2  9 17 41  0.0030000  0  6 18 14 15 22 25 29
  24897525.296    -1333489.876 3   -982335.79246  24897525.7064
  21157002.694    -9594626.035 7  -7386287.14449  21157003.5154
  24505376.069    18912433.034 5  14737220.21249  24505380.1124
  22076812.062   -11424116.123 7  -8795109.66349  22076812.8234
  24087225.952    18622165.455 6  14500074.13949  24087226.5624
  22726167.968    -7953785.583 7  -6117233.84949  22726168.3314
 95  2  9 17 41 30.0030000  0  6 18 14 15 22 25 29
  24889203.351    -1377226.347 4  -1016416.11048  24889206.1874
  21159477.015    -9581622.370 7  -7376154.42649  21159477.9054
  24529851.327    19041052.237 5  14837442.82249  24529855.5114
  22078304.913   -11416268.915 7  -8788994.93849  22078305.9094
  24110093.913    18742335.767 6  14593713.31549  24110094.1594
  22723354.804    -7968569.244 7  -6128753.57249  22723354.5224
 95  2  9 17 42  0.0030000  0  6 18 14 15 22 25 29
  24880903.382    -1420840.454 4  -1050401.07048  24880904.5074
  21162065.921    -9568018.884 7  -7365554.31549  21162066.7184
  24554354.226    19169815.674 5  14937777.83149  24554357.7064
  22079927.936   -11407741.266 7  -8782349.99249  22079928.9334
  24132992.351    18862671.714 6  14687481.52949  24132993.0304
  22720571.585    -7983191.953 7  -6140147.90749  22720571.0584
 95  2  9 17 42 30.0030000  0  6 18 14 15 22 25 29
  24872627.202    -1464329.541 5  -1084288.61147  24872629.4054
  21164769.890    -9553808.999 7  -7354481.68949  21164770.8274
  24578884.749    19298722.155 5  15038224.32549  24578888.4524
  22081681.140   -11398526.808 7  -8775169.87749  22081682.3474
  24155922.647    18983167.196 6  14781374.10149  24155922.9054
  22717821.929    -7997644.499 7  -6151409.60449  22717821.9764
 95  2  9 17 43  0.0030000  0  6 18 14 15 22 25 29
  24864373.749    -1507700.961 5  -1118084.51147  24864377.3704
  21167585.843    -9539010.759 7  -7342950.59849  21167586.5584
  24603440.655    19427762.819 5  15138775.35149  24603444.2654
  22083562.569   -11388639.736 7  -8767465.64849  22083563.7414
  24178881.226    19103816.423 6  14875386.41649  24178881.5074
  22715107.108    -8011910.605 7  -6162526.05649  22715106.6404
 95  2  9 17 43 30.0030000  0  6 18 14 15 22 25 29
  24856137.530    -1550979.591 5  -1151808.09447  24856140.5304
  21170513.679    -9523623.541 7  -7330960.57049  21170514.5114
  24628019.218    19556924.175 5  15239420.42149  24628023.1084
  22085566.179   -11378112.788 7  -8759262.82449  22085567.2454
  24201867.819    19224613.015 6  14969513.61249  24201869.1444
  22712427.913    -8025988.977 7  -6173496.20549  22712427.8784
 95  2  9 17 44  0.0030000  0  6 18 14 15 22 25 29
  24847917.741    -1594176.745 5  -1185468.23045  24847920.2724
  21173558.890    -9507621.990 7  -7318491.83749  21173559.5814
  24652620.562    19686205.294 5  15340158.79649  24652623.7614
  22087690.921   -11366942.176 7  -8750558.43749  22087692.1754
  24224885.062    19345568.278 6  15063764.43449  24224885.7534
  22709786.038    -8039872.880 7  -6184314.83949  22709785.9914
 95  2  9 17 44 30.0030000  0  6 18 14 15 22 25 29
  24839711.819    -1637296.069 5  -1219067.65848  24839712.9684
  21176721.796    -9491002.565 7  -7305541.64849  21176722.4404
  24677245.022    19815607.224 5  15440991.30049  24677248.7494
  22089940.241   -11355122.249 7  -8741348.10349  22089941.4014
  24247931.733    19466679.428 6  15158136.72749  24247932.7184
  22707180.179    -8053565.662 7  -6194984.52849  22707180.5544
 95  2  9 17 45  0.0030000  0  6 18 14 15 22 25 29
  24831522.304    -1680338.823 5  -1252607.50648  24831523.2764
  21180002.663    -9473759.306 7  -7292105.35049  21180003.6244
  24701891.632    19945126.036 5  15541914.91049  24701895.4054
  22092311.272   -11342666.055 7  -8731641.96649  22092312.4334
  24271009.319    19587951.283 6  15252634.23849  24271010.1044
  22704609.038    -8067076.256 7  -6205512.25249  22704609.0734
 95  2  9 17 45 30.0030000  0  6 18 14 15 22 25 29
  24823345.929    -1723307.287 5  -1286089.38349  24823347.0424
  21183404.741    -9455882.160 7  -7278175.11549  21183405.7024
  24726559.530    20074759.147 5  15642927.55049  24726564.2294
  22094805.257   -11329558.611 7  -8721428.36949  22094806.2654
  24294116.233    19709382.242 6  15347255.72749  24294117.0074
  22702068.593    -8080426.626 7  -6215915.13349  22702068.2764
 95  2  9 17 46  0.0030000  0  6 18 14 15 22 25 29
  24815182.522    -1766202.130 5  -1319513.92249  24815184.5154
  21186924.179    -9437386.888 7  -7263763.22049  21186924.9644
  24751248.288    20204499.022 5  15744023.39049  24751252.3194
  22097426.585   -11315784.243 7  -8710695.08349  22097427.7104
  24317251.460    19830956.089 6  15441988.59149  24317252.5154
  22699555.483    -8093634.853 7  -6226207.26149  22699555.2264
 95  2  9 17 46 30.0030000  0  6 18 14 15 22 25 29
  24807035.233    -1809015.716 5  -1352875.15249  24807038.3864
  21190561.061    -9418275.664 7  -7248871.36249  21190561.8004
  24775957.444    20334344.725 5  15845201.73349  24775962.1904
  22100176.749   -11301333.555 7  -8699434.80649  22100177.6984
  24340411.351    19952660.858 6  15536823.40449  24340411.9604
  22697069.749    -8106696.627 7  -6236385.25649  22697069.6444
 95  2  9 17 47  0.0030000  0  7 18 14 15 19 22 25 29
  24798902.905    -1851750.772 5  -1386175.19049  24798905.5654
  21194314.983    -9398547.924 7  -7233499.11049  21194315.9094
  24800683.968    20464284.473 5  15946453.35349  24800688.3514
  25632851.944       -9284.19113
  22103057.218   -11286195.163 7  -8687638.63849  22103058.2724
  24363593.929    20074489.312 6  15631754.68049  24363594.9134
  22694610.976    -8119616.185 7  -6246452.45549  22694611.1404
 95  2  9 17 47 30.0030000  0  7 18 14 15 19 22 25 29
  24790787.858    -1894397.312 5  -1419406.24849  24790789.8274
  21198188.366    -9378192.539 7  -7217637.78149  21198189.3514
  24825429.929    20594324.530 5  16047783.10349  24825435.4954
  25622272.874      -64873.634 3
  22106073.491   -11270343.153 7  -8675286.41349  22106074.4524
  24386801.538    20196445.452 6  15726785.37549  24386802.0424
  22692182.569    -8132379.159 7  -6256397.58849  22692182.9564
 95  2  9 17 48  0.0030000  0  7 18 14 15 19 22 25 29
  24782689.061    -1936962.012 5  -1452573.49649  24782690.5614
  21202181.022    -9357211.393 7  -7201288.84649  21202181.8434
  24850192.452    20724449.685 5  16149179.14549  24850197.6324
  25611733.843     -120255.891 3    -28751.07656  25611735.9644
  22109221.929   -11253798.337 7  -8662394.33649  22109223.0544
  24410031.936    20318519.635 6  15821908.10049  24410032.5464
  22689785.140    -8144973.859 7  -6266211.65549  22689784.5074
 95  2  9 17 48 30.0030000  0  7 18 14 15 19 22 25 29
  24774606.054    -1979435.985 5  -1485670.06049  24774606.2414
  21206296.171    -9335587.048 7  -7184438.71449  21206297.1084
  24874970.007    20854658.022 5  16250640.05249  24874974.2494
  25601237.202     -175416.039 3    -71732.84746  25601244.4484
  22112499.030   -11236575.002 7  -8648973.53849  22112500.0624
  24433285.538    20440718.812 6  15917128.19749  24433286.1474
  22687422.593    -8157393.682 7  -6275889.41749  22687422.5814
 95  2  9 17 49  0.0030000  0  7 18 14 15 19 22 25 29
  24766541.194    -2021813.371 5  -1518691.35749  24766543.3044
  21210533.796    -9313317.385 7  -7167085.73049  21210534.6754
  24899764.976    20984954.425 5  16352169.56949  24899768.2574
  25590787.061     -230333.197 3   -114525.32646  25590788.6324
  22115906.194   -11218672.588 7  -8635023.59949  22115907.0154
  24456564.413    20563049.254 6  16012450.58649  24456564.9174
  22685092.562    -8169635.087 7  -6285428.16049  22685092.9254
 95  2  9 17 49 30.0030000  0  7 18 14 15 19 22 25 29
  24758491.929    -2064112.043 4  -1551651.29549  24758493.8864
  21214891.929    -9290415.108 7  -7149239.80549  21214892.7264
  24924573.718    21115325.839 5  16453757.52749  24924578.0894
  25580384.882     -284997.477 2   -157120.72647  25580388.0694
  22119434.608   -11200129.168 7  -8620574.17349  22119435.8394
  24479866.444    20685500.322 6  16107866.94749  24479867.2654
  22682796.624    -8181702.432 7  -6294831.27649  22682796.8584
 95  2  9 17 50  0.0030000  0  7 18 14 15 19 22 25 29
  24750455.851    -2106337.824 3  -1584554.47249  24750459.5654
  21219368.882    -9266889.793 7  -7130908.39849  21219369.6084
  24949397.171    21245770.855 5  16555402.85549  24949401.4014
  25570030.257     -339409.388 2   -199519.42245  25570032.0154
  22123082.077   -11180957.709 7  -8605635.37249  22123083.1794
  24503190.155    20808068.905 6  16203374.90649  24503190.7414
  22680532.397    -8193602.185 7  -6304103.79249  22680532.8544
 95  2  9 17 50 30.0030000  0  7 18 14 15 19 22 25 29
  24742432.882    -2148499.512 3  -1617407.64849  24742434.8154
  21223960.710    -9242759.733 7  -7112105.75749  21223961.4954
  24974233.015    21376283.726 5  16657101.02249  24974237.1634
  25559723.147     -393578.302 2   -241728.81746  25559727.4364
  22126851.851   -11161151.243 7  -8590201.74649  22126853.0584
  24526535.702    20930749.684 6  16298970.27249  24526536.4764
  22678294.194    -8205360.731 7  -6313266.28649  22678294.1244
 95  2  9 17 51  0.0030000  0  7 18 14 15 19 22 25 29
  24734421.218    -2190603.016 3  -1650215.52148  24734423.8084
  21228665.202    -9218036.792 7  -7092841.13649  21228665.9644
  24999081.835    21506863.707 5  16758851.50048  24999086.8514
  25549458.429     -447512.572 3   -283755.43648  25549461.2064
  22130745.671   -11140688.374 7  -8574256.64549  22130746.7964
  24549904.077    21053552.229 6  16394660.53349  24549904.9094
  22676083.546    -8216981.701 7  -6322321.57149  22676083.0774
 95  2  9 17 51 30.0030000  0  7 18 14 15 19 22 25 29
  24726421.905    -2232644.438 3  -1682974.99349  24726425.4914
  21233484.515    -9192711.574 7  -7073107.20749  21233485.2294
  25023943.296    21637511.581 5  16860654.88049  25023948.3234
  25539236.530     -501222.956 3   -325607.56547  25539241.1244
  22134767.452   -11119555.630 7  -8557789.56649  22134768.5544
  24573297.499    21176484.175 6  16490451.58849  24573298.4724
  22673898.499    -8228465.144 7  -6331269.72349  22673897.9954
 95  2  9 17 52  0.0030000  0  7 18 14 15 19 22 25 29
  24718434.187    -2274615.478 4  -1715679.64849  24718436.0974
  21238419.007    -9166780.831 7  -7052901.44049  21238419.8514
  25048816.741    21768224.264 5  16962508.72849  25048821.4994
  25529056.632     -554722.245 3   -367295.21247  25529061.8234
  22138921.671   -11097727.498 7  -8540780.61949  22138922.8784
  24596713.280    21299533.777 5  16586334.34049  24596713.9014
  22671737.288    -8239816.233 7  -6340114.70449  22671738.0734
 95  2  9 17 52 30.0030000  0  7 18 14 15 19 22 25 29
  24710461.593    -2316512.263 5  -1748326.42649  24710463.3974
  21243471.030    -9140232.257 7  -7032214.25049  21243471.8044
  25073701.913    21898994.808 5  17064407.66449  25073706.7294
  25518917.046     -608004.914 3   -408814.06749  25518922.2724
  22143209.772   -11075190.035 7  -8523218.95249  22143210.8864
  24620150.124    21422698.678 5  16682306.95149  24620150.5814
  22669604.835    -8251027.338 7  -6348850.61949  22669604.1554
 95  2  9 17 53  0.0030000  0  7 18 14 15 19 22 25 29
  24702504.640    -2358323.883 5  -1780906.89249  24702505.9054
  21248643.382    -9113049.986 7  -7011033.27249  21248644.2264
  25098597.382    22029823.741 4  17166352.11248  25098601.8354
  25508821.515     -661055.165 3   -450151.82748  25508826.6244
  22147633.405   -11051945.377 7  -8505106.22349  22147634.3664
  24643609.812    21545977.473 5  16778368.28349  24643610.7964
  22667503.054    -8262071.971 7  -6357456.83449  22667502.2804
 95  2  9 17 53 30.0030000  0  7 18 14 15 19 22 25 29
  24694564.601    -2400053.222 5  -1813423.24049  24694566.3124
  21253939.101    -9085222.365 7  -6989349.42149  21253939.8744
  25123503.585    22160701.670 4  17268334.70749  25123509.0464
  25498773.405     -713860.524 3   -491298.73949  25498778.6324
  22152186.351   -11028019.929 7  -8486463.00749  22152187.5584
  24667086.780    21669348.982 6  16874501.86849  24667087.4604
  22665435.507    -8272939.394 7  -6365924.96049  22665434.8274
 95  2  9 17 54  0.0030000  0  7 18 14 15 19 22 25 29
  24686643.858    -2441674.195 5  -1845855.10849  24686646.2964
  21259360.437    -9056732.554 7  -6967149.58249  21259361.2334
  25148420.601    22291644.425 4  17370367.80048  25148427.8004
  25488780.202     -766377.711 4   -532221.11848  25488784.9724
  22156870.413   -11003404.660 7  -8467282.27549  22156871.3154
  24690584.952    21792834.627 5  16970724.39549  24690586.1244
  22663405.562    -8283601.746 7  -6374233.25449  22663406.8514
 95  2  9 17 54 30.0030000  0  7 18 14 15 19 22 25 29
  24678744.733    -2483186.694 5  -1878202.49149  24678746.3274
  21264906.257    -9027589.873 7  -6944441.00749  21264907.1714
  25173350.343    22422648.246 4  17472448.50449  25173355.7924
  25478843.335     -818598.315 5   -572912.42849  25478847.5774
  22161682.038   -10978120.924 7  -8447580.64149  22161683.0114
  24714106.968    21916445.508 5  17067044.49349  24714107.6124
  22661418.233    -8294049.787 7  -6382374.61449  22661416.1364
 95  2  9 17 55  0.0030000  0  7 18 14 15 19 22 25 29
  24670862.538    -2524607.769 5  -1910478.66549  24670863.8974
  21270573.233    -8997809.513 7  -6921235.54249  21270574.0654
  25198289.022    22553699.366 5  17574566.06049  25198294.2264
  25468956.351     -870550.437 4   -613394.51449  25468960.0304
  22166613.882   -10952202.512 7  -8427384.47249  22166614.7614
  24737651.155    22040170.679 5  17163453.69349  24737651.7184
  22659466.827    -8304297.143 7  -6390359.56049  22659467.9294
 95  2  9 17 55 30.0030000  0  7 18 14 15 19 22 25 29
  24662996.351    -2565943.268 5  -1942688.13749  24662998.3544
  21276361.054    -8967393.752 7  -6897534.95949  21276362.0734
  25223234.757    22684791.974 5  17676715.97949  25223240.7694
  25459117.429     -922257.699 4   -653685.79648  25459122.3514
  22171666.413   -10925653.460 7  -8406696.88949  22171667.5504
  24761218.476    22164015.544 6  17259956.12849  24761219.6124
  22657552.140    -8314363.867 7  -6398203.74549  22657552.1284
 95  2  9 17 56  0.0030000  0  7 18 14 15 19 22 25 29
  24655146.062    -2607194.858 5  -1974832.19449  24655147.8314
  21282266.616    -8936359.098 7  -6873352.12149  21282267.5194
  25248188.397    22815922.483 5  17778895.36949  25248193.7534
  25449319.288     -973744.047 4   -693804.96648  25449322.5934
  22176842.960   -10898447.960 7  -8385497.79249  22176844.1084
  24784809.108    22287985.323 6  17356555.90949  24784810.2224
  22655668.632    -8324262.762 7  -6405917.18049  22655667.6834
 95  2  9 17 56 30.0030000  0  7 18 14 15 19 22 25 29
  24647310.140    -2648372.953 5  -2006918.97849  24647312.3784
  21288290.913    -8904701.317 7  -6848683.73349  21288291.7924
  25273148.421    22947086.530 5  17881100.94349  25273154.3274
  25439558.187    -1025037.324 4   -733773.71047  25439563.0154
  22182146.530   -10870576.289 7  -8363779.59649  22182147.7144
  24808422.077    22412070.619 6  17453245.68049  24808423.1904
  22653814.757    -8333998.733 7  -6413503.63949  22653815.6244
 95  2  9 17 57  0.0030000  0  7 18 14 15 19 22 25 29
  24639490.218    -2689465.153 4  -2038938.82549  24639491.6124
  21294436.757    -8872406.036 7  -6823518.59049  21294437.6014
  25298115.765    23078290.953 5  17983337.94249  25298120.2294
  25429835.929    -1076127.382 4   -773584.05349  25429840.0194
  22187584.757   -10842000.123 7  -8341512.44049  22187585.9054
  24832055.765    22536266.679 6  17550021.79249  24832056.7494
  22651994.874    -8343570.615 7  -6420962.25349  22651994.8044
 95  2  9 17 57 30.0030000  0  7 18 14 15 19 22 25 29
  24631688.929    -2730462.404 4  -2070884.68249  24631689.9014
  21300699.913    -8839493.156 7  -6797872.20549  21300700.7804
  25323089.788    23209527.058 5  18085599.64849  25323094.1014
  25420155.624    -1126999.724 3   -813224.76348  25420161.1674
  22193159.054   -10812703.264 7  -8318683.70449  22193160.0854
  24855707.804    22660559.132 6  17646873.00249  24855708.8824
  22650203.413    -8352977.030 7  -6428291.91949  22650204.2574
 95  2  9 17 58  0.0030000  0  7 18 14 15 19 22 25 29
  24623904.601    -2771372.344 5  -2102762.49749  24623905.7614
  21307078.999    -8805971.586 7  -6771751.51349  21307079.9834
  25348067.882    23340787.165 5  18187880.04849  25348072.7224
  25410518.858    -1177636.718 4   -852682.10449  25410524.7064
  22198870.921   -10782688.485 7  -8295295.55449  22198871.8474
  24879373.507    22784922.887 6  17743779.79649  24879374.1874
  22648447.991    -8362208.932 7  -6435485.60049  22648447.2884
 95  2  9 17 58 30.0030000  0  7 18 14 15 19 22 25 29
  24616137.851    -2812189.367 5  -2134567.87149  24616139.7844
  21313575.569    -8771830.188 7  -6745147.80049  21313576.7184
  25373050.960    23472074.807 5  18290181.92447  25373055.0854
  25400934.202    -1228010.176 3   -891934.03947  25400938.6904
  22204715.069   -10751975.964 7  -8271363.66749  22204716.3234
  24903052.921    22909359.676 5  17840743.52649  24903054.2224
  22646724.913    -8371258.618 7  -6442537.25949  22646725.6864
 95  2  9 17 59  0.0030000  0  7 18 14 15 19 22 25 29
  24608388.319    -2852909.156 5  -2166297.55549  24608390.2654
  21320191.312    -8737064.656 7  -6718057.79849  21320192.1674
  25398039.046    23603387.834 5  18392503.55247  25398046.1164
  25391401.593    -1278100.926 3   -930965.77545  25391407.1594
  22210690.937   -10720573.703 7  -8246894.37049  22210692.0384
  24926747.358    23033876.701 5  17937769.68349  24926748.5544
  22645038.116    -8380125.510 7  -6449446.52549  22645037.8004
 95  2  9 17 59 30.0030000  0  7 18 14 15 19 22 25 29
  24600654.366    -2893550.988 5  -2197966.48249  24600656.2534
  21326927.640    -8701665.672 7  -6690474.18249  21326928.6714
  25423030.101    23734718.026 4  18494838.58547  25423035.5154
  25381922.546    -1327913.029 3   -969780.35346  25381926.7884
  22216793.374   -10688505.575 7  -8221906.21149  22216794.7574
  24950458.054    23158475.271 6  18034859.42549  24950459.2024
  22643382.890    -8388821.688 7  -6456222.76149  22643383.1244
 95  2  9 18  0  0.0030000  0  7 18 14 15 19 22 25 29
  24592932.304    -2934131.073 5  -2229587.30049  24592934.9294
  21333789.226    -8665607.673 7  -6662377.05349  21333790.3744
  25448025.171    23866067.700 3  18597188.81848  25448030.0114
  25372495.687    -1377453.062 3  -1008382.88447  25372499.0384
  22223022.913   -10655767.101 7  -8196395.69549  22223024.0854
  24974185.796    23283165.319 6  18132020.52449  24974186.2064
  22641758.741    -8397355.619 7  -6462872.57049  22641759.2454
 95  2  9 18  0 30.0030000  0  7 18 14 15 19 22 25 29
  24585223.601    -2974641.704 5  -2261153.98249  24585224.7844
  21340777.077    -8628885.475 7  -6633762.36249  21340778.2374
  25473024.249    23997432.520 4  18699550.82246  25473029.7334
  25363118.046    -1426733.191 3  -1046782.87446  25363121.5734
  22229382.085   -10622353.826 7  -8170359.37649  22229383.2574
  24997933.108    23407958.435 5  18229261.84349  24997934.4214
  22640164.429    -8405737.568 7  -6469403.98349  22640163.5384
 95  2  9 18  1  0.0030000  0  7 18 14 15 19 22 25 29
  24577531.312    -3015065.347 5  -2292652.90049  24577532.5544
  21347893.397    -8591489.970 7  -6604623.01949  21347894.3944
  25498024.101    24128808.701 3  18801921.64147  25498030.7804
  25353786.726    -1475766.567 3  -1084990.63747  25353792.7614
  22235870.585   -10588251.832 7  -8143786.36749  22235871.9214
  25021699.772    23532850.729 6  18326580.43549  25021700.8154
  22638599.187    -8413965.542 7  -6475815.35049  22638599.4684
 95  2  9 18  1 30.0030000  0  7 18 14 15 19 22 25 29
  24569857.030    -3055391.461 5  -2324075.80949  24569859.6794
  21355136.788    -8553424.876 7  -6574961.92049  21355137.8664
  25523025.663    24260195.650 3  18904300.88947  25523031.9914
  25344502.351    -1524558.896 3  -1123010.51447  25344505.7374
  22242491.405   -10553463.201 7  -8116678.34049  22242492.7764
  25045483.343    23657834.625 6  18423970.44249  25045484.5264
  22637063.913    -8422028.255 7  -6482098.01049  22637062.9174
 95  2  9 18  2  0.0030000  0  7 18 14 15 19 22 25 29
  24562202.718    -3095615.094 5  -2355418.87849  24562205.0384
  21362504.436    -8514708.308 7  -6544793.17149  21362505.3974
  25548028.054    24391578.827 2  19006677.12945  25548034.5584
  25335261.538    -1573124.174 4  -1160853.50348  25335265.3234
  22249236.913   -10518015.352 7  -8089056.63749  22249238.1904
  25069283.343    23782903.513 5  18521426.68349  25069285.2184
  22635563.718    -8429913.527 7  -6488242.35849  22635563.2724
 95  2  9 18  2 30.0030000  0  7 18 14 15 19 22 25 29
  24554571.226    -3135717.617 5  -2386667.57649  24554573.5814
  21369994.866    -8475345.912 7  -6514121.18449  21369995.7804
  25573028.562    24522956.117 2  19109048.79246  25573034.9014
  25326066.390    -1621442.949 4  -1198504.41647  25326069.8234
  22256105.585   -10481920.251 7  -8060930.57449  22256106.7454
  25093098.608    23908053.801 6  18618946.34549  25093099.9444
  22634098.929    -8437608.383 7  -6494238.35349  22634099.2804
 95  2  9 18  3  0.0040000  0  7 18 14 15 19 22 25 29
  24546961.285    -3175708.213 5  -2417829.03649  24546963.7694
  21377609.762    -8435329.982 7  -6482939.95249  21377610.5124
  25598029.168    24654337.528 3  19211423.64847  25598033.9024
  25316918.777    -1669514.230 4  -1235962.49848  25316923.2894
  22263098.598   -10445171.507 7  -8032295.19449  22263100.1094
  25116929.613    24033287.536 5  18716531.02149  25116930.5984
  22632675.402    -8445093.520 7  -6500070.93249  22632673.6564
 95  2  9 18  3 30.0040000  0  7 18 14 15 19 22 25 29
  24539366.293    -3215618.001 5  -2448927.56549  24539368.4614
  21385346.652    -8394670.476 7  -6451257.23649  21385347.4844
  25623028.434    24785708.444 3  19313790.34946  25623033.8124
  25307818.730    -1717333.578 4  -1273224.24049  25307822.6214
  22270215.043   -10407773.362 7  -8003153.77849  22270216.6024
  25140776.098    24158599.527 5  18814176.66449  25140775.9924
  22631289.973    -8452368.475 7  -6505739.72649  22631290.8524
 95  2  9 18  4  0.0040000  0  7 18 14 15 19 22 25 29
  24531785.355    -3255457.787 5  -2479971.51449  24531786.9494
  21393207.176    -8353365.081 7  -6419071.22349  21393207.9374
  25648026.684    24917071.229 3  19416150.73847  25648033.5434
  25298765.840    -1764899.906 4  -1310288.87147  25298768.1374
  22277459.715   -10369699.505 7  -7973485.83249  22277461.0864
  25164637.715    24283994.196 5  18911886.77249  25164638.5474
  22629946.043    -8459436.063 7  -6511246.92649  22629944.7894
 95  2  9 18  4 30.0040000  0  7 18 14 15 19 22 25 29
  24524216.887    -3295232.721 6  -2510964.97049  24524218.4344
  21401187.199    -8311429.157 7  -6386393.92549  21401187.7974
  25673022.887    25048426.394 5  19518505.11249  25673028.1604
  25289762.230    -1812215.852 5  -1347158.37349  25289766.8594
  22284841.223   -10330913.260 7  -7943262.81049  22284842.1484
  25188514.973    24409467.906 6  19009658.40849  25188516.2734
  22628636.246    -8466314.709 7  -6516606.95249  22628636.9844
 95  2  9 18  5  0.0040000  0  7 18 14 15 19 22 25 29
  24516653.980    -3334975.826 6  -2541933.57649  24516655.1294
  21409281.137    -8268896.048 7  -6353251.24649  21409281.8164
  25698011.668    25179742.441 5  19620829.13849  25698017.4924
  25280796.426    -1859332.410 5  -1383872.53049  25280800.8324
  22292353.684   -10291438.019 7  -7912502.87549  22292354.8554
  25212401.480    24534993.622 6  19107470.59349  25212402.8754
  22627356.176    -8473044.409 7  -6521850.87549  22627355.7544
 95  2  9 18  5 30.0040000  0  7 18 14 15 19 22 25 29
  24509101.691    -3374662.134 6  -2572857.95449  24509103.0984
  21417488.309    -8225766.280 8  -6319643.65049  21417489.0944
  25722993.926    25311021.807 5  19723124.48947  25722998.1564
  25271871.348    -1906233.618 5  -1420418.86249  25271875.5664
  22299996.934   -10251270.045 7  -7881203.14749  22299997.9414
  25236300.184    24660580.017 5  19205330.04749  25236301.6134
  22626103.152    -8479629.864 7  -6526982.36549  22626103.7504
 95  2  9 18  6  0.0040000  0  7 18 14 15 19 22 25 29
  24501567.691    -3414253.534 5  -2603708.37449  24501569.4844
  21425810.355    -8182034.916 8  -6285567.27849  21425811.1764
  25747970.059    25442275.341 5  19825399.75747  25747975.0394
  25262992.020    -1952898.764 5  -1456781.25349  25262995.0664
  22307775.527   -10210395.125 7  -7849352.54849  22307776.7934
  25260211.105    24786233.042 5  19303241.40949  25260211.8444
  22624878.184    -8486060.627 7  -6531993.37749  22624878.5124
 95  2  9 18  6 30.0040000  0  7 18 14 15 19 22 25 29
  24494053.254    -3453741.753 5  -2634478.38449  24494055.2934
  21434248.590    -8137692.109 8  -6251014.45349  21434249.4804
  25772942.777    25573505.792 5  19927657.00449  25772948.8954
  25254160.809    -1999309.575 5  -1492945.46649  25254164.1024
  22315685.012   -10168822.449 7  -7816958.24649  22315686.3834
  25284135.066    24911953.827 5  19401205.63549  25284136.9184
  22623686.168    -8492333.966 7  -6536881.68449  22623685.1134
 95  2  9 18  7  0.0040000  0  7 18 14 15 19 22 25 29
  24486557.629    -3493130.226 5  -2665170.66349  24486558.9534
  21442807.223    -8092717.308 8  -6215969.16549  21442808.0554
  25797909.957    25704703.896 5  20029889.02449  25797916.5784
  25245378.262    -2045459.664 5  -1528906.51349  25245380.8054
  22323724.324   -10126577.981 7  -7784040.46249  22323725.6484
  25308070.777    25037735.582 5  19499217.38149  25308071.6804
  22622522.176    -8498444.781 7  -6541643.32349  22622523.1484
 95  2  9 18  7 30.0040000  0  7 18 14 15 19 22 25 29
  24479083.230    -3532411.285 5  -2695779.26849  24479083.1844
  21451489.699    -8047090.228 8  -6180415.60749  21451490.4264
  25822871.113    25835876.943 5  20132101.55249  25822875.3554
  25236652.574    -2091313.462 5  -1564636.69649  25236654.5084
  22331895.098   -10083643.921 7  -7750585.34449  22331896.2234
  25332018.871    25163586.973 5  19597283.35549  25332020.6644
  22621394.340    -8504371.572 7  -6546261.64649  22621394.2234
 95  2  9 18  8  0.0040000  0  7 18 14 15 19 22 25 29
  24471626.473    -3571596.491 6  -2726313.20049  24471628.0784
  21460298.191    -8000801.201 8  -6144346.25449  21460299.0004
  25847827.340    25967018.325 5  20234289.39549  25847832.8714
  25227983.527    -2136869.181 5  -1600134.59849  25227986.6094
  22340195.918   -10040024.623 7  -7716596.29049  22340197.1604
  25355980.730    25289505.512 5  19695401.61649  25355982.1604
  22620303.785    -8510108.781 7  -6550732.15749  22620303.4454
 95  2  9 18  8 30.0040000  0  7 18 14 15 19 22 25 29
  24464187.309    -3610688.011 6  -2756774.11149  24464187.4964
  21469236.887    -7953826.542 8  -6107742.63549  21469237.6724
  25872777.629    26098134.792 5  20336457.85248  25872783.6524
  25219370.879    -2182127.728 5  -1635400.89049  25219374.1844
  22348625.566    -9995724.722 7  -7682076.86249  22348626.9024
  25379955.277    25415493.815 5  19793574.22749  25379955.9694
  22619250.441    -8515638.899 7  -6555041.37149  22619250.7234
 95  2  9 18  9  0.0040000  0  7 18 14 15 19 22 25 29
  24456767.152    -3649682.967 6  -2787159.78249  24456768.1604
  21478304.465    -7906176.849 8  -6070613.01449  21478305.2854
  25897721.762    26229221.030 4  20438602.67948  25897727.9144
  25210812.027    -2227105.108 5  -1670448.13849  25210814.8874
  22357183.527    -9950754.082 7  -7647034.80949  22357184.5474
  25403942.137    25541543.285 5  19891794.55249  25403943.4844
  22618237.449    -8520961.527 7  -6559188.86249  22618237.2974
 95  2  9 18  9 30.0040000  0  7 18 14 15 19 22 25 29
  24449365.270    -3688578.390 5  -2817467.88449  24449366.3594
  21487497.559    -7857866.684 8  -6032968.74449  21487498.4494
  25922661.230    26360275.045 3  20540722.44946  25922667.4304
  25202305.152    -2271809.192 5  -1705282.40149  25202308.1414
  22365867.730    -9905115.268 7  -7611472.08449  22365868.9144
  25427938.559    25667645.459 5  19990055.94749  25427939.2384
  22617265.855    -8526075.622 7  -6563173.87249  22617265.1294
 95  2  9 18 10  0.0040000  0  7 18 14 15 19 22 25 29
  24441981.980    -3727377.531 5  -2847700.93749  24441983.6804
  21496814.637    -7808905.107 7  -5994816.88549  21496815.6214
  25947592.652    26491289.153 3  20642811.09346  25947598.3834
  25193844.480    -2316267.169 5  -1739924.89549  25193849.0864
  22374675.801    -9858828.777 7  -7575404.68449  22374677.0904
  25451941.613    25793782.979 5  20088344.89249  25451943.2664
  22616329.215    -8530988.954 7  -6567002.42749  22616329.3094
 95  2  9 18 10 30.0040000  0  7 18 14 15 19 22 25 29
  24434617.262    -3766077.233 5  -2877856.50249  24434618.9844
  21506255.426    -7759293.032 7  -5956158.13849  21506256.3524
  25972516.137    26622263.046 3  20744868.39645  25972521.0004
  25185427.941    -2360493.851 5  -1774387.13449  25185432.2544
  22383608.277    -9811890.976 7  -7538829.77749  22383609.5434
  25475951.340    25919954.643 5  20186660.43449  25475953.0514
  22615431.199    -8535706.230 7  -6570678.25649  22615431.6804
 95  2  9 18 11  0.0040000  0  7 18 14 15 19 22 25 29
  24427273.543    -3804671.150 5  -2907929.65149  24427274.4694
  21515819.473    -7709034.153 7  -5916995.38949  21515820.4104
  25997429.535    26753191.712 2  20846890.47945  25997437.9654
  25177055.957    -2404490.576 5  -1808670.20449  25177060.0004
  22392666.551    -9764290.477 7  -7501738.46949  22392667.6414
  25499970.785    26046177.056 5  20285015.51849  25499972.5904
  22614570.285    -8540238.410 7  -6574209.80249  22614568.1874
 95  2  9 18 11 30.0040000  0  7 18 14 15 19 22 25 29
  24419950.668    -3843152.791 6  -2937915.34349  24419952.2154
  21525510.105    -7658109.751 7  -5877314.05049  21525510.8554
  26022338.066    26884078.854 2  20948880.22246  26022344.8754
  25168728.223    -2448251.284 4  -1842769.35849  25168732.1954
  22401855.355    -9716001.895 7  -7464110.99049  22401856.4454
  25524004.020    26172474.185 5  20383428.78149  25524005.8364
  22613744.449    -8544576.947 7  -6577590.46349  22613745.0944
 95  2  9 18 12  0.0040000  0  7 18 14 15 19 22 25 29
  24412648.582    -3881526.076 6  -2967816.60449  24412649.3204
  21535327.512    -7606519.308 7  -5837113.71749  21535328.4844
  26047236.387    27014917.738 2  21050832.22746  26047243.9494
  25160443.824    -2491783.982 4  -1876690.80449  25160448.8634
  22411177.098    -9667014.846 7  -7425939.26549  22411178.1644
  25548054.645    26298860.169 5  20481911.28749  25548056.6484
  22612955.301    -8548719.069 7  -6580818.12649  22612954.0474
 95  2  9 18 12 30.0040000  0  7 18 14 15 19 22 25 29
  24405367.965    -3919786.633 5  -2997630.00749  24405368.7504
  21545269.660    -7554272.499 7  -5796401.93449  21545270.6564
  26072124.855    27145707.376 3  21152746.00442  26072130.6214
  25152205.980    -2535074.887 5  -1910423.85449  25152209.7664
  22420634.082    -9617314.655 7  -7387211.82749  22420635.2664
  25572127.645    26425362.331 5  20580484.33949  25572128.7114
  22612205.144    -8552660.817 7  -6583889.60249  22612204.8984
 95  2  9 18 13  0.0040000  0  7 18 14 15 19 22 25 29
  24398109.543    -3957927.278 5  -3027349.92449  24398110.8094
  21555336.293    -7501371.573 7  -5755180.44349  21555337.3954
  26097005.215    27276450.978 3  21254623.92342  26097013.8554
  25144020.363    -2578091.810 5  -1943943.44949  25144023.7384
  22430229.934    -9566891.309 7  -7347920.90949  22430230.8714
  25596223.613    26551989.188 5  20679154.57449  25596224.9264
  22611496.629    -8556387.440 7  -6586793.47549  22611496.0784
 95  2  9 18 13 30.0040000  0  7 18 14 15 19 22 25 29
  24390871.793    -3995961.055 5  -3056986.56549  24390873.5984
  21565524.832    -7447831.276 7  -5713460.74149  21565525.8404
  26121874.660    27407143.120 3  21356461.61645  26121882.7854
  25135889.269    -2620820.376 5  -1977238.34549  25135892.0594
  22439959.809    -9515759.249 7  -7308077.74749  22439960.8284
  25620339.660    26678718.857 5  20777904.90249  25620341.4184
  22610829.621    -8559891.948 7  -6589524.24149  22610828.6374
 95  2  9 18 14  0.0040000  0  6 18 14 19 22 25 29
  24383655.230    -4033886.710 5  -3086539.00049  24383656.8244
  21575833.191    -7393660.350 7  -5671249.64349  21575834.1874
  25127814.707    -2663255.408 5  -2010304.48349  25127816.6294
  22449821.394    -9463935.340 7  -7267695.47749  22449822.4734
  25644469.769    26805524.558 5  20876714.48449  25644471.0704
  22610204.387    -8563178.432 7  -6592085.13849  22610204.1874
 95  2  9 18 14 30.0040000  0  6 18 14 19 22 25 29
  24376459.418    -4071702.058 6  -3116005.51349  24376461.5164
  21586262.949    -7338851.854 7  -5628541.73849  21586264.0274
  25119798.105    -2705380.795 5  -2043129.40049  25119800.8244
  22459813.098    -9411429.851 7  -7226782.10949  22459814.1644
  25668609.644    26932380.523 5  20975563.21249  25668610.8164
  22609617.754    -8566260.637 7  -6594486.86049  22609617.6024
 95  2  9 18 15  0.0040000  0  6 18 14 19 22 25 29
  24369283.441    -4109410.475 6  -3145388.71749  24369285.5044
  21596815.590    -7283396.405 7  -5585329.71649  21596816.6914
  25111839.441    -2747202.680 5  -2075717.78749  25111842.5474
  22469933.176    -9358248.662 7  -7185342.22749  22469934.3484
  25692752.793    27059254.881 5  21074426.29449  25692754.4574
  22609069.793    -8569137.545 7  -6596728.60849  22609069.4654
 95  2  9 18 15 30.0040000  0  6 18 14 19 22 25 29
  24362129.277    -4147005.186 5  -3174683.25149  24362130.7894
  21607494.418    -7227279.549 7  -5541602.30349  21607495.4844
  25103934.176    -2788745.442 5  -2108088.66949  25103936.0864
  22480180.949    -9304393.415 7  -7143377.10049  22480182.0394
  25716899.996    27186149.764 5  21173305.35749  25716902.7034
  22608562.191    -8571804.608 7  -6598806.83649  22608562.3324
 95  2  9 18 16  0.0040000  0  6 18 14 19 22 25 29
  24354999.496    -4184472.637 5  -3203878.59049  24355000.6214
  21618301.785    -7170486.968 7  -5497348.36149  21618302.8634
  25096080.004    -2830022.981 5  -2140252.91449  25096081.9964
  22490559.988    -9249852.322 7  -7100877.54549  22490560.9844
  25741053.629    27313076.010 4  21272208.86449  25741056.7344
  22608093.582    -8574268.327 7  -6600726.60649  22608093.9104
 95  2  9 18 16 30.0040000  0  6 18 14 19 22 25 29
  24347890.301    -4221831.072 6  -3232988.99149  24347891.7424
  21629236.019    -7113025.421 7  -5452573.14849  21629237.0984
  25088273.574    -2871040.056 5  -2172214.17849  25088276.1054
  22501069.012    -9194629.284 7  -7057846.61649  22501069.9734
  25765215.973    27440048.972 4  21371148.78449  25765218.9964
  22607664.832    -8576524.554 7  -6602484.71149  22607664.1994
 95  2  9 18 17  0.0040000  0  6 18 14 19 22 25 29
  24340802.707    -4259076.514 6  -3262011.37749  24340804.1484
  21640296.285    -7054904.971 7  -5407284.50149  21640297.4344
  25080517.152    -2911803.890 5  -2203978.12749  25080518.8284
  22511710.066    -9138710.485 7  -7014273.53049  22511711.0624
  25789389.965    27567083.179 3  21470136.39247  25789390.7154
  22607277.848    -8578558.549 7  -6604069.61049  22607278.1524
 95  2  9 18 17 30.0040000  0  6 18 14 19 22 25 29
  24333740.762    -4296184.470 6  -3290926.64249  24333742.0514
  21651485.137    -6996107.646 7  -5361468.41349  21651486.1214
  25072812.238    -2952290.610 5  -2235526.12949  25072814.7344
  22522485.691    -9082081.189 7  -6970146.79449  22522486.6054
  25813580.676    27694207.794 3  21569194.50546  25813582.8094
  22606934.973    -8580355.272 7  -6605469.68349  22606935.0784
 95  2  9 18 18  0.0040000  0  6 18 14 19 22 25 29
  24326692.988    -4333223.408 5  -3319788.17449  24326694.5944
  21662790.348    -6936698.244 7  -5315175.38649  21662791.3204
  25065154.262    -2992534.429 5  -2266884.89149  25065157.9304
  22533386.691    -9024796.897 7  -6925509.67949  22533387.7584
  25837776.090    27821352.989 3  21668268.51947  25837778.9144
  22606628.746    -8581968.359 7  -6606726.61649  22606628.7584
 95  2  9 18 18 30.0040000  0  6 18 14 19 22 25 29
  24319661.535    -4370177.111 6  -3348583.23449  24319662.5314
  21674215.145    -6876660.471 7  -5268392.72449  21674216.2234
  25057547.480    -3032504.386 5  -2298030.22349  25057550.5624
  22544415.137    -8966841.020 7  -6880349.25649  22544416.1914
  25861977.098    27948530.768 2  21767368.12146  25861973.8164
  22606362.809    -8583362.952 7  -6607813.31349  22606362.8794
 95  2  9 18 19  0.0040000  0  6 18 14 19 22 25 29
  24312647.262    -4407034.617 6  -3377303.33949  24312648.6454
  21685760.004    -6815991.035 7  -5221117.85649  21685761.0354
  25049994.801    -3072193.828 5  -2328956.99949  25049998.3984
  22555570.879    -8908217.586 7  -6834668.65549  22555571.8984
  25886182.699    28075732.324 1
  22606139.074    -8584538.819 7  -6608729.58349  22606139.4494
 95  2  9 18 19 30.0040000  0  6 18 14 19 22 25 29
  24305650.746    -4443801.360 6  -3405952.70749  24305652.3874
  21697427.809    -6754677.127 7  -5173340.80449  21697428.8754
  25042497.816    -3111593.495 5  -2359657.95249  25042499.9144
  22566852.137    -8848935.568 7  -6788474.87949  22566853.1094
  25910395.019    28202965.995 1
  22605956.988    -8585498.646 7  -6609477.49549  22605956.0164
 95  2  9 18 20  0.0040000  0  6 18 14 19 22 25 29
  24298669.652    -4480486.068 6  -3434538.12849  24298671.6804
  21709215.590    -6692732.193 7  -5125072.04649  21709216.7974
  25035051.629    -3150721.423 5  -2390147.20349  25035054.3834
  22578256.223    -8789005.795 7  -6741776.36249  22578257.3484
  25934613.254    28330230.562 1
  22605813.207    -8586253.508 7  -6610065.68249  22605813.3364
 95  2  9 18 20 30.0040000  0  6 18 14 19 22 25 29
  24291704.863    -4517089.207 6  -3463060.02649  24291706.1644
  21721122.254    -6630162.275 7  -5076316.29049  21721123.3554
  25027652.090    -3189606.028 5  -2420446.81949  25027654.3284
  22589782.012    -8728435.624 7  -6694578.82049  22589782.9494
  25958837.504    28457535.038 1
  22605702.535    -8586832.622 7  -6610516.96449  22605701.9494
 95  2  9 18 21  0.0040000  0  6 18 14 19 22 25 29
  24284757.230    -4553600.379 6  -3491510.30349  24284758.1684
  21733149.973    -6566954.797 7  -5027063.73349  21733151.1334
  25020299.012    -3228248.010 5  -2450557.38649  25020300.9804
  22601431.785    -8667218.215 7  -6646876.95249  22601432.6294
  25983073.309    28584886.724 1
  22605625.176    -8587243.817 7  -6610837.35449  22605624.2624
 95  2  9 18 21 30.0040000  0  6 18 14 19 22 25 29
  24277829.895    -4590004.699 6  -3519877.30849  24277831.3944
  21745299.918    -6503108.196 7  -4977313.15349  21745300.9614
  25012992.488    -3266647.490 5  -2480479.00549  25012993.5664
  22613205.105    -8605347.431 7  -6598665.95349  22613206.0434
  26007316.965    28712292.058 1
  22605577.988    -8587490.669 7  -6611029.70349  22605577.8834
 95  2  9 18 22  0.0040000  0  6 18 14 19 22 25 29
  24270924.270    -4626289.730 6  -3548151.32049  24270926.3444
  21757570.598    -6438624.875 7  -4927066.42849  21757571.5004
  25005731.644    -3304802.266 5  -2510209.95549  25005733.5434
  22625104.527    -8542817.779 7  -6549941.55349  22625105.5704
  26031568.121    28839732.019 1
  22605563.699    -8587561.762 7  -6611085.10849  22605563.3954
 95  2  9 18 22 30.0040000  0  5 18 14 19 22 29
  24264044.566    -4662443.475 6  -3576323.03249  24264046.4414
  21769964.527    -6373495.738 7  -4876316.46849  21769965.5234
  24998521.738    -3342690.484 5  -2539733.20749  24998523.1804
  22637130.863    -8479619.931 7  -6500696.49349  22637131.9884
  22605587.098    -8587439.838 7  -6610990.09249  22605587.3204
 95  2  9 18 23  0.0040000  0  5 18 14 19 22 29
  24257192.871    -4698450.476 6  -3604380.41549  24257194.7704
  21782480.801    -6307720.339 7  -4825062.93149  21782481.5744
  24991368.684    -3380275.697 5  -2569020.34149  24991371.7774
  22649283.441    -8415757.241 7  -6450933.35949  22649284.5084
  22605655.082    -8587085.805 7  -6610714.21449  22605654.5314
 95  2  9 18 23 30.0040000  0  5 18 14 19 22 29
  24250366.566    -4734319.974 6  -3632330.65049  24250367.8674
  21795117.309    -6241314.871 7  -4773318.43449  21795118.0824
  24984271.496    -3417569.418 5  -2598080.34549  24984275.2114
  22661558.418    -8351250.693 7  -6400668.52549  22661559.4374
  22605767.082    -8586495.344 7  -6610254.10549  22605767.5624
 95  2  9 18 24  0.0050000  0  5 18 14 19 22 29
  24243567.188    -4770053.031 6  -3660174.56449  24243568.7354
  21807876.009    -6174266.770 7  -4721073.18149  21807877.0524
  24977230.009    -3454572.743 5  -2626914.07749  24977234.0284
  22673956.126    -8286098.798 7  -6349900.82049  22673957.3334
  22605926.204    -8585655.844 7  -6609599.95349  22605926.4034
 95  2  9 18 24 30.0050000  0  5 18 14 19 22 29
  24236794.954    -4805641.599 6  -3687905.89049  24236796.3724
  21820757.563    -6106574.652 7  -4668326.09749  21820758.5484
  24970244.806    -3491276.016 5  -2655514.00149  24970248.0634
  22686476.548    -8220309.128 7  -6298636.16749  22686477.8604
  22606135.923    -8584556.405 7  -6608743.23549  22606135.7244
 95  2  9 18 25  0.0050000  0  5 18 14 19 22 29
  24230049.204    -4841088.438 6  -3715526.80549  24230050.4704
  21833764.196    -6038225.099 7  -4615066.72849  21833765.1924
  24963316.399    -3527688.423 5  -2683887.25249  24963321.2514
  22699118.938    -8153869.798 7  -6246865.26149  22699120.4154
  22606394.962    -8583197.225 7  -6607684.12949  22606395.0204
 95  2  9 18 25 30.0050000  0  5 18 14 19 22 29
  24223331.673    -4876388.474 6  -3743033.31149  24223333.7704
  21846898.556    -5969204.398 7  -4561284.38249  21846899.6104
  24956441.657    -3563818.376 5  -2712040.43049  24956445.4074
  22711890.165    -8086753.616 7  -6194566.95249  22711891.5604
  22606702.329    -8581581.916 7  -6606425.45049  22606702.1304
 95  2  9 18 26  0.0050000  0  5 18 14 19 22 29
  24216640.438    -4911555.134 6  -3770435.85749  24216641.8924
  21860157.360    -5899528.448 7  -4506991.45249  21860158.2284
  24949618.142    -3599675.293 5  -2739980.86449  24949620.9194
  22724793.102    -8018953.893 7  -6141736.01549  22724794.1104
  22607052.720    -8579739.895 7  -6604990.11149  22607052.6494
 95  2  9 18 26 30.0050000  0  5 18 14 19 22 29
  24209969.071    -4946613.822 6  -3797754.28949  24209970.1384
  21873537.603    -5829215.109 7  -4452201.86149  21873538.5634
  24942844.142    -3635270.409 5  -2767717.25549  24942847.3884
  22737825.181    -7950468.513 7  -6088370.79449  22737826.1774
  22607442.126    -8577695.043 7  -6603396.72449  22607441.8924
 95  2  9 18 27  0.0050000  0  5 18 14 19 22 29
  24203317.743    -4981563.261 6  -3824987.60749  24203319.1144
  21887039.673    -5758261.822 7  -4396913.60249  21887040.7744
  24936120.251    -3670609.004 5  -2795253.76649  24936123.4274
  22750990.110    -7881284.661 7  -6034461.30149  22750991.2124
  22607866.048    -8575466.328 7  -6601660.06449  22607865.7204
 95  2  9 18 27 30.0050000  0  5 18 14 19 22 29
  24196689.282    -5016391.651 6  -3852126.61049  24196691.5204
  21900664.595    -5686662.281 7  -4341121.77449  21900665.5324
  24929445.485    -3705684.029 5  -2822584.89849  24929447.9354
  22764289.767    -7811396.443 7  -5980002.96349  22764290.6574
  22608327.071    -8573041.574 7  -6599770.64849  22608326.7674
 95  2  9 18 28  0.0050000  0  5 18 14 19 22 29
  24190084.149    -5051103.911 6  -3879175.12349  24190086.2354
  21914415.595    -5614399.964 7  -4284813.49449  21914416.5914
  24922820.556    -3740497.918 5  -2849712.55142  24922823.3684
  22777721.860    -7740811.378 7  -5925001.63049  22777723.1854
  22608826.751    -8570415.334 7  -6597724.22149  22608826.7274
 95  2  9 18 28 30.0050000  0  5 18 14 19 22 29
  24183501.446    -5085701.054 6  -3906133.91449  24183503.3104
  21928294.603    -5541463.810 7  -4227980.14149  21928295.6924
  24916244.704    -3775054.519 5  -2876639.72449  24916246.0754
  22791283.071    -7669545.386 7  -5869469.69149  22791284.3134
  22609370.017    -8567561.125 7  -6595500.15949  22609369.6424
 95  2  9 18 29  0.0050000  0  5 18 14 19 22 29
  24176943.329    -5120165.382 6  -3932989.18049  24176944.5954
  21942300.306    -5467865.097 7  -4170630.51349  21942301.3024
  24909716.196    -3809360.509 5  -2903371.61549  24909717.2984
  22804970.274    -7597618.526 7  -5813422.79549  22804971.3064
  22609959.681    -8564464.075 7  -6593086.87149  22609959.6454
 95  2  9 18 29 30.0050000  0  5 18 14 19 22 29
  24170408.384    -5154503.829 6  -3959746.38249  24170408.9114
  21956430.712    -5393609.173 7  -4112768.77449  21956431.8494
  24903238.571    -3843396.576 5  -2929893.14749  24903242.4384
  22818782.431    -7525033.594 7  -5756863.11649  22818783.3214
  22610601.501    -8561090.442 7  -6590458.06449  22610601.2084
 95  2  9 18 30  0.0050000  0  5 18 14 19 22 29
  24163899.353    -5188706.691 6  -3986397.98549  24163899.9034
  21970686.251    -5318696.500 7  -4054395.28749  21970687.3994
  24896818.735    -3877130.710 5  -2956179.41549  24896823.1884
  22832718.681    -7451797.969 7  -5699796.39949  22832719.8534
  22611297.946    -8557431.036 7  -6587606.57249  22611297.5604
 95  2  9 18 30 30.0050000  0  5 18 14 19 22 29
  24157421.009    -5222751.084 6  -4012926.05149  24157422.5674
  21985063.235    -5243145.741 7  -3995524.58749  21985064.0094
  24890462.946    -3910532.775 5  -2982206.93949  24890466.4744
  22846777.509    -7377919.292 7  -5642228.60649  22846778.7634
  22612047.985    -8553486.593 7  -6584532.98749  22612047.6224
 95  2  9 18 31  0.0050000  0  5 18 14 19 22 29
  24150975.563    -5256623.704 6  -4039320.29149  24150977.2284
  21999561.149    -5166957.646 7  -3936157.26749  21999562.0994
  24884175.626    -3943575.027 5  -3007954.10349  24884177.5364
  22860960.915    -7303382.643 7  -5584148.11749  22860962.1574
  22612850.345    -8549270.390 7  -6581247.63449  22612850.1694
 95  2  9 18 31 30.0050000  0  5 18 14 19 22 29
  24144563.329    -5290321.994 6  -4065578.70249  24144564.7704
  22014185.235    -5090108.005 7  -3876274.45149  22014186.1734
  24877960.446    -3976238.706 5  -3033406.26949  24877962.5324
  22875273.134    -7228174.558 7  -5525544.43549  22875274.2474
  22613704.978    -8544781.175 7  -6577749.54149  22613704.6144
 95  2  9 18 32  0.0050000  0  5 18 14 19 22 29
  24138184.165    -5323838.916 5  -4091695.73049  24138185.7354
  22028934.384    -5012600.172 7  -3815878.75749  22028935.5094
  24871811.501    -4008549.392 5  -3058583.36149  24871815.0054
  22889709.548    -7152308.673 7  -5466428.16649  22889711.0364
  22614606.931    -8540042.424 7  -6574057.00249  22614606.2514
 95  2  9 18 32 30.0050000  0  5 18 14 19 22 29
  24131840.103    -5357183.126 6  -4117678.19949  24131841.0994
  22043805.899    -4934451.006 7  -3754983.32549  22043807.1064
  24865721.243    -4040551.098 5  -3083519.66749  24865724.6884
  22904271.899    -7075784.853 7  -5406799.23049  22904273.2004
  22615554.399    -8535062.286 7  -6570176.36849  22615554.1534
 95  2  9 18 33  0.0050000  0  5 18 14 19 22 29
  24125526.329    -5390361.260 6  -4143531.33449  24125526.9974
  22058801.368    -4855648.374 7  -3693578.69749  22058802.6924
  24859686.657    -4072267.942 5  -3108234.04649  24859688.7674
  22918962.126    -6998584.996 7  -5346643.50949  22918963.1694
  22616553.188    -8529814.033 7  -6566086.81949  22616552.8724
 95  2  9 18 33 30.0050000  0  5 18 14 19 22 29
  24119239.470    -5423393.050 6  -4169270.40549  24119240.7474
  22073917.024    -4776216.778 7  -3631683.97349  22073918.1494
  24853698.579    -4103735.154 5  -3132753.90449  24853700.5604
  22933778.563    -6920726.301 7  -5285974.41049  22933779.9234
  22617605.720    -8524284.681 7  -6561778.21749  22617605.4384
 95  2  9 18 34  0.0050000  0  5 18 14 19 22 29
  24112979.040    -5456297.837 6  -4194910.43849  24112980.9854
  22089145.509    -4696188.724 7  -3569324.47549  22089146.6574
  24847752.376    -4134978.363 5  -3157099.21549  24847755.6814
  22948717.212    -6842222.845 7  -5224802.89449  22948718.0564
  22618708.337    -8518487.483 7  -6557260.91949  22618708.3254
 95  2  9 18 34 30.0050000  0  5 18 14 19 22 29
  24106741.118    -5489080.799 6  -4220455.57949  24106742.4194
  22104488.181    -4615563.315 7  -3506499.50849  22104489.2124
  24841850.681    -4165991.504 5  -3181265.23149  24841853.4814
  22963780.392    -6763067.401 7  -5163123.33949  22963781.0954
  22619863.423    -8512418.302 7  -6552531.68349  22619863.3884
 95  2  9 18 35  0.0050000  0  5 18 14 19 22 29
  24100524.938    -5521741.777 6  -4245905.68149  24100525.9354
  22119947.478    -4534322.414 7  -3443194.93649  22119948.8134
  24835998.353    -4196749.203 5  -3205232.25049  24836000.5794
  22978967.681    -6683257.714 7  -5100933.97949  22978968.8414
  22621070.595    -8506072.798 7  -6547587.12449  22621070.4894
 95  2  9 18 35 30.0050000  0  5 18 14 19 22 29
  24094334.978    -5554270.021 6  -4271252.38849  24094335.5284
  22135527.876    -4452448.691 7  -3379397.25549  22135528.9784
  24830199.040    -4227224.471 5  -3228979.15849  24830200.7164
  22994279.134    -6602795.801 7  -5038236.39549  22994280.6454
  22622328.579    -8499462.909 7  -6542436.56649  22622328.6494
 95  2  9 18 36  0.0050000  0  5 18 14 19 22 29
  24088172.704    -5586654.068 6  -4296486.70849  24088174.2164
  22151232.173    -4369922.387 7  -3315091.07349  22151233.2394
  24824457.259    -4257396.704 5  -3252489.94549  24824459.2984
  23009713.728    -6521685.342 7  -4975033.45349  23009714.8414
  22623633.329    -8492606.294 7  -6537093.74049  22623633.3174
 95  2  9 18 36 30.0050000  0  5 18 14 19 22 29
  24082041.040    -5618876.772 6  -4321595.24749  24082042.7634
  22167064.142    -4286724.123 7  -3250261.28549  22167065.2314
  24818777.009    -4287249.535 5  -3275751.85749  24818779.2944
  23025271.251    -6439931.101 7  -4911328.85749  23025272.4354
  22624986.907    -8485496.177 7  -6531553.38549  22624986.8254
 95  2  9 18 37  0.0050000  0  5 18 14 19 22 29
  24075942.501    -5650926.359 7  -4346568.91949  24075942.7704
  22183025.040    -4202850.792 7  -3184905.47549  22183026.0244
  24813159.970    -4316766.229 6  -3298751.85449  24813162.6884
  23040950.556    -6357535.211 7  -4847124.27849  23040951.8104
  22626389.079    -8478126.029 7  -6525810.40949  22626389.0674
 95  2  9 18 37 30.0050000  0  5 18 14 19 22 29
  24069878.540    -5682793.279 6  -4371400.34549  24069878.6344
  22199111.642    -4118314.160 7  -3119032.80749  22199112.7084
  24807607.743    -4345942.164 5  -3321486.28449  24807610.4974
  23056752.563    -6274493.865 7  -4782416.74149  23056753.8884
  22627841.907    -8470492.656 7  -6519862.32949  22627841.7674
 95  2  9 18 38  0.0050000  0  5 18 14 19 22 29
  24063847.970    -5714479.661 6  -4396090.96549  24063850.1144
  22215319.899    -4033138.832 7  -3052662.45049  22215321.0484
  24802116.181    -4374799.728 5  -3343972.65949  24802119.3104
  23072676.259    -6190815.040 7  -4717212.47949  23072677.1734
  22629343.626    -8462601.251 7  -6513713.17949  22629343.3804
 95  2  9 18 38 30.0050000  0  5 18 14 19 22 29
  24057856.095    -5745969.952 7  -4420628.80949  24057857.7474
  22231652.306    -3947313.529 7  -2985785.62249  22231653.3254
  24796684.478    -4403341.769 5  -3366213.16649  24796687.2784
  23088725.079    -6106480.528 7  -4651497.28649  23088726.4274
  22630899.196    -8454427.156 7  -6507343.75749  22630898.6344
 95  2  9 18 39  0.0050000  0  5 18 14 19 22 29
  24051896.470    -5777286.178 6  -4445031.09849  24051896.9034
  22248103.587    -3860861.540 7  -2918420.46949  22248104.6064
  24791310.181    -4431581.869 5  -3388218.39349  24791311.7984
  23104896.556    -6021495.863 7  -4585275.46549  23104897.3994
  22632507.954    -8445972.021 7  -6500755.33949  22632507.3214
 95  2  9 18 39 30.0050000  0  5 18 14 19 22 29
  24045969.852    -5808432.432 6  -4469300.87449  24045970.9774
  22264676.063    -3773771.326 7  -2850557.99649  22264677.0244
  24785991.462    -4459534.248 5  -3409999.44249  24785993.5014
  23121192.423    -5935860.261 7  -4518546.44549  23121193.4784
  22634170.071    -8437235.964 7  -6493948.03349  22634169.5564
 95  2  9 18 40  0.0050000  0  5 18 14 19 22 29
  24040078.782    -5839391.739 6  -4493424.96449  24040079.8724
  22281375.845    -3686013.896 7  -2782175.61849  22281377.0404
  24780727.673    -4487191.038 5  -3431550.14249  24780730.6854
  23137614.329    -5849561.281 7  -4451300.48949  23137615.4894
  22635890.149    -8428198.990 7  -6486906.23749  22635889.7744
 95  2  9 18 40 30.0050000  0  5 18 14 19 22 29
  24034221.149    -5870169.157 6  -4517407.34649  24034222.3804
  22298206.251    -3597569.598 7  -2713258.01049  22298207.4234
  24775525.626    -4514533.139 5  -3452855.63249  24775528.8844
  23154161.938    -5762607.148 7  -4383544.03349  23154163.0994
  22637669.845    -8418847.276 7  -6479619.18549  22637669.5754
 95  2  9 18 41  0.0050000  0  5 18 14 19 22 29
  24028399.517    -5900762.315 6  -4541246.17549  24028400.7944
  22315168.032    -3508435.145 7  -2643802.62449  22315169.2514
  24770386.946    -4541537.023 6  -3473897.57749  24770389.0674
  23170833.454    -5674992.443 7  -4315272.85349  23170834.5564
  22639510.110    -8409174.221 7  -6472081.74049  22639509.6184
 95  2  9 18 41 30.0050000  0  5 18 14 19 22 29
  24022615.329    -5931159.330 6  -4564932.14649  24022617.3454
  22332262.524    -3418601.654 7  -2573802.53649  22332263.6734
  24765312.001    -4568207.408 6  -3494679.66449  24765314.1574
  23187633.181    -5586712.893 7  -4246483.61449  23187634.7284
  22641411.610    -8399183.429 7  -6464296.71049  22641411.3414
 95  2  9 18 42  0.0050000  0  5 18 14 19 22 29
  24016868.501    -5961359.512 6  -4588464.68249  24016870.0834
  22349485.290    -3328094.935 7  -2503277.85549  22349486.4974
  24760301.399    -4594536.664 5  -3515195.92449  24760303.5564
  23204557.212    -5497775.992 7  -4177182.14549  23204558.2674
  22643373.024    -8388877.277 7  -6456265.94749  22643372.6734
 95  2  9 18 42 30.0050000  0  5 18 14 19 22 29
  24011161.360    -5991354.058 6  -4611837.11049  24011160.8924
  22366834.845    -3236923.376 7  -2432235.11249  22366836.1694
  24755358.485    -4620509.788 5  -3535434.69149  24755360.6424
  23221606.048    -5408177.069 7  -4107364.82049  23221607.2904
  22645395.899    -8378245.693 7  -6447981.58749  22645395.5014
 95  2  9 18 43  0.0050000  0  5 18 14 19 22 29
  24005496.142    -6021120.647 6  -4635031.80349  24005498.1924
  22384308.813    -3145097.614 7  -2360682.59849  22384310.1494
  24750483.118    -4646127.814 5  -3555396.75749  24750485.6854
  23238788.079    -5317889.522 7  -4037010.90049  23238788.9934
  22647481.798    -8367284.949 7  -6439440.74449  22647481.3764
 95  2  9 18 43 30.0060000  0  5 18 14 19 22 29
  23999876.607    -6050653.400 6  -4658044.25849  23999877.7914
  22401906.576    -3052621.395 7  -2288623.23949  22401907.5494
  24745675.279    -4671393.112 5  -3575083.96649  24745678.2564
  23256101.459    -5226908.987 7  -3966116.98949  23256102.8534
  22649630.654    -8355991.637 7  -6430640.76049  22649630.3734
 95  2  9 18 44  0.0060000  0  5 18 14 19 22 29
  23994303.771    -6079938.894 6  -4680864.19249  23994302.8464
  22419625.592    -2959506.516 7  -2216066.23149  22419626.6234
  24740936.076    -4696296.613 5  -3594489.26249  24740939.0884
  23273544.834    -5135243.633 7  -3894689.45249  23273546.1824
  22651844.092    -8344357.927 7  -6421575.53249  22651843.6004
 95  2  9 18 44 30.0060000  0  5 18 14 19 22 29
  23988777.389    -6108977.750 6  -4703491.84049  23988779.2994
  22437467.873    -2865745.566 7  -2143005.78749  22437469.0924
  24736265.318    -4720844.112 5  -3613617.15249  24736268.3774
  23291118.779    -5042889.866 7  -3822725.49349  23291119.9044
  22654123.178    -8332383.474 7  -6412244.78649  22654122.7794
 95  2  9 18 45  0.0060000  0  5 18 14 19 22 29
  23983299.225    -6137769.713 7  -4725927.08949  23983300.2214
  22455433.435    -2771335.697 7  -2069439.69449  22455434.6544
  24731659.092    -4745052.925 6  -3632481.12449  24731661.7284
  23308823.904    -4949847.965 7  -3750225.31349  23308825.0414
  22656465.584    -8320073.455 7  -6402652.55849  22656465.3034
 95  2  9 18 45 30.0060000  0  5 18 14 19 22 29
  23977866.771    -6166313.923 6  -4748169.37349  23977866.6314
  22473524.904    -2676265.108 7  -1995358.75049  22473526.3104
  24727117.795    -4768916.750 6  -3651076.27149  24727120.1154
  23326658.334    -4856131.121 7  -3677199.21149  23326659.2604
  22658875.053    -8307413.822 7  -6392787.90449  22658874.9824
 95  2  9 18 46  0.0060000  0  5 18 14 19 22 29
  23972483.412    -6194604.562 7  -4770213.99949  23972484.7484
  22491745.553    -2580516.169 7  -1920749.21649  22491746.8424
  24722642.451    -4792433.052 6  -3669400.63749  24722644.5964
  23344620.060    -4761740.916 7  -3603648.41449  23344621.0684
  22661348.990    -8294410.343 7  -6382655.32149  22661348.8854
 95  2  9 18 46 30.0060000  0  5 18 14 19 22 29
  23967146.990    -6222651.230 7  -4792068.51449  23967147.4944
  22510096.029    -2484084.174 7  -1845607.43749  22510097.3074
  24718233.889    -4815603.155 6  -3687455.24249  24718236.5494
  23362708.217    -4666685.237 7  -3529579.06549  23362709.8224
  22663888.178    -8281068.353 7  -6372258.95849  22663888.1544
 95  2  9 18 47  0.0060000  0  5 18 14 19 22 29
  23961854.561    -6250459.121 7  -4813737.04649  23961854.5254
  22528576.365    -2386967.885 7  -1769932.43349  22528577.5254
  24713890.185    -4838426.537 6  -3705239.65949  24713893.1624
  23380923.811    -4570965.308 7  -3454992.11849  23380924.8074
  22666492.475    -8267381.996 7  -6361594.26449  22666492.2754
 95  2  9 18 47 30.0060000  0  5 18 14 19 22 29
  23956608.803    -6278026.090 7  -4835217.76049  23956610.7254
  22547188.412    -2289160.404 7  -1693718.83949  22547189.5614
  24709618.920    -4860873.676 6  -3722730.92149  24709622.1434
  23399265.678    -4474577.927 7  -3379885.08249  23399266.8264
  22669161.436    -8253356.203 7  -6350665.07549  22669161.1194
 95  2  9 18 48  0.0060000  0  5 18 14 19 22 29
  23951412.084    -6305337.405 7  -4856499.25949  23951413.3034
  22565933.803    -2190655.996 7  -1616962.18549  22565935.0214
  24705422.654    -4882925.311 6  -3739913.99349  24705425.6544
  23417739.217    -4377498.059 7  -3304238.43849  23417740.6584
  22671897.857    -8238977.386 7  -6339460.80049  22671897.5184
 95  2  9 18 48 30.0060000  0  5 18 14 19 22 29
  23946265.350    -6332381.149 7  -4877572.36449  23946265.3034
  22584809.904    -2091460.577 7  -1539667.08649  22584810.9944
  24701301.365    -4904578.985 6  -3756786.96649  24701303.7094
  23436346.334    -4279715.573 7  -3228044.31149  23436347.9044
  22674708.021    -8224207.980 7  -6327952.17449  22674707.6934
 95  2  9 18 49  0.0060000  0  5 18 14 19 22 29
  23941171.873    -6359146.844 6  -4898428.70849  23941173.9944
  22603816.646    -1991578.590 7  -1461837.00049  22603817.6194
  24697255.779    -4925837.036 6  -3773351.65549  24697257.8774
  23455086.209    -4181235.334 7  -3151306.45149  23455086.9474
  22677593.935    -8209043.145 7  -6316135.41449  22677593.8774
 95  2  9 18 49 30.0060000  0  5 18 14 19 22 29
  23936133.209    -6385626.717 7  -4919062.34049  23936134.7794
  22622953.006    -1891016.329 7  -1383476.82249  22622954.1194
  24693285.435    -4946705.658 6  -3789612.89949  24693287.6624
  23473956.248    -4082072.656 7  -3074036.82749  23473957.0924
  22680555.154    -8193484.145 7  -6304011.51649  22680554.9904
 95  2  9 18 50  0.0060000  0  5 18 14 19 22 29
  23931149.709    -6411814.661 6  -4939468.53449  23931150.2834
  22642218.678    -1789774.075 7  -1304586.78249  22642219.9434
  24689385.068    -4967200.225 6  -3805582.64049  24689387.9514
  23492954.826    -3982237.415 7  -2996243.14849  23492955.6234
  22683595.451    -8177505.128 7  -6291560.32849  22683595.3464
 95  2  9 18 50 30.0060000  0  5 18 14 19 22 29
  23926217.990    -6437726.929 6  -4959659.90149  23926219.6314
  22661611.529    -1687864.580 7  -1225176.81649  22661612.8774
  24685554.514    -4987334.182 6  -3821271.41749  24685555.8854
  23512074.061    -3881763.679 7  -2917951.92649  23512075.5964
  22686712.092    -8161128.183 7  -6278799.07649  22686711.9514
 95  2  9 18 51  0.0060000  0  5 18 14 19 22 29
  23921339.740    -6463367.185 6  -4979639.26649  23921341.2644
  22681132.154    -1585283.809 7  -1145243.77949  22681133.3504
  24681793.279    -5007098.813 6  -3836672.41149  24681794.6154
  23531315.389    -3780648.259 7  -2839160.70049  23531316.5254
  22689900.451    -8144372.718 7  -6265742.87449  22689900.3104
 95  2  9 18 51 30.0060000  0  5 18 14 19 22 29
  23916511.123    -6488741.772 6  -4999411.67949  23916512.1664
  22700780.803    -1482029.383 7  -1064785.81149  22700782.0924
  24678101.498    -5026497.350 6  -3851788.14449  24678103.6074
  23550681.771    -3678880.916 7  -2759861.50549  23550683.1894
  22693163.631    -8127226.237 7  -6252381.98949  22693163.3504
 95  2  9 18 52  0.0060000  0  5 18 14 19 22 29
  23911731.092    -6513860.962 6  -5018985.01449  23911732.3224
  22720556.818    -1378105.708 7   -983806.35149  22720557.9674
  24674477.482    -5045544.942 6  -3866630.38049  24674480.9164
  23570171.490    -3576459.648 7  -2680052.73049  23570172.9784
  22696501.029    -8109685.028 7  -6238713.51249  22696500.7014
 95  2  9 18 52 30.0060000  0  5 18 14 19 22 29
  23907000.451    -6538720.623 6  -5038356.22049  23907001.2604
  22740459.561    -1273515.572 7   -902307.57749  22740460.9554
  24670917.943    -5064250.497 6  -3881206.11449  24670919.4674
  23589786.889    -3473374.729 7  -2599726.82249  23589788.2714
  22699912.826    -8091758.957 7  -6224745.14849  22699912.7444
 95  2  9 18 53  0.0060000  0  5 18 14 19 22 29
  23902318.756    -6563320.216 6  -5057524.66149  23902321.4864
  22760491.529    -1168246.967 7   -820280.12049  22760492.6074
  24667421.928    -5082619.629 6  -3895519.71049  24667423.5104
  23609536.037    -3369602.283 7  -2518865.21649  23609537.0574
  22703399.709    -8073432.992 7  -6210465.17549  22703399.5924
 95  2  9 18 53 30.0060000  0  5 18 14 19 22 29
  23897687.951    -6587658.182 7  -5076489.33049  23897688.3614
  22780653.131    -1062297.248 7   -737721.92849  22780654.2914
  24663991.420    -5100645.956 6  -3909566.17449  24663994.0104
  23629410.459    -3265157.213 7  -2437479.46149  23629412.2174
  22706964.092    -8054700.172 7  -6195868.17449  22706963.8694
 95  2  9 18 54  0.0060000  0  6 18 14 28 19 22 29
  23893110.178    -6611713.520 7  -5095233.73749  23893111.3034
  22800945.771     -955660.883 7   -654628.68549  22800946.9434
  26747375.654      -17402.79113
  24660633.896    -5118289.379 6  -3923314.25349  24660636.2054
  23649414.904    -3160029.485 7  -2355561.76749  23649416.3574
  22710605.764    -8035564.508 7  -6180957.27449  22710605.6464
 95  2  9 18 54 30.0060000  0  6 18 14 28 19 22 29
  23888585.850    -6635489.836 7  -5113760.72449  23888586.8814
  22821366.373     -848347.011 7   -571007.51949  22821367.6504
  26743093.060      -39905.700 3
  24657352.435    -5135530.241 6  -3936748.65749  24657354.3344
  23669548.685    -3054228.356 7  -2273119.36149  23669549.3534
  22714320.271    -8016045.062 7  -6165747.32649  22714320.1314
 95  2  9 18 55  0.0060000  0  6 18 14 28 19 22 29
  23884113.529    -6658990.678 7  -5132073.03349  23884114.5494
  22841915.545     -740360.460 7   -486862.18549  22841916.7874
  26738854.209      -62178.403 3    -12710.14257  26738858.6394
  24654151.451    -5152354.286 6  -3949858.29349  24654153.1974
  23689807.693    -2947767.910 7  -2190163.18649  23689809.2754
  22718107.834    -7996140.368 7  -6150237.18049  22718107.5064
 95  2  9 18 55 30.0060000  0  6 18 14 28 19 22 29
  23879695.014    -6682209.658 7  -5150165.76649  23879695.7874
  22862587.576     -631731.289 7   -402216.11949  22862588.7834
  26734658.826      -84225.126 3    -29889.21948  26734663.7834
  24651027.943    -5168769.266 6  -3962649.15149  24651030.2754
  23710187.100    -2840671.535 7  -2106711.48149  23710188.1194
  22721965.271    -7975870.637 7  -6134442.58649  22721964.8854
 95  2  9 18 56  0.0060000  0  6 18 14 28 19 22 29
  23875331.279    -6705142.042 6  -5168035.13549  23875332.3574
  22883378.928     -522469.669 7   -317077.23149  22883380.4514
  26730509.154     -106035.296 4    -46884.00747  26730512.5644
  24647981.373    -5184782.929 6  -3975127.29649  24647983.4824
  23730691.787    -2732919.619 7  -2022748.95449  23730693.0534
  22725892.350    -7955233.835 7  -6118361.95549  22725892.0454
 95  2  9 18 56 30.0060000  0  6 18 14 28 19 22 29
  23871018.779    -6727806.210 7  -5185695.52749  23871019.8814
  22904287.287     -412595.366 7   -231460.91949  22904288.6934
  26726402.061     -127617.888 4    -63701.54547  26726405.1894
  24645001.693    -5200437.759 6  -3987325.83349  24645003.4864
  23751318.803    -2624528.233 7  -1938288.16949  23751319.4824
  22729889.107    -7934228.894 7  -6101994.47549  22729888.9204
 95  2  9 18 57  0.0060000  0  6 18 14 28 19 22 29
  23866756.834    -6750202.470 7  -5203147.12249  23866757.0454
  22925310.076     -302121.121 7   -145377.12449  22925311.5764
  26722336.654     -148976.919 3    -80344.85249  26722339.8774
  24642088.146    -5215748.265 6  -3999256.07049  24642090.1274
  23772066.100    -2515497.226 7  -1853328.95649  23772068.0574
  22733956.420    -7912856.617 7  -6085340.74849  22733956.0804
 95  2  9 18 57 30.0060000  0  6 18 14 28 19 22 29
  23862545.740    -6772326.568 6  -5220386.70049  23862546.6314
  22946447.951     -191040.517 7    -58820.84449  22946449.3224
  26718314.967     -170114.335 4    -96815.49448  26718317.0644
  24639240.740    -5230711.892 6  -4010916.00249  24639243.0844
  23792936.631    -2405824.484 7  -1767869.70349  23792937.4164
  22738093.936    -7891114.797 7  -6068399.06549  22738093.6894
 95  2  9 18 58  0.0060000  0  6 18 14 28 19 22 29
  23858388.787    -6794177.365 7  -5237413.24649  23858389.8774
  22967705.170      -79333.058 7     28223.88849  22967706.4594
  26714335.717     -191025.424 3   -113109.76148  26714338.4594
  24636461.514    -5245315.877 6  -4022295.70449  24636463.8574
  23813928.178    -2295513.587 7  -1681913.19049  23813929.8894
  22742304.646    -7868987.624 7  -6051157.12249  22742304.2834
 95  2  9 18 58 30.0060000  0  6 18 14 28 19 22 29
  23854283.225    -6815747.762 7  -5254221.34949  23854284.2564
  22989084.350       33012.837 7    115766.10049  22989085.5334
  26710399.303     -211713.766 3   -129230.49349  26710401.2364
  24633751.670    -5259556.412 6  -4033392.21149  24633752.9824
  23835035.725    -2184591.286 7  -1595480.25049  23835036.8384
  22746588.264    -7846474.803 7  -6033614.66449  22746588.0294
 95  2  9 18 59  0.0060000  0  6 18 14 28 19 22 29
  23850235.998    -6837015.581 6  -5270793.65649  23850237.5924
  23010589.279      146023.007 7    203825.93649  23010590.2874
  26706506.545     -232168.453 3   -145169.19148  26706509.4754
  24631114.529    -5273413.916 6  -4044190.26749  24631115.5494
  23856259.357    -2073063.250 7  -1508575.31749  23856260.8574
  22750948.068    -7823567.040 7  -6015764.45949  22750948.0454
 95  2  9 18 59 30.0060000  0  6 18 14 28 19 22 29
  23846248.420    -6857977.223 7  -5287127.37849  23846248.7254
  23032223.740      259713.195 7    292415.65249  23032224.9124
  26702660.076     -252381.146 3   -160919.31447  26702662.3964
  24628550.225    -5286888.607 6  -4054689.99049  24628553.0724
  23877593.943    -1960944.128 7  -1421209.78149  23877595.4674
  22755384.436    -7800250.450 7  -5997595.69549  22755384.3304
 95  2  9 19  0  0.0060000  0  6 18 14 28 19 22 29
  23842314.529    -6878641.256 7  -5303229.22249  23842316.1354
  23053984.311      374065.892 7    381521.61349  23053985.5534
  26698859.592     -272350.097 3   -176479.52847  26698863.5294
  24626056.428    -5299992.092 6  -4064900.46549  24626059.1584
  23899040.287    -1848247.580 7  -1333394.31749  23899040.9554
  22759900.451    -7776521.252 7  -5979105.41249  22759900.2284
 95  2  9 19  0 30.0060000  0  6 18 14 28 19 22 29
  23838439.811    -6899012.745 7  -5319103.06449  23838440.0574
  23075868.857      489069.303 7    471134.62249  23075870.1354
  26695106.631     -292071.390 3   -191846.78346  26695111.0144
  24623630.342    -5312740.342 6  -4074834.15049  24623633.1194
  23920595.459    -1734973.332 7  -1245128.70149  23920597.2284
  22764495.662    -7752373.135 7  -5960288.69749  22764495.3464
 95  2  9 19  1  0.0070000  0  6 18 14 28 19 22 29
  23834614.472    -6919107.208 7  -5334761.11349  23834615.5734
  23097875.097      604714.166 7    561247.47249  23097876.6204
  26691401.581     -311546.175 4   -207021.87647  26691404.2764
  24621270.862    -5325143.637 6  -4084499.02449  24621273.5114
  23942263.573    -1621104.603 7  -1156399.82649  23942264.4874
  22769171.019    -7727803.712 7  -5941143.69649  22769170.5974
 95  2  9 19  1 30.0070000  0  6 18 14 28 19 22 29
  23830845.925    -6938915.590 7  -5350196.19749  23830846.5114
  23119999.792      720979.894 7    651844.11449  23120001.3864
  26687745.097     -330761.779 5   -221995.04949  26687747.9794
  24618978.604    -5337188.511 6  -4093884.61349  24618980.5614
  23964048.620    -1506625.267 7  -1067195.17149  23964049.8044
  22773927.792    -7702806.763 7  -5921665.56149  22773927.3824
 95  2  9 19  2  0.0070000  0  6 18 14 28 19 22 29
  23827132.237    -6958429.334 7  -5365401.69049  23827133.4334
  23142240.456      837854.466 7    742915.17749  23142241.8624
  26684137.933     -349716.248 5   -236764.71649  26684141.2494
  24616754.089    -5348875.700 6  -4102991.49149  24616754.9914
  23985954.604    -1391509.429 7   -977494.53549  23985955.6364
  22778764.526    -7677390.016 7  -5901860.30749  22778764.1984
 95  2  9 19  2 30.0070000  0  6 18 14 28 19 22 29
  23823475.753    -6977643.832 7  -5380374.05449  23823475.5074
  23164596.315      955335.368 7    834458.70449  23164597.6514
  26680580.612     -368410.343 4   -251331.49849  26680583.0504
  24614598.917    -5360206.397 6  -4111820.61049  24614600.0894
  24007983.862    -1275740.831 7   -887285.25049  24007985.2694
  22783676.940    -7651573.068 7  -5881743.20849  22783676.8944
 95  2  9 19  3  0.0070000  0  6 18 14 28 19 22 29
  23819878.933    -6996546.497 7  -5395103.36349  23819880.2924
  23187067.800     1073422.784 7    926474.84049  23187069.1594
  26677073.612     -386840.245 4   -265692.39149  26677079.4724
  24612512.925    -5371166.547 6  -4120360.96549  24612514.8474
  24030139.542    -1159314.278 7   -796563.27649  24030140.7494
  22788664.722    -7625363.257 7  -5861319.97449  22788664.6864
 95  2  9 19  3 30.0070000  0  6 18 14 28 19 22 29
  23816341.159    -7015134.477 7  -5409587.50949  23816341.9214
  23209652.589     1192105.571 7   1018954.89649  23209653.8904
  26673615.644     -405009.105 5   -279849.91449  26673619.0544
  24610497.284    -5381760.266 6  -4128615.77649  24610498.1754
  24052415.964    -1042250.325 7   -705344.63049  24052417.6514
  22793724.354    -7598773.801 7  -5840600.92149  22793724.2024
 95  2  9 19  4  0.0070000  0  6 18 14 28 19 22 29
  23812860.620    -7033426.594 7  -5423841.10149  23812861.6514
  23232351.050     1311389.005 7   1111902.99149  23232352.5154
  26670207.237     -422919.420 5   -293806.00249  26670209.1944
  24608547.433    -5392004.957 6  -4136598.64549  24608548.0654
  24074810.354     -924563.970 7   -613640.99349  24074811.7374
  22798855.214    -7571813.713 7  -5819593.06249  22798855.2024
 95  2  9 19  4 30.0070000  0  6 18 14 28 19 22 29
  23809432.394    -7051440.530 7  -5437877.92049  23809433.5304
  23255164.112     1431270.891 7   1205317.41349  23255165.3664
  26666846.714     -440578.457 4   -307566.23747  26666852.9604
  24606662.769    -5401902.669 6  -4144311.11249  24606664.9604
  24097319.253     -806281.856 7   -521473.11749  24097319.5694
  22804056.464    -7544480.140 7  -5798294.17949  22804056.0194
 95  2  9 19  5  0.0070000  0  6 18 14 28 19 22 29
  23806055.089    -7069188.842 7  -5451707.74149  23806056.3084
  23278088.683     1551741.938 7   1299190.91049  23278090.1834
  26663533.487     -457991.678 5   -321134.96349  26663536.5814
  24604845.245    -5411458.195 6  -4151756.94049  24604846.8974
  24119934.745     -687434.456 7   -428864.77449  24119936.5614
  22809330.237    -7516768.450 7  -5776700.66049  22809329.9214
 95  2  9 19  5 30.0070000  0  6 18 14 28 19 22 29
  23802724.565    -7086690.417 7  -5465345.33849  23802725.0464
  23301122.331     1672784.155 7   1393509.48249  23301123.9604
  26660265.479     -475166.664 5   -334518.04048  26660268.9604
  24603088.323    -5420688.004 6  -4158949.00049  24603089.6124
  24142655.519     -568039.035 7   -335829.39649  24142656.5264
  22814673.987    -7488684.872 7  -5754817.36249  22814673.7294
 95  2  9 19  6  0.0070000  0  6 18 14 28 19 22 29
  23799440.003    -7103955.207 7  -5478798.37349  23799440.9874
  23324261.222     1794379.864 7   1488259.34849  23324262.8974
  26657041.206     -492107.294 5   -347718.53649  26657044.0774
  24601394.698    -5429591.728 6  -4165886.93849  24601397.0544
  24165477.706     -448106.243 7   -242375.30449  24165479.0194
  22820089.550    -7460225.440 7  -5732641.18649  22820089.3394
 95  2  9 19  6 30.0070000  0  6 18 14 28 19 22 29
  23796200.472    -7120973.531 7  -5492059.40849  23796202.2294
  23347502.745     1916515.247 7   1583429.74249  23347504.6084
  26653861.440     -508817.415 5   -360739.33849  26653865.0854
  24599764.128    -5438160.847 6  -4172564.15249  24599765.9334
  24188400.065     -327650.984 7   -148514.10249  24188401.1084
  22825577.526    -7431385.780 7  -5710168.73549  22825577.3044
 95  2  9 19  7  0.0070000  0  6 18 14 28 19 22 29
  23793007.354    -7137757.048 7  -5505137.46949  23793008.0934
  23370841.870     2039162.166 7   1678998.73949  23370843.5694
  26650722.659     -525313.274 5   -373593.24749  26650723.4334
  24598191.847    -5446423.214 6  -4179002.33649  24598193.3004
  24211416.222     -206701.122 7    -54267.47649  24211417.2294
  22831132.956    -7402189.933 7  -5687418.73349  22831132.6984
 95  2  9 19  7 30.0070000  0  6 18 14 28 19 22 29
  23789860.073    -7154295.283 7  -5518024.37049  23789861.4564
  23394277.964     2162320.691 7   1774966.38849  23394279.7694
  26647625.464     -541589.911 5   -386276.35649  26647628.9564
  24596678.339    -5454377.650 6  -4185200.59249  24596679.8044
  24234526.737      -85254.705 7     40366.07149  24234527.8744
  22836757.433    -7372636.550 7  -5664390.12949  22836757.0584
 95  2  9 19  8  0.0070000  0  6 18 14 28 19 22 29
  23786759.933    -7170584.473 7  -5530717.24449  23786761.2334
  23417813.644     2286001.080 7   1871340.67849  23417815.4604
  26644569.417     -557649.367 4   -398790.28649  26644573.5194
  24595224.026    -5462016.079 6  -4191152.59849  24595225.8544
  24257728.972       36673.585 7    135375.10249  24257729.9684
  22842447.378    -7342733.830 7  -5641089.32549  22842447.0734
 95  2  9 19  8 30.0070000  0  6 18 14 28 19 22 29
  23783705.323    -7186639.219 7  -5543227.43849  23783706.0154
  23441448.315     2410200.323 7   1968119.27249  23441450.0614
  26641550.901     -573508.565 3   -411148.16547  26641552.6124
  24593823.448    -5469376.915 6  -4196888.30549  24593825.5584
  24281018.698      159062.373 7    230742.95549  24281020.1404
  22848201.815    -7312494.864 7  -5617526.50149  22848201.6634
 95  2  9 19  9  0.0070000  0  6 18 14 28 19 22 29
  23780691.901    -7202474.716 7  -5555566.73349  23780693.3904
  23465179.448     2534907.622 7   2065293.75649  23465180.9254
  26638569.706       -1037.88014   -423354.82049  26638573.4684
  24592469.667    -5476489.326 6  -4202430.42549  24592472.5504
  24304395.565      281908.811 7    326467.42649  24304396.9954
  22854018.659    -7281925.953 7  -5593706.57449  22854018.2844
 95  2  9 19  9 30.0070000  0  6 18 14 28 19 22 29
  23777716.370    -7218108.815 7  -5567749.16949  23777717.3194
  23489006.323     2660119.779 7   2162861.63349  23489007.8824
  26635624.519      -16519.970 4   -435418.76447  26635628.3974
  24591161.933    -5483364.316 6  -4207787.53049  24591164.6044
  24327859.636      405213.152 7    422548.70849  24327861.8154
  22859897.284    -7251034.247 7  -5569635.12449  22859897.0734
 95  2  9 19 10  0.0070000  0  6 18 14 28 19 22 29
  23774776.815    -7233554.737 7  -5579784.89949  23774778.6674
  23512927.979     2785827.602 7   2260815.74549  23512929.6444
  26632711.597      -31825.762 3   -447345.42348  26632713.2844
  24589895.714    -5490017.955 6  -4212972.18949  24589897.0504
  24351410.550      528975.615 7    518986.95949  24351411.4994
  22865837.722    -7219817.907 7  -5545310.70749  22865837.3704
 95  2  9 19 10 30.0070000  0  6 18 14 28 19 22 29
  23771873.894    -7248812.018 7  -5591673.71949  23771874.3974
  23536938.542     2912004.319 7   2359135.22949  23536940.2294
  26629831.729      -46956.599 4   -459135.61849  26629834.0854
  24588667.253    -5496475.715 6  -4218004.17749  24588669.9484
  24375052.573      653210.483 7    615793.32349  24375054.0264
  22871841.636    -7188269.018 7  -5520727.15749  22871841.2494
 95  2  9 19 11  0.0070000  0  6 18 14 28 19 22 29
  23769010.769    -7263859.259 7  -5603398.76249  23769012.3864
  23561038.839     3038651.955 7   2457821.66549  23561040.7844
  26626990.058      -61894.063 5   -470775.27246  26626996.0934
  24587481.683    -5502705.262 6  -4222858.36649  24587482.9254
  24398785.503      777933.098 7    712979.77249  24398786.8274
  22877906.769    -7156393.831 7  -5495889.36149  22877906.3354
 95  2  9 19 11 30.0070000  0  6 18 14 28 19 22 29
  23766186.690    -7278697.308 7  -5614960.92449  23766187.2064
  23585226.597     3165759.335 7   2556866.33149  23585228.6834
  26624183.800      -76640.705 5   -482266.15847  26624186.4134
  24586341.620    -5508695.799 6  -4227526.29549  24586343.3664
  24422608.511      903122.228 7    810529.71349  24422610.4684
  22884031.378    -7124210.057 7  -5470811.09649  22884031.1084
 95  2  9 19 12  0.0070000  0  6 18 14 28 19 22 29
  23763405.464    -7293316.854 7  -5626352.74249  23763405.7104
  23609499.058     3293313.095 7   2656258.82949  23609500.9914
  26621414.925      -91190.781 5   -493603.88549  26621416.0504
  24585247.300    -5514447.075 6  -4232007.78849  24585249.3974
  24446516.839     1028760.417 7    908429.58849  24446518.2334
  22890214.433    -7091716.373 7  -5445491.34349  22890214.4444
 95  2  9 19 12 30.0070000  0  6 18 14 28 19 22 29
  23760662.167    -7307729.675 7  -5637583.51249  23760662.8354
  23633853.386     3421296.692 7   2755986.27049  23633855.4134
  26618683.769     -105545.069 5   -504789.19949  26618684.0734
  24584194.823    -5519971.271 6  -4236312.33349  24584196.3584
  24470504.886     1154821.041 7   1006658.62149  24470506.7724
  22896453.034    -7058932.012 7  -5419945.07849  22896452.6714
 95  2  9 19 13  0.0070000  0  6 18 14 28 19 22 29
  23757955.729    -7321952.872 7  -5648666.52949  23757955.9294
  23658291.800     3549719.914 7   2856056.26849  23658293.8394
  26615990.034     -119698.222 5
  24583191.370    -5525249.800 6  -4240425.46049  24583192.9174
  24494571.401     1281289.892 7   1105205.75949  24494572.9954
  22902745.050    -7025869.648 7  -5394182.19349  22902744.7804
 95  2  9 19 13 30.0070000  0  6 18 14 28 19 22 29
  23755284.487    -7335991.200 7  -5659605.47649  23755285.3544
  23682814.784     3678588.428 7   2956473.25349  23682816.9294
  26613336.917     -133638.517 5     -3241.75357  26613339.6594
  24582233.401    -5530281.862 6  -4244346.51249  24582235.3584
  24518717.519     1408180.043 6   1204081.19249  24518718.9604
  22909095.511    -6992497.923 7  -5368178.24849  22909095.1474
 95  2  9 19 14  0.0070000  0  6 18 14 28 19 22 29
  23752648.222    -7349843.319 7  -5670399.35649  23752648.3624
  23707419.933     3807890.121 7   3057227.78549  23707421.9134
  26610725.073     -147363.668 5    -13936.59149  26610727.4174
  24581320.081    -5535082.513 6  -4248087.26849  24581322.1204
  24542947.300     1535504.529 7   1303295.04049  24542948.8944
  22915506.526    -6958806.730 7  -5341925.36249  22915506.2224
 95  2  9 19 14 30.0070000  0  6 18 14 28 19 22 29
  23750049.089    -7363503.802 7  -5681043.86449  23750050.0264
  23732109.987     3937637.538 7   3158329.63249  23732112.2724
  26608156.011     -160865.668 5    -24457.54049  26608157.3004
  24580452.339    -5539641.885 6  -4251639.99149  24580455.0584
  24567262.222     1663281.978 6   1402861.86649  24567263.2884
  22921977.511    -6924799.631 7  -5315426.31649  22921977.3474
 95  2  9 19 15  0.0070000  0  6 18 14 28 19 22 29
  23747489.987    -7376951.180 7  -5691522.32849  23747490.3744
  23756886.815     4067838.781 7   3259785.11049  23756888.6554
  26605628.604     -174146.395 5    -34806.00447  26605630.4094
  24579631.300    -5543954.677 6  -4255000.59049  24579633.7964
  24591664.651     1791518.629 6   1502786.51149  24591666.5034
  22928511.003    -6890466.103 7  -5288672.91949  22928511.0504
 95  2  9 19 15 30.0070000  0  6 18 14 28 19 22 29
  23744977.745    -7390148.572 7  -5701806.00149  23744979.9484
  23781749.401     4198493.926 7   3361594.27549  23781751.2654
  26603145.440     -187194.378 5    -44973.12649  26603148.8744
  24578856.808    -5548027.725 6  -4258174.36249  24578859.5154
  24616155.308     1920213.280 7   1603068.01749  24616156.6794
  22935110.511    -6855784.536 7  -5261648.32049  22935110.5224
 95  2  9 19 16  0.0070000  0  6 18 14 28 19 22 29
  23742518.175    -7403078.617 7  -5711881.35149  23742518.7724
  23806699.808     4329607.681 7   3463760.78749  23806701.6474
  26600707.628     -200006.840 5    -54956.72349  26600711.3904
  24578127.573    -5551857.802 6  -4261158.80549  24578129.8474
  24640728.472     2049353.036 6   1703696.38249  24640729.9484
  22941774.886    -6820764.791 7  -5234360.20449  22941774.7334
 95  2  9 19 16 30.0080000  0  6 18 14 28 19 22 29
  23740108.180    -7415743.570 7  -5721750.10349  23740109.5744
  23831739.992     4461194.216 7   3566295.70149  23831741.6094
  26598313.477     -212585.133 5    -64757.67649  26598314.9064
  24577448.125    -5555430.625 6  -4263942.79449  24577450.3404
  24665387.016     2178928.697 7   1804664.40049  24665388.7854
  22948502.461    -6785411.624 7  -5206812.28249  22948502.2624
 95  2  9 19 17  0.0080000  0  6 18 14 28 19 22 29
  23737750.180    -7428133.646 7  -5731404.71049  23737751.3164
  23856867.070     4593237.164 7   3669186.26649  23856869.0044
  26595966.109     -224919.832 5    -74369.10049  26595969.8124
  24576819.945    -5558731.815 6  -4266515.12549  24576821.7734
  24690124.055     2308922.305 7   1905958.09749  24690124.9454
  22955296.930    -6749705.702 7  -5178989.49449  22955296.7424
 95  2  9 19 17 30.0080000  0  6 18 14 28 19 22 29
  23735441.609    -7440265.876 7  -5740858.37649  23735442.0314
  23882079.156     4725728.297 7   3772426.06749  23882080.9024
  26593666.875     -237006.962 5    -83787.62949  26593671.1174
  24576245.758    -5561749.637 6  -4268866.65249  24576247.3054
  24714939.016     2439329.839 7   2007574.36449  24714940.0474
  22962158.875    -6713645.681 7  -5150890.77549  22962158.6524
 95  2  9 19 18  0.0080000  0  6 18 14 28 19 22 29
  23733179.219    -7452157.873 7  -5750124.86449  23733179.4764
  23907377.984     4858673.490 7   3876019.68249  23907379.7074
  26591414.844     -248841.309 5    -93009.16946  26591416.7664
  24575729.930    -5564458.581 6  -4270977.49049  24575731.5944
  24739837.023     2570166.183 7   2109524.72249  24739838.8984
  22969088.367    -6677231.920 7  -5122516.41849  22969088.3324
 95  2  9 19 18 30.0080000  0  6 18 14 28 19 22 29
  23730959.680    -7463815.065 7  -5759208.39049  23730960.2894
  23932762.180     4992069.155 7   3979964.31449  23932764.3124
  26589211.062     -260417.308 5   -102029.21546  26589213.7694
  24575273.508    -5566855.567 6  -4272845.24049  24575275.3834
  24764816.312     2701432.178 7   2211809.89149  24764817.7544
  22976088.437    -6640447.965 7  -5093853.58749  22976088.3674
 95  2  9 19 19  0.0080000  0  7 18 14 28 19 31 22 29
  23728784.797    -7475248.198 7  -5768117.33749  23728785.2424
  23958230.312     5125905.000 7   4084251.94649  23958232.3164
  26587058.055     -271732.223 5   -110845.91449  26587060.4804
  24574873.820    -5568955.934 6  -4274481.85949  24574875.8124
  27067343.172       -5580.02413
  24789875.828     2833122.751 7   2314425.90849  24789876.3554
  22983158.476    -6603291.310 7  -5064900.34949  22983158.3594
 95  2  9 19 19 30.0080000  0  7 18 14 28 19 31 22 29
  23726652.672    -7486455.521 7  -5776850.29849  23726653.1294
  23983781.852     5260180.238 7   4188881.95049  23983784.1374
  26584954.476     -282785.909 5   -119459.11248  26584957.2074
  24574526.062    -5570782.265 6  -4275904.95349  24574527.8444
  27060971.898      -39063.430 3
  24815015.851     2965241.001 6   2417375.16849  24815017.2464
  22990297.984    -6565776.034 7  -5035667.66649  22990297.8444
 95  2  9 19 20  0.0080000  0  7 18 14 28 19 31 22 29
  23724565.734    -7497419.499 7  -5785393.64949  23724566.7774
  24009419.258     5394903.144 7   4293860.79649  24009421.4614
  26582901.641     -293570.852 5   -127862.89149  26582904.7814
  24574227.625    -5572351.991 6  -4277128.08249  24574229.7694
  27054601.062      -72539.952 2     -3477.19052  27054604.8484
  24840241.008     3097789.364 7   2520659.55749  24840242.2034
  22997504.398    -6527904.583 7  -5006157.44949  22997504.2814
 95  2  9 19 20 30.0080000  0  7 18 14 28 19 31 22 29
  23722527.805    -7508123.754 7  -5793734.62749  23722528.7074
  24035139.617     5530065.368 7   4399181.95349  24035141.9964
  26580901.086     -304087.644 5   -136057.74349  26580902.9734
  24573972.109    -5573693.578 6  -4278173.45649  24573973.6334
  27048229.711     -106019.553 2    -29564.97446  27048235.1604
  24865541.836     3230747.293 7   2624263.11849  24865541.9774
  23004779.000    -6489676.533 7  -4976369.35749  23004778.9064
 95  2  9 19 21  0.0080000  0  7 18 14 28 19 31 22 29
  23720541.414    -7518565.682 7  -5801871.16749  23720542.0234
  24060941.055     5665652.135 7   4504833.93849  24060942.8714
  26578949.187     -314342.815 5   -144048.75547  26578952.6684
  24573756.719    -5574825.654 6  -4279055.57649  24573758.5234
  27041856.461     -139516.054 3    -55665.96046  27041859.9774
  24890917.781     3364105.832 6   2728178.83849  24890919.0004
  23012117.047    -6451111.767 7  -4946318.89649  23012117.0824
 95  2  9 19 21 30.0080000  0  7 18 14 28 19 31 22 29
  23718610.281    -7528714.962 7  -5809779.66449  23718610.7154
  24086825.383     5801676.517 7   4610826.91949  24086827.3524
  26577050.844     -324319.707 5   -151822.87148  26577054.2664
  24573584.969    -5575728.600 6  -4279759.14049  24573586.6214
  27035479.687     -173016.544 3    -81770.10046  27035483.2854
  24916373.125     3497872.038 6   2832412.22849  24916373.8284
  23019524.508    -6412187.527 7  -4915988.32149  23019524.4844
 95  2  9 19 22  0.0080000  0  7 18 14 28 19 31 22 29
  23716732.664    -7538586.373 7  -5817471.64149  23716733.5554
  24112791.937     5938129.648 7   4717153.98949  24112793.8944
  26575205.406     -334015.626 5   -159378.12749  26575206.8594
  24573457.906    -5576396.107 6  -4280279.25149  24573460.5314
  27029101.102     -206541.221 3   -107893.04948  27029104.4414
  24941903.680     3632037.131 6   2936956.41949  24941904.3714
  23027004.070    -6372884.533 7  -4885362.61349  23027004.0234
 95  2  9 19 22 30.0080000  0  7 18 14 28 19 31 22 29
  23714903.578    -7548192.667 7  -5824957.06049  23714904.8554
  24138836.289     6074994.582 7   4823801.95749  24138838.4454
  26573413.211     -343433.721 5   -166716.80849  26573416.4804
  24573376.828    -5576823.712 6  -4280612.43749  24573379.1724
  27022714.055     -240100.053 3   -134042.61148  27022717.8984
  24967511.547     3766601.062 7   3041811.37549  24967512.7304
  23034554.805    -6333202.541 7  -4854441.58549  23034554.8404
 95  2  9 19 23  0.0080000  0  7 18 14 28 19 31 22 29
  23713126.422    -7557530.626 7  -5832233.40149  23713127.3834
  24164958.555     6212266.107 7   4930766.73949  24164960.4414
  26571674.867     -352564.920 5   -173832.03349  26571678.1724
  24573344.367    -5576995.535 6  -4280746.29949  24573346.2304
  27016325.773     -273674.472 4   -160204.37749  27016329.2544
  24993195.570     3901571.074 6   3146982.77449  24993196.8244
  23042180.078    -6293133.021 7  -4823218.58649  23042180.1134
 95  2  9 19 23 30.0080000  0  7 18 14 28 19 31 22 29
  23711398.828    -7566609.537 7  -5839307.86349  23711398.6294
  24191159.641     6349953.439 7   5038055.52949  24191161.4224
  26569993.398     -361399.690 4   -180716.19349  26569996.2114
  24573362.469    -5576899.510 6  -4280671.46249  24573364.0744
  27009936.539     -307250.105 5   -186367.03449  27009940.6524
  25018956.031     4036944.442 6   3252468.47649  25018957.4734
  23049880.055    -6252669.840 7  -4791688.84249  23049880.2074
 95  2  9 19 24  0.0080000  0  7 18 14 28 19 31 22 29
  23709720.164    -7575435.131 8  -5846184.92349  23709720.1174
  24217439.336     6488055.928 7   5145667.82049  24217441.3984
  26568369.773     -369938.245 4   -187369.59249  26568373.7694
  24573429.680    -5576546.401 6  -4280396.29449  24573430.9344
  27003544.922     -340837.883 5   -212539.18449  27003548.8364
  25044794.297     4172726.948 6   3358273.00449  25044795.8554
  23057651.445    -6211831.396 7  -4759866.66949  23057651.5274
 95  2  9 19 24 30.0080000  0  7 18 14 28 19 31 22 29
  23708093.531    -7583984.885 8  -5852847.06049  23708093.5314
  24243799.594     6626578.413 7   5253607.38849  24243801.6214
  26566800.570     -378180.527 4   -193792.12549  26566803.7344
  24573545.937    -5575932.336 6  -4279917.78549  24573547.4964
  26997155.781     -374414.190 5   -238702.37549  26997160.3404
  25070709.977     4308917.723 6   3464395.66849  25070712.1804
  23065490.117    -6170635.957 7  -4727766.32649  23065490.1174
 95  2  9 19 25  0.0080000  0  7 18 14 28 19 31 22 29
  23706521.539    -7592244.509 7  -5859283.10649  23706521.4574
  24270243.039     6765539.567 7   5361888.76849  24270245.1844
  26565291.570     -386113.407 5   -199973.55249  26565293.6214
  24573715.297    -5575043.463 6  -4279225.13149  24573717.5124
  26990769.891     -407967.625 5   -264847.77749  26990774.3324
  25096704.562     4445519.641 6   3570838.70449  25096706.5194
  23073400.891    -6129064.653 7  -4695373.10749  23073401.1724
 95  2  9 19 25 30.0080000  0  7 18 14 28 19 31 22 29
  23705002.164    -7600223.629 7  -5865500.59849  23705003.7694
  24296767.758     6904929.176 7   5470504.01349  24296769.8554
  26563839.195     -393743.260 5   -205918.87549  26563842.1374
  24573934.547    -5573890.418 6  -4278326.64449  24573936.9264
  26984387.859     -441507.416 5   -290982.54949  26984391.4574
  25122777.687     4582535.673 6   3677604.42149  25122779.2584
  23081380.836    -6087131.353 7  -4662697.81449  23081381.0004
 95  2  9 19 26  0.0080000  0  7 18 14 28 19 31 22 29
  23703541.328    -7607893.598 7  -5871477.21649  23703543.3094
  24323373.062     7044739.751 7   5579447.28749  24323374.9374
  26562446.336     -401062.851 5   -211622.40449  26562448.9844
  24574208.086    -5572454.163 6  -4277207.45549  24574210.6054
  26978008.758     -475026.251 5   -317100.95549  26978012.6134
  25148934.117     4719983.879 6   3784706.90549  25148935.4064
  23089431.547    -6044823.492 7  -4629730.65349  23089431.7814
 95  2  9 19 26 30.0080000  0  7 18 14 28 19 31 22 29
  23702140.578    -7615255.907 7  -5877214.05549  23702141.4804
  24350055.969     7184959.825 6   5688709.64649  24350058.0084
  26561112.555     -408075.416 5   -217086.69249  26561114.0084
  24574535.500    -5570731.718 6  -4275865.27049  24574538.6524
  26971636.086     -508517.346 4   -343197.79949  26971639.2384
  25175167.898     4857843.269 6   3892129.77649  25175168.8244
  23097555.883    -6002131.250 7  -4596463.97949  23097555.9304
 95  2  9 19 27  0.0080000  0  7 18 14 28 19 31 22 29
  23700796.336    -7622320.127 7  -5882718.62749  23700797.5554
  24376817.594     7325592.639 6   5798293.62349  24376819.9844
  26559837.781     -414771.343 5   -222304.28149  26559839.9494
  24574919.500    -5568714.518 6  -4274293.40049  24574922.4414
  26965269.375     -541974.527 4   -369268.20748  26965273.1024
  25201478.305     4996106.448 6   3999867.30049  25201479.5474
  23105755.031    -5959043.604 7  -4562889.19149  23105755.1604
 95  2  9 19 27 30.0080000  0  7 18 14 28 19 31 22 29
  23699510.828    -7629085.154 7  -5887990.05649  23699510.9574
  24403657.687     7466638.621 6   5908199.54749  24403660.0194
  26558624.750     -421147.100 5   -227272.31849  26558626.3914
  24575360.398    -5566398.075 6  -4272488.34849  24575363.2694
  26958911.125     -575386.269 3   -395303.19848  26958915.8944
  25227864.883     5134769.441 6   4107916.38849  25227866.6764
  23114028.437    -5915566.024 7  -4529010.56849  23114028.3554
 95  2  9 19 28  0.0080000  0  7 18 14 28 19 31 22 29
  23698281.062    -7635549.302 8  -5893027.00849  23698281.4024
  24430579.648     7608113.678 6   6018439.81149  24430581.5594
  26557474.266     -427193.908 5   -231984.10549  26557475.4144
  24575857.742    -5563784.931 6  -4270452.09749  24575860.4264
  26952564.234     -608735.792 3   -421289.71648  26952566.7424
  25254324.469     5273813.683 6   4216262.54149  25254326.0274
  23122380.469    -5871678.302 7  -4494812.34349  23122380.7854
 95  2  9 19 28 30.0080000  0  7 18 14 28 19 31 22 29
  23697101.883    -7641742.090 7  -5897852.55349  23697102.9614
  24457582.758     7750015.701 6   6129012.77249  24457585.0554
  26556385.617     -432916.202 5   -236442.97549  26556387.4104
  24576403.711    -5560913.332 6  -4268214.46949  24576406.6414
  26946228.547     -642024.528 3   -447228.90846  26946231.4414
  25280850.805     5413213.427 6   4324885.72549  25280852.5394
  23130809.492    -5827381.704 7  -4460295.51449  23130809.6914
 95  2  9 19 29  0.0080000  0  7 18 14 28 19 31 22 29
  23695974.906    -7647663.617 7  -5902466.72049  23695975.5624
  24484665.820     7892337.810 6   6239913.08949  24484667.7774
  26555359.766     -438304.493 5   -240641.61849  26555361.7464
  24576997.781    -5557791.135 6  -4265781.56649  24577000.0314
  26939905.867     -675251.661 3   -473120.09646  26939911.6564
  25307446.539     5552977.158 6   4433792.52849  25307448.1684
  23139317.289    -5782672.020 7  -4425456.79749  23139317.6524
 95  2  9 19 29 30.0080000  0  7 18 14 28 19 31 22 29
  23694902.312    -7653300.867 7  -5906859.36249  23694902.6764
  24511825.516     8035064.138 6   6351128.37749  24511827.4024
  26554399.148     -443355.611 5   -244577.52549  26554400.7544
  24577635.297    -5554443.505 6  -4263172.99849  24577636.6214
  26933592.766     -708426.441 3   -498970.52347  26933594.5704
  25334112.430     5693105.132 6   4542983.14749  25334113.9064
  23147904.930    -5737545.520 7  -4390293.29349  23147905.1054
 95  2  9 19 30  0.0080000  0  7 18 14 28 19 31 22 29
  23693886.109    -7658643.523 7  -5911022.45249  23693886.1214
  24539061.367     8178188.447 6   6462653.77749  24539063.5594
  26553502.070     -448065.195 5   -248247.31149  26553504.5434
  24578313.945    -5550881.545 7  -4260397.42149  24578314.5554
  26927288.937     -741557.634 3   -524786.93746  26927292.1254
  25360848.297     5833599.839 6   4652459.52049  25360849.4694
  23156573.906    -5691989.457 7  -4354795.06249  23156574.0594
 95  2  9 19 30 30.0080000  0  7 18 14 28 19 31 22 29
  23692929.383    -7663670.931 7  -5914939.89149  23692929.6874
  24566371.500     8321703.863 6   6574483.94249  24566373.4104
  26552671.430     -452433.241 5   -251650.90449  26552672.7194
  24579035.289    -5547089.814 7  -4257442.81149  24579035.8284
  26920989.078     -774659.411 3   -550580.53146  26920992.0784
  25387654.336     5974467.721 6   4762226.68549  25387656.0124
  23165321.023    -5646020.959 7  -4318975.45049  23165321.3284
 95  2  9 19 31  0.0080000  0  7 18 14 28 19 31 22 29
  23692039.086    -7668350.592 7  -5918586.38049  23692039.0624
  24593755.141     8465607.864 6   6686616.89749  24593757.3794
  26551906.734     -456448.446 5   -254779.66549  26551908.0234
  24579808.133    -5543025.225 7  -4254275.58549  24579809.1174
  26914697.937     -807723.365 3   -576344.62349  26914701.6294
  25414533.234     6115719.542 6   4872293.03649  25414534.9344
  23174146.211    -5599646.597 7  -4282839.58249  23174146.4924
 95  2  9 19 31 30.0080000  0  7 18 14 28 19 31 22 29
  23691215.953    -7672675.355 7  -5921956.31449  23691216.1174
  24621216.414     8609914.890 6   6799063.88749  24621218.4654
  26551211.609     -460102.509 5   -257626.88849  26551214.6214
  24580637.711    -5538668.333 7  -4250880.58449  24580638.9884
  26908417.234     -840731.540 4   -602065.25648  26908419.9884
  25441488.711     6257373.388 6   4982672.64249  25441490.2114
  23183048.945    -5552862.421 7  -4246384.38849  23183048.9694
 95  2  9 19 32  0.0090000  0  7 18 14 28 19 31 22 29
  23690456.505    -7676666.795 8  -5925066.52649  23690456.8454
  24648751.950     8754616.536 6   6911818.39149  24648753.9074
  26550582.231     -463408.038 5   -260202.66249  26550582.7704
  24581523.864    -5534010.921 7  -4247251.41149  24581525.2824
  26902145.864                      -18667.49614
  25468521.270     6399429.012 6   5093365.29849  25468523.1104
  23192025.974    -5505688.425 7  -4209625.42949  23192025.9624
 95  2  9 19 32 30.0090000  0  7 18 14 28 19 31 22 29
  23689757.286    -7680341.459 8  -5927929.89649  23689757.4504
  24676357.489     8899686.032 6   7024859.51749  24676359.9154
  26550019.661     -466367.104 5   -262508.34249  26550021.9814
  24582468.505    -5529045.308 7  -4243382.07349  24582470.4744
  26895886.177      -51562.413 5     -7685.83558  26895888.7204
  25495625.997     6541866.325 6   5204355.37649  25495627.9774
  23201073.731    -5458139.352 7  -4172574.21349  23201073.8024
 95  2  9 19 33  0.0090000  0  7 18 14 28 19 31 22 29
  23689113.677    -7683721.763 8  -5930563.89349  23689114.0994
  24704031.356     9045112.442 6   7138178.76249  24704034.0284
  26549521.911     -468980.432 5   -264544.71549  26549523.2354
  24583468.028    -5523790.615 6  -4239287.48349  24583470.3604
  26889638.505      -84392.975 5    -33268.10649  26889639.4074
  25522802.997     6684680.323 6   5315638.97549  25522805.4234
  23210196.028    -5410202.351 7  -4135220.70349  23210196.2044
 95  2  9 19 33 30.0090000  0  7 18 14 28 19 31 22 29
  23688528.138    -7686799.162 7  -5932961.84649  23688528.4774
  24731776.567     9190914.607 6   7251790.80749  24731779.1454
  26549092.645     -471235.484 5   -266301.82449  26549096.5714
  24584520.020    -5518261.059 6  -4234978.70549  24584522.3294
  26883404.520     -117152.666 5    -58795.15349  26883407.4854
  25550051.880     6827877.133 6   5427220.87049  25550054.3994
  23219395.567    -5361859.719 7  -4097551.12049  23219395.7554
 95  2  9 19 34  0.0090000  0  7 18 14 28 19 31 22 29
  23688002.903    -7689558.012 7  -5935111.58349  23688003.8294
  24759591.692     9337082.729 6   7365688.00749  24759594.1654
  26548732.552     -473128.626 5   -267776.97349  26548735.2354
  24585624.630    -5512455.675 6  -4230454.99849  24585627.1144
  26877184.997     -149840.395 5    -84266.10549  26877189.2864
  25577370.645     6971433.513 6   5539082.94249  25577371.9704
  23228673.856    -5313101.265 7  -4059557.52049  23228674.0444
 95  2  9 19 34 30.0090000  0  8 18 14 28 19 31 22 27 29
  23687540.536    -7691988.078 7  -5937005.12549  23687541.0754
  24787475.927     9483616.286 6   7479869.96049  24787478.4584
  26548441.138     -474658.064 5   -268968.70449  26548443.7744
  24586779.442    -5506388.590 6  -4225727.37949  24586781.5754
  26870980.130     -182447.806 5   -109674.50149  26870983.5874
  25604753.255     7115330.283 6   5651210.23249  25604754.3214
  27700622.919      -13062.00913
  23238032.302    -5263922.594 7  -4021236.47749  23238032.3724
 95  2  9 19 35  0.0090000  0  8 18 14 28 19 31 22 27 29
  23687141.895    -7694083.149 7  -5938637.62349  23687142.3994
  24815431.692     9630523.733 6   7594343.26249  24815433.8134
  26548220.106     -475817.605 5   -269872.21049  26548222.6384
  24587982.286    -5500067.093 7  -4220801.51049  24587984.3254
  26864793.630     -214956.158 5   -135005.67849  26864797.5674
  25632200.724     7259566.467 6   5763602.03449  25632201.9194
  27696260.630      -35984.818 3     -1187.27059  27696264.9664
  23247469.724    -5214327.128 7  -3982590.66049  23247469.7944
 95  2  9 19 35 30.0090000  0  8 18 14 28 19 31 22 27 29
  23686805.880    -7695846.178 7  -5940011.40849  23686806.3134
  24843458.067     9777802.553 6   7709105.93549  24843460.0834
  26548071.185     -476606.294 5   -270486.73749  26548072.9074
  24589234.833    -5493489.650 7  -4215676.20549  24589235.9234
  26858629.091     -247351.358 5   -160248.68249  26858632.0674
  25659710.997     7404134.014 6   5876252.02249  25659712.6024
  27691927.349      -58754.805 3    -18930.11147  27691930.7244
  23256985.224    -5164323.793 7  -3943627.02849  23256985.3764
 95  2  9 19 36  0.0090000  0  8 18 14 28 19 31 22 27 29
  23686531.145    -7697290.166 7  -5941136.59049  23686531.5444
  24871553.263     9925442.909 6   7824150.32749  24871555.3844
  26547990.903     -477024.314 5   -270812.47449  26547992.8374
  24590534.450    -5486657.368 7  -4210352.32849  24590535.5874
  26852486.942     -279625.747 5   -185397.52749  26852490.4704
  25687284.552     7549030.900 6   5989158.64449  25687285.8884
  27687623.661      -81367.194 3    -36550.08848  27687627.7274
  23266580.755    -5113901.867 7  -3904337.21949  23266581.0484
 95  2  9 19 36 30.0090000  0  8 18 14 28 19 31 22 27 29
  23686313.185    -7698436.147 7  -5942029.56049  23686313.6304
  24899717.403    10073446.748 6   7939477.95649  24899719.4774
  26547981.247     -477076.087 5   -270852.75849  26547983.4974
  24591879.380    -5479589.006 7  -4204844.49649  24591881.1494
  26846365.208     -311791.713 4   -210461.88149  26846367.8564
  25714920.489     7694259.729 6   6102323.93349  25714922.2124
  27683347.895     -103839.278 3    -54060.77349  27683353.4274
  23276253.606    -5063066.898 7  -3864725.55549  23276254.0524
 95  2  9 19 37  0.0090000  0  8 18 14 28 19 31 22 27 29
  23686151.739    -7699283.512 7  -5942689.84149  23686152.1024
  24927951.911    10221820.328 6   8055093.68449  24927954.0444
  26548043.052     -476755.582 5   -270602.98649  26548045.0324
  24593272.731    -5472266.632 7  -4199138.73849  24593274.5134
  26840263.638     -343857.453 5   -235448.11149  26840267.4234
  25742620.755     7839828.076 6   6215753.78549  25742622.3134
  27679097.145     -126174.354 3    -71464.71849  27679101.2594
  23286007.864    -5011809.103 7  -3824784.41549  23286008.1814
 95  2  9 19 37 30.0090000  0  8 18 14 28 19 31 22 27 29
  23686050.059    -7699816.980 7  -5943105.52449  23686050.2004
  24956254.708    10370553.247 6   8170989.42349  24956257.3684
  26548173.020     -476064.295 5   -270064.33149  26548175.6814
  24594714.638    -5464688.294 6  -4193233.51249  24594716.8884
  26834176.849                      -18116.56814
  25770385.497     7985733.057 6   6329445.93249  25770386.9974
  27674874.395     -148368.346 4    -88758.71249  27674878.1344
  23295843.247    -4960123.301 7  -3784509.76749  23295843.4704
 95  2  9 19 38  0.0090000  0  8 18 14 28 19 31 22 27 29
  23686010.005    -7700026.781 7  -5943268.98149  23686010.5794
  24984625.505    10519643.008 6   8287163.22349  24984627.9194
  26548376.341     -474999.343 5   -269234.47549  26548379.1424
  24596205.872    -5456850.812 6  -4187126.35249  24596208.6614
  26828103.880                      -50032.380 4
  25798216.903     8131986.654 6   6443409.73349  25798218.4624
  27670678.599     -170416.685 4   -105939.22649  27670682.3494
  23305761.809    -4908002.573 7  -3743896.21449  23305761.5054
 95  2  9 19 38 30.0090000  0  8 18 14 28 19 31 22 27 29
  23686035.935    -7699894.788 7  -5943166.11749  23686036.6494
  25013064.739    10669090.532 6   8403615.78749  25013067.3764
  26548651.231     -473551.412 5   -268106.20549  26548654.2554
  24597751.630    -5448730.614 7  -4180798.90049  24597754.1264
  26822045.716      -81869.734 5    -19013.90759  26822048.6574
  25826112.700     8278579.991 6   6557638.29749  25826113.8494
  27666509.286     -192326.304 4   -123011.66449  27666513.6574
  23315760.231    -4855460.265 7  -3702954.16949  23315760.4314
 95  2  9 19 39  0.0090000  0  8 18 14 28 19 31 22 27 29
  23686129.591    -7699405.203 8  -5942784.60449  23686130.2704
  25041569.294    10818881.416 6   8520335.91449  25041571.6264
  26549001.263     -471715.689 5   -266675.77249  26549003.8644
  24599352.630    -5440318.196 7  -4174243.74749  24599354.5404
  26816004.231                       -5283.84114
  25854072.317     8425507.221 6   6672127.00149  25854073.2434
  27662367.419     -214090.848 4   -139971.02548  27662372.2004
  23325835.395    -4802514.272 7  -3661697.55349  23325835.6424
 95  2  9 19 39 30.0090000  0  8 18 14 28 19 31 22 27 29
  23686289.895    -7698564.540 8  -5942129.53249  23686290.0714
  25070136.192    10969003.536 6   8637314.15549  25070138.0794
  26549423.927     -469493.479 5   -264944.14949  26549427.5244
  24601003.950    -5431640.572 7  -4167481.94049  24601005.4384
  26809982.349                      -23192.35714
  25882095.349     8572770.379 6   6786877.47849  25882096.8024
  27658250.794     -235723.886 3   -156827.91347  27658255.8104
  23335986.786    -4749169.185 7  -3620129.96149  23335987.0674
 95  2  9 19 40  0.0090000  0  8 18 14 28 19 31 22 27 29
  23686513.106    -7697390.881 8  -5941214.98949  23686513.1064
  25098764.505    11119445.290 6   8754541.45649  25098766.7784
  26549918.895     -466892.462 5   -262917.38449  26549921.1104
  24602701.114    -5422721.475 7  -4160531.98449  24602702.2394
  26803981.919      -54727.661 4     -8180.59759  26803987.6964
  25910178.700     8720349.059 6   6901873.84449  25910180.5874
  27654153.942     -257252.043 3   -173603.07049  27654158.3954
  23346212.309    -4695430.959 7  -3578256.01849  23346212.5674
 95  2  9 19 40 30.0090000  0  8 18 14 28 19 31 22 27 29
  23686803.349    -7695861.942 7  -5940023.60749  23686803.4774
  25127455.700    11270218.057 6   8872026.68449  25127458.1024
  26550489.778     -463895.573 6   -260582.11349  26550491.8764
  24604446.208    -5413549.774 7  -4153385.19949  24604447.2744
  26798004.380      -86139.649 5    -32657.37449  26798006.5364
  25938321.950     8868240.530 6   7017113.89449  25938323.0994
  27650082.200     -278649.190 3   -190276.11348  27650087.9664
  23356516.255    -4641285.647 7  -3536064.86849  23356516.4664
 95  2  9 19 41  0.0090000  0  8 18 14 28 19 31 22 27 29
  23687162.091    -7693974.622 7  -5938552.96549  23687162.5954
  25156211.669    11421332.709 6   8989778.31449  25156214.1424
  26551137.903     -460490.875 6   -257929.10449  26551139.8604
  24606236.270    -5404141.730 7  -4146054.24649  24606237.7704
  26792053.192                      -17707.18215
  25966528.341     9016466.760 6   7132614.84249  25966529.7824
  27646038.317     -299897.779 3   -206833.45046  27646043.9314
  23366902.458    -4586707.492 7  -3493536.43849  23366902.6454
 95  2  9 19 41 30.0090000  0  8 18 14 28 19 31 22 27 29
  23687584.372    -7691756.676 7  -5936824.68849  23687584.6424
  25185030.716    11572775.866 6   9107785.92149  25185032.9314
  26551858.958     -456697.238 5   -254972.99749  26551862.0874
  24608067.489    -5394516.381 6  -4138553.95149  24608069.5754
  26786122.872      -48869.119 5     -7274.48859  26786125.1104
  25994793.177     9165002.574 6   7248357.01649  25994795.0284
  27642019.036     -321023.380 3   -223294.97947  27642021.3094
  23377370.684    -4531694.899 7  -3450669.49549  23377370.7784
 95  2  9 19 42  0.0090000  0  8 18 14 28 19 31 22 27 29
  23688072.989    -7689190.010 7  -5934824.67449  23688072.9664
  25213913.380    11724555.313 6   9226055.56849  25213915.6774
  26552657.411     -452504.277 6   -251705.71149  26552659.4384
  24609946.192    -5384642.660 6  -4130860.12149  24609948.5364
  26780214.911      -79912.854 5    -31464.27249  26780217.0914
  26023114.458     9313832.104 6   7364328.05049  26023116.4624
  27638025.489     -342008.107 3   -239646.66146  27638027.0134
  23387922.841    -4476244.124 7  -3407461.10449  23387922.7944
 95  2  9 19 42 30.0090000  0  8 18 14 28 19 31 22 27 29
  23688627.677    -7686275.913 7  -5932553.94049  23688627.3724
  25242858.739    11876662.889 6   9344580.90649  25242860.7904
  26553531.466     -447911.713 6   -248127.10349  26553533.5874
  24611873.192    -5374518.700 7  -4122971.30249  24611875.3494
  26774328.270     -110847.333 5    -55568.94049  26774330.2394
  26051492.505     9462958.139 6   7480530.14049  26051493.8524
  27634061.966     -362838.776 3   -255878.34346  27634063.8644
  23398555.630    -4420366.496 7  -3363920.10849  23398555.8294
 95  2  9 19 43  0.0090000  0  8 18 14 28 19 31 22 27 29
  23689242.489    -7683040.970 7  -5930033.19049  23689242.4774
  25271861.575    12029076.702 6   9463344.87649  25271863.9664
  26554478.724     -442931.226 5   -244246.12949  26554481.9464
  24613845.224    -5364156.176 7  -4114896.58149  24613847.1344
  26768461.052     -141676.572 5    -79591.61849  26768463.8644
  26079925.020     9612372.213 6   7596956.65849  26079926.4034
  27630121.286     -383548.827 3   -272016.04648  27630126.4074
  23409268.005    -4364073.982 7  -3320055.81549  23409268.2634
 95  2  9 19 43 30.0090000  0  8 18 14 28 19 31 22 27 29
  23689920.981    -7679475.444 7  -5927254.83949  23689921.3454
  25300921.419    12181786.945 6   9582339.82349  25300924.2904
  26555501.481     -437557.045 5   -240058.43949  26555503.3924
  24615865.505    -5353541.779 7  -4106625.60149  24615867.5324
  26762616.942     -172388.699 5   -103523.08249  26762620.7744
  26108410.411     9762061.870 6   7713597.93249  26108412.5914
  27626202.989     -404139.959 3   -288061.02846  27626204.5244
  23420058.864    -4307365.656 7  -3275867.51249  23420059.2394
 95  2  9 19 44  0.0090000  0  8 18 14 28 19 31 22 27 29
  23690663.770    -7675573.623 7  -5924214.44449  23690664.3684
  25330033.255    12334770.389 6   9701547.64649  25330036.0914
  26556599.302     -431788.949 5   -235563.77149  26556600.5444
  24617931.247    -5342686.091 7  -4098166.59749  24617932.9114
  26756794.044     -202987.619 5   -127366.23849  26756797.4664
  26136946.435     9912020.415 6   7830448.72749  26136947.0674
  27622308.075     -424605.886 3   -304008.53145  27622312.7744
  23430927.841    -4250248.033 7  -3231360.28049  23430928.1574
 95  2  9 19 44 30.0090000  0  8 18 14 28 19 31 22 27 29
  23691471.567    -7671332.427 8  -5920909.60349  23691472.1424
  25359198.067    12488032.104 6   9820972.31949  25359200.5754
  26557773.349     -425611.473 5   -230750.12049  26557776.3254
  24620042.052    -5331591.999 7  -4089521.82749  24620043.5524
  26750996.614     -233456.966 5   -151108.49749  26750999.2514
  26165538.630    10062272.660 6   7947528.35049  26165540.8334
  27618439.310     -444930.863 2
  23441878.528    -4192702.592 7  -3186519.67649  23441879.0204
 95  2  9 19 45  0.0090000  0  8 18 14 28 19 31 22 27 29
  23692342.349    -7666754.517 8  -5917342.39049  23692342.6184
  25388415.997    12641573.341 6   9940614.78749  25388418.9154
  26559027.208     -419025.933 5   -225618.46949  26559031.1814
  24622200.005    -5320254.528 7  -4080687.42149  24622201.5174
  26745225.528     -263781.945 5   -174738.25049  26745227.7314
  26194185.005    10212812.119 6   8064831.86049  26194186.2594
  27614595.677     -465129.566 1
  23452911.505    -4134724.617 7  -3141342.03649  23452911.9034
 95  2  9 19 45 30.0090000  0  8 18 14 28 19 31 22 27 29
  23693281.161    -7661819.160 7  -5913496.65849  23693281.5834
  25417690.786    12795412.385 6  10060489.32249  25417693.5634
  26560361.513     -412021.566 6   -220160.47249  26560364.0094
  24624403.724    -5308671.220 7  -4071661.44949  24624405.1774
  26739483.239     -293957.510 5   -198251.56348  26739485.3494
  26222885.911    10363636.330 6   8182357.16449  26222887.6454
  27610778.747     -485181.632 1    -10402.29156  27610779.5564
  23464027.052    -4076312.113 7  -3095825.81049  23464027.3684
 95  2  9 19 46  0.0090000  0  8 18 14 28 19 31 22 27 29
  23694287.958    -7656525.099 7  -5909371.40949  23694288.4154
  25447022.528    12949551.717 6  10180597.84449  25447025.5054
  26561771.630     -404606.729 6   -214382.63749  26561772.7434
  24626652.419    -5296853.708 7  -4062452.98049  24626654.1774
  26733765.552     -324002.881 5   -221663.46949  26733769.5364
  26251640.020    10514741.067 6   8300101.14149  26251641.6264
  27606990.645     -505091.674 2    -25916.62145  27606996.0594
  23475224.458    -4017468.506 7  -3049973.66449  23475224.7634
 95  2  9 19 46 30.0090000  0  8 18 14 28 19 31 22 27 29
  23695362.138    -7650882.443 7  -5904974.51249  23695362.7354
  25476413.911    13104003.776 6  10300950.04849  25476416.7944
  26563259.669     -396786.923 5   -208289.21949  26563262.2704
  24628945.083    -5284804.596 7  -4053064.03849  24628946.9814
  26728072.716     -353915.783 5   -244972.16149  26728076.9584
  26280445.169    10666112.253 6   8418052.68349  26280446.3884
  27603223.606     -524880.244 2    -41336.19146  27603231.0174
  23486504.239    -3958193.935 7  -3003785.69949  23486504.6384
 95  2  9 19 47  0.0100000  0  8 18 14 28 19 31 22 27 29
  23696504.775    -7644878.634 7  -5900296.21249  23696505.3264
  25505868.244    13258786.963 6  10421560.27249  25505871.1974
  26564826.400     -388552.015 6   -201872.38649  26564827.8894
  24631285.994    -5272503.516 7  -4043478.75649  24631288.0804
  26722408.189     -383687.589 5   -268170.92449  26722408.9864
  26309301.525    10817754.500 6   8536215.47249  26309303.7404
  27599483.135     -544549.738 3    -56663.10547  27599487.2834
  23497867.424    -3898480.163 7  -2957255.49649  23497867.6934
 95  2  9 19 47 30.0100000  0  8 18 14 28 19 31 22 27 29
  23697714.361    -7638524.491 7  -5895344.91949  23697714.8424
  25535377.517    13413858.948 6  10542395.54149  25535380.4824
  26566469.189     -379917.274 5   -195143.96749  26566471.8264
  24633669.932    -5259974.528 7  -4033715.88649  24633671.8184
  26716761.978     -413355.845 5   -291288.96249  26716764.2404
  26338201.760    10969624.670 6   8654555.85049  26338202.6034
  27595760.158     -564111.628 3    -71906.08646  27595767.3344
  23509312.299    -3838337.030 7  -2910390.72249  23509312.6624
 95  2  9 19 48  0.0100000  0  8 18 14 28 19 31 22 27 29
  23698992.103    -7631809.705 7  -5890112.59849  23698992.5144
  25564941.713    13569220.475 6  10663456.42249  25564944.7714
  26568191.385     -370869.027 6   -188093.36749  26568193.1664
  24636101.674    -5247194.327 7  -4023757.26749  24636103.6544
  26711137.674     -442911.670 5   -314319.43849  26711140.3814
  26367148.361    11121740.068 6   8773087.32149  26367150.3774
  27592058.783     -583561.266 3    -87061.63947  27592062.3934
  23520843.400    -3777741.473 7  -2863173.41149  23520843.5644
 95  2  9 19 48 30.0100000  0  8 18 14 28 19 31 22 27 29
  23700336.103    -7624743.219 7  -5884606.23949  23700336.6664
  25594556.947    13724848.393 6  10784724.87649  25594559.9714
  26569993.611     -361402.325 6   -180716.65649  26569995.8964
  24638583.228    -5234155.130 7  -4013596.83149  24638585.0104
  26705537.275     -472346.759 5   -337255.81649  26705538.8464
  26396142.611    11274105.844 6   8891813.88449  26396144.9674
  27588378.619     -602903.301 3   -102133.38648  27588382.3344
  23532456.869    -3716707.432 7  -2815614.42249  23532457.1624
 95  2  9 19 49  0.0100000  0  8 18 14 28 19 31 22 27 29
  23701751.478    -7617304.564 7  -5878809.87549  23701752.2054
  25624217.150    13880716.727 6  10906180.67249  25624220.4904
  26571875.119     -351510.680 5   -173008.88349  26571877.6974
  24641113.635    -5220858.797 7  -4003236.02349  24641115.2524
  26699958.416     -501660.781 5   -360097.89649  26699961.4864
  26425186.736    11426732.649 6   9010743.83349  26425188.5644
  27584720.830     -622127.521 4   -117113.27149  27584723.7484
  23544152.260    -3655252.545 7  -2767727.49349  23544152.6004
 95  2  9 19 49 30.0100000  0  8 18 14 28 19 31 22 27 29
  23703238.752    -7609488.484 7  -5872719.40849  23703239.4784
  25653921.252    14036811.537 6  11027812.94249  25653924.2874
  26573838.307     -341195.344 5   -164970.92949  26573839.6894
  24643690.885    -5207316.229 7  -3992683.33949  24643692.3264
  26694403.588     -530849.420 5   -382842.26749  26694406.6934
  26454279.244    11579617.573 6   9129874.93249  26454280.6504
  27581083.869     -641236.676 3   -132003.50846  27581088.0184
  23555926.322    -3593379.493 7  -2719514.73049  23555926.6624
 95  2  9 19 50  0.0100000  0  8 18 14 28 19 31 22 27 29
  23704798.611    -7601293.625 7  -5866333.79249  23704799.1854
  25683671.275    14193146.921 6  11149632.67449  25683674.0414
  26575885.283     -330440.160 5   -156590.23149  26575887.2874
  24646316.736    -5193516.440 7  -3981930.22549  24646318.6934
  26688881.689     -559871.258 5   -405456.67149  26688883.7174
  26483427.283    11732792.130 5   9249231.69549  26483429.9674
  27577473.033     -660214.782 3   -146791.59347  27577475.7054
  23567777.658    -3531099.598 7  -2670984.95949  23567777.8224
 95  2  9 19 50 30.0100000  0  8 18 14 28 19 31 22 27 29
  23706427.619    -7592732.516 7  -5859662.79649  23706428.2174
  25713466.017    14349720.283 6  11271637.85249  25713468.5494
  26578014.353     -319246.973 5   -147868.24849  26578016.5454
  24648988.064    -5179477.004 6  -3970990.36749  24648990.1744
  26683393.978     -588706.811 5   -427925.90749  26683397.3424
  26512631.400    11886255.517 6   9368813.51149  26512633.2994
  27573884.385     -679071.517 3   -161485.13947  27573886.9754
  23579703.252    -3468431.768 7  -2622152.88349  23579703.4164
 95  2  9 19 51  0.0100000  0  8 18 14 28 19 31 22 27 29
  23708123.611    -7583821.797 7  -5852719.37249  23708123.9284
  25743308.541    14506544.748 6  11393838.67849  25743311.2714
  26580225.978     -307621.798 5   -138809.62249  26580228.3574
  24651702.978    -5165210.319 6  -3959873.43849  24651705.2174
  26677942.799     -617351.224 5   -450246.24549  26677944.5574
  26541884.353    12039985.335 5   9488602.95449  26541886.7324
  27570316.268     -697819.812 3   -176094.19145  27570321.9514
  23591705.057    -3405360.564 7  -2573006.49249  23591705.0684
 95  2  9 19 51 30.0100000  0  8 18 14 28 19 31 22 27 29
  23709882.494    -7574577.088 7  -5845515.69149  23709883.1154
  25773204.221    14663644.849 6  11516254.30449  25773207.1154
  26582522.830     -295556.122 5   -129407.79349  26582524.3304
  24654462.846    -5150707.438 6  -3948572.45449  24654465.1544
  26672532.166     -645784.176 5   -472401.77549  26672535.3774
  26571190.900    12193988.968 5   9608605.73549  26571193.6544
  27566772.424     -716444.365 3   -190606.81046  27566776.1854
  23603789.174    -3341858.989 7  -2523524.74749  23603789.4784
 95  2  9 19 52  0.0100000  0  8 18 14 28 19 31 22 27 29
  23711703.541    -7565007.515 7  -5838058.87749  23711704.4784
  25803149.267    14821007.949 6  11638874.85349  25803151.9044
  26584900.744     -283059.315 5   -119669.96249  26584902.5254
  24657264.502    -5135983.909 6  -3937099.54049  24657266.4944
  26667162.283     -674006.059 5   -494392.84649  26667164.5924
  26600546.072    12348252.121 5   9728810.76549  26600548.3464
  27563248.939     -734951.235 3   -205027.70446  27563253.0064
  23615955.142    -3277925.737 7  -2473706.63149  23615955.5884
 95  2  9 19 52 30.0100000  0  8 18 14 28 19 31 22 27 29
  23713590.932    -7555090.070 7  -5830330.98049  23713591.7174
  25833144.502    14978633.820 6  11761700.16049  25833147.0454
  26587360.799     -270132.241 5   -109596.89149  26587362.8734
  24660108.424    -5121038.993 6  -3925454.12549  24660110.2994
  26661829.768     -702025.398 5   -516226.10049  26661832.2054
  26629946.510    12502753.733 5   9849201.55849  26629948.5024
  27559750.057     -753344.776 3   -219360.31247  27559752.7994
  23628208.377    -3213535.074 7  -2423532.09749  23628208.8574
 95  2  9 19 53  0.0100000  0  8 18 14 28 19 31 22 27 29
  23715550.291    -7544794.867 7  -5822308.73149  23715550.9004
  25863190.791    15136527.453 6  11884734.11049  25863193.7674
  26589903.939     -256764.650 5    -99180.55349  26589905.9674
  24662996.736    -5105862.243 7  -3913628.06849  24662998.0144
  26656534.564     -729854.751 5   -537911.26149  26656537.1424
  26659391.603    12657487.910 5   9969773.62949  26659393.3614
  27556274.174     -771607.300 3   -233590.80747  27556277.6664
  23640553.713    -3148657.400 7  -2372978.07249  23640554.1464
 95  2  9 19 53 30.0100000  0  8 18 14 28 19 31 22 27 29
  23717583.330    -7534108.072 7  -5813981.35849  23717583.9634
  25893282.439    15294661.100 6  12007955.08349  25893286.0724
  26592530.494     -242965.975 5    -88428.31349  26592531.7134
  24665925.877    -5090470.723 7  -3901634.65549  24665926.9084
  26651271.642     -757509.984 5   -559460.74949  26651273.5414
  26688878.119    12812438.390 5  10090514.22349  26688880.2054
  27552824.783     -789737.452 3   -247718.15147  27552828.2404
  23652987.564    -3083318.495 7  -2322064.64949  23652987.9284
 95  2  9 19 54  0.0100000  0  8 18 14 28 19 31 22 27 29
  23719692.877    -7523022.020 7  -5805342.86349  23719693.5214
  25923415.502    15453010.654 6  12131344.29349  25923419.5574
  26595235.924     -228744.602 5    -77346.70249  26595238.7714
  24668891.658    -5074883.447 7  -3889488.69849  24668893.4164
  26646039.377     -785007.284 5   -580887.18749  26646042.6464
  26718400.033    12967580.113 5  10211403.81849  26718402.2364
  27549393.111     -807769.828 3   -261769.35348  27549397.0604
  23665504.775    -3017540.880 7  -2270809.37449  23665505.3034
 95  2  9 19 54 30.0100000  0  8 18 14 28 19 31 22 27 29
  23721878.932    -7511535.104 7  -5796392.00549  23721879.6824
  25953589.244    15611576.162 5  12254901.79649  25953592.7604
  26598023.525     -214098.311 5    -65933.97049  26598024.3574
  24671895.244    -5059097.279 6  -3877187.75249  24671897.5764
  26640833.517     -812364.466 5   -602204.39549  26640836.5064
  26747958.283    13122908.829 6  10332439.17549  26747960.7094
  27545978.088     -825718.578 3   -275755.34749  27545982.5534
  23678101.392    -2951343.643 7  -2219227.10849  23678101.8614
 95  2  9 19 55  0.0100000  0  8 18 14 28 19 31 22 27 29
  23724139.330    -7499657.050 7  -5787136.36849  23724139.8924
  25983805.767    15770364.329 5  12378632.77749  25983809.7404
  26600893.760     -199015.405 5    -54180.98149  26600896.1504
  24674938.658    -5043106.109 7  -3864727.07049  24674940.9904
  26635654.932     -839572.155 5   -623405.13449  26635658.5414
  26777553.955    13278434.578 5  10453628.02249  26777556.2054
  27542580.182     -843577.472 3   -289671.35348  27542583.3464
  23690776.619    -2884735.972 7  -2167325.03449  23690777.1114
 95  2  9 19 55 30.0100000  0  8 18 14 28 19 31 22 27 29
  23726471.611    -7487402.317 7  -5777587.21549  23726472.0104
  26014062.533    15929364.958 5  12502529.30349  26014066.4244
  26603848.111     -183492.576 6    -42085.25549  26603849.6934
  24678019.471    -5026915.788 7  -3852111.20449  24678021.8264
  26630510.111     -866616.171 5   -644478.29249  26630512.6074
  26807186.822    13434156.328 5  10574969.62749  26807188.2754
  27539198.205     -861348.072 3   -303518.50348  27539202.4244
  23703528.330    -2817726.945 7  -2115110.22749  23703528.6584
 95  2  9 19 56  0.0100000  0  8 18 14 28 19 31 22 27 29
  23728869.307    -7474800.756 7  -5767767.80749  23728869.7284
  26044359.135    16088573.457 5  12626587.83649  26044361.8424
  26606883.775     -167541.150 5    -29655.54549  26606885.0294
  24681138.213    -5010525.437 7  -3839339.46049  24681140.0414
  26625390.611     -893515.168 5   -665438.47649  26625394.1854
  26836855.346    13590064.564 6  10696456.53249  26836856.9634
  27535828.924     -879053.253 3   -317314.72449  27535832.4864
  23716354.744    -2750322.836 7  -2062587.55949  23716355.1194
 95  2  9 19 56 30.0100000  0  8 18 14 28 19 31 22 27 29
  23731329.846    -7461873.968 7  -5757694.96749  23731330.2094
  26074695.580    16247989.350 5  12750807.94849  26074698.6624
  26609997.658     -151168.047 5    -16897.25049  26610000.3304
  24684297.400    -4993925.234 7  -3826404.21949  24684298.8304
  26620297.588     -920279.302 5   -686293.57849  26620299.8734
  26866556.010    13746143.156 6  10818076.20149  26866557.8144
  27532474.033     -896681.919 3   -331051.30749  27532478.0064
  23729257.986    -2682515.287 7  -2009750.51449  23729258.1974
 95  2  9 19 57  0.0100000  0  8 18 14 28 19 31 22 27 29
  23733846.494    -7448643.878 7  -5747385.79749  23733847.2564
  26105066.557    16407588.996 5  12875171.23549  26105069.1934
  26613192.791     -134382.798 5     -3817.89749  26613194.7954
  24687494.596    -4977125.260 7  -3813313.29449  24687496.0374
  26615231.916     -946900.738 5   -707037.51249  26615234.3774
  26896284.377    13902366.716 5  10939808.81649  26896286.6504
  27529136.557     -914218.512 3   -344716.13049  27529140.3654
  23742239.143    -2614298.816 7  -1956594.83549  23742239.5884
 95  2  9 19 57 30.0100000  0  8 18 14 28 19 31 22 27 29
  23736425.932    -7435092.753 7  -5736826.45949  23736426.4474
  26135472.205    16567374.483 5  12999679.34849  26135475.6154
  26616466.455     -117176.533 5      9589.68749  26616468.1434
  24690730.986    -4960116.809 7  -3800059.92849  24690732.1234
  26610196.275     -973360.505 5   -727655.46949  26610199.4984
  26926042.142    14058743.165 6  11061660.57349  26926044.0294
  27525819.572     -931646.985 3   -358296.73049  27525825.6074
  23755301.596    -2545655.606 7  -1903106.62249  23755302.0414
 95  2  9 19 58  0.0100000  0  8 18 14 28 19 31 22 27 29
  23739064.580    -7421225.143 7  -5726020.51349  23739065.0844
  26165911.783    16727334.600 5  13124323.52049  26165915.4394
  26619818.900      -99561.285 5     23315.88149  26619821.5604
  24694007.627    -4942897.135 7  -3786641.97649  24694009.1504
  26605190.541     -999666.907 5   -748153.91049  26605194.0104
  26955826.189    14215259.241 5  11183621.12349  26955827.6434
  27522522.080     -948977.888 3   -371801.28849  27522526.9434
  23768440.814    -2476609.067 7  -1849304.13249  23768441.3304
 95  2  9 19 58 30.0100000  0  8 18 14 28 19 31 22 27 29
  23741765.674    -7407029.395 7  -5714958.88249  23741766.2014
  26196379.377    16887443.432 5  13249083.60349  26196382.8814
  26623250.330      -81532.643 5     37364.17449  26623251.7954
  24697321.447    -4925482.390 7  -3773072.02849  24697323.3344
  26600216.205    -1025803.123 5   -768519.75249  26600219.3344
  26985636.096    14371912.916 5  11305688.90849  26985638.1114
  27519243.439     -966204.982 3   -385224.91148  27519248.0454
  23781655.611    -2407162.796 7  -1795190.16449  23781655.9864
 95  2  9 19 59  0.0100000  0  8 18 14 28 19 31 22 27 29
  23744530.267    -7392503.605 7  -5703640.07149  23744530.5604
  26226870.689    17047673.012 5  13373937.76149  26226875.1194
  26626758.861      -63095.251 5     51731.00849  26626760.5844
  24700667.471    -4907900.566 7  -3759371.88949  24700668.9474
  26595276.018    -1051764.735 5   -788749.53149  26595278.9714
  27015473.611    14528709.946 5  11427868.39849  27015475.9904
  27515984.463     -983336.267 3   -398573.92049  27515988.4004
  23794942.057    -2337342.407 7  -1740784.67549  23794942.5024
 95  2  9 19 59 30.0100000  0  7 18 14 28 19 31 22 29
  23747362.361    -7377617.804 7  -5692040.73049  23747362.7954
  26257386.150    17208035.314 5  13498895.34649  26257389.9124
  26630347.408      -44234.412 5     66427.78349  26630350.3854
  24704046.986    -4890140.297 7  -3745532.69749  24704048.2284
  26590370.791    -1077545.147 5   -808838.10449  26590373.2994
  27045343.869    14685676.389 5  11550179.86549  27045345.4634
  23808298.955    -2267151.307 7  -1686090.32949  23808299.2604
 95  2  9 20  0  0.0100000  0  8 18 14 28 19 31 22 27 29
  23750262.275    -7362381.002 7  -5680167.89149  23750262.7444
  26287923.557    17368512.845 5  13623942.71849  26287927.1074
  26634015.275      -24955.845 5     81450.04649  26634018.1114
  24707458.752    -4872212.777 7  -3731563.18949  24707459.6194
  26585495.658    -1103163.269 5   -828800.20249  26585498.2014
  27075244.650    14842807.999 5  11672620.06849  27075246.2214
  27509504.635      -13029.65114
  23821726.127    -2196593.297 7  -1631110.08049  23821726.5144
 95  2  9 20  0 30.0100000  0  8 18 14 28 19 31 22 27 29
  23753225.846    -7346807.517 7  -5668032.68649  23753226.3034
  26318480.330    17529088.350 5  13749066.44349  26318484.0334
  26637760.353       -5277.484 5     96783.84949  26637762.6854
  24710893.900    -4854159.167 7  -3717495.44149  24710895.3304
  26580647.088    -1128643.427 5   -848654.80449  26580650.1584
  27105174.143    15000088.435 5  11795176.22649  27105175.7954
  27506273.736      -30007.951 5     -5729.06559  27506277.9674
  23835220.432    -2125678.249 7  -1575851.60849  23835220.8894
 95  2  9 20  1  0.0110000  0  8 18 14 28 19 31 22 27 29
  23756258.218    -7330870.645 7  -5655614.32849  23756258.6514
  26349062.905    17689800.241 5  13874296.42449  26349066.5734
  26641583.608       14813.810 5    112439.45449  26641585.6244
  24714356.405    -4835962.407 7  -3703316.13749  24714358.4564
  26575826.429    -1153974.553 5   -868393.30349  26575828.7724
  27135134.976    15157533.367 5  11917860.55049  27135136.1594
  27503048.850      -46953.144 5    -18933.01749  27503052.5304
  23848786.710    -2054387.390 7  -1520300.29449  23848787.1324
 95  2  9 20  1 30.0110000  0  8 18 14 28 19 31 22 27 29
  23759362.538    -7314558.791 7  -5642903.78149  23759362.9834
  26379673.296    17850657.623 5  13999639.78649  26379676.5074
  26645487.265       35324.086 6    128421.51749  26645488.5424
  24717848.171    -4817613.811 7  -3689018.51549  24717849.7414
  26571036.343    -1179145.902 5   -888007.30649  26571039.8234
  27165123.999    15315126.195 5  12040660.16749  27165125.5584
  27499828.233      -63875.152 5    -32118.91549  27499831.6324
  23862427.702    -1982705.656 7  -1464444.40549  23862428.0774
 95  2  9 20  2  0.0110000  0  8 18 14 28 19 31 22 27 29
  23762536.460    -7297880.094 7  -5629907.38249  23762536.6244
  26410313.546    18011671.630 5  14125105.19749  26410316.7104
  26649469.929       56256.074 5    144732.19749  26649472.2724
  24721367.976    -4799119.258 7  -3674607.17349  24721369.0184
  26566278.335    -1204147.458 5   -907489.00249  26566281.2414
  27195139.624    15472860.581 5  12163570.01349  27195141.7924
  27496615.741      -80757.580 5    -45273.97349  27496620.1244
  23876144.850    -1910619.046 7  -1408273.03449  23876145.2024
 95  2  9 20  2 30.0110000  0  8 18 14 28 19 31 22 27 29
  23765780.163    -7280833.135 7  -5616624.02749  23765780.6084
  26440984.804    18172846.865 6  14250696.23649  26440987.8154
  26653534.741       77613.065 6    161374.06349  26653536.5224
  24724915.382    -4780476.428 7  -3660080.27749  24724916.3904
  26561557.249    -1228956.629 5   -926820.78749  26561559.8864
  27225179.038    15630717.338 5  12286575.20849  27225181.2884
  27493415.171      -97577.403 5    -58380.27649  27493418.7224
  23889938.827    -1838132.394 7  -1351789.93849  23889939.4954
 95  2  9 20  3  0.0110000  0  8 18 14 28 19 31 22 27 29
  23769091.710    -7263430.950 7  -5603063.87349  23769092.2024
  26471683.749    18334173.632 5  14376405.34449  26471686.3044
  26657680.241       99399.073 6    178350.21349  26657681.7294
  24728494.140    -4761670.855 7  -3645426.57949  24728495.2414
  26556875.429    -1253562.188 5   -945993.89849  26556878.3704
  27255240.975    15788691.127 5  12409671.64349  27255242.6984
  27490227.163     -114328.657 5    -71433.13249  27490230.5614
  23903811.593    -1765231.888 7  -1294984.35949  23903812.1084
 95  2  9 20  3 30.0110000  0  8 18 14 28 19 31 22 27 29
  23772469.311    -7245680.861 7  -5589232.62649  23772469.7334
  26502410.905    18495645.148 5  14502227.24649  26502413.2024
  26661910.085      121628.463 6    195671.85149  26661912.0654
  24732108.147    -4742680.998 7  -3630629.28449  24732109.1904
  26552234.077    -1277950.765 5   -964997.96349  26552236.3744
  27285324.577    15946783.957 5  12532860.85949  27285325.5854
  27487053.569     -131005.786 5    -84428.24549  27487057.0734
  23917764.772    -1691905.964 7  -1237847.28849  23917765.1714
 95  2  9 20  4  0.0110000  0  8 18 14 28 19 31 22 27 29
  23775914.124    -7227579.060 7  -5575127.32049  23775914.5464
  26533163.147    18657248.921 5  14628152.19749  26533165.6084
  26666225.694      144307.407 6    213343.79749  26666227.5114
  24735759.436    -4723491.407 7  -3615676.34649  24735760.6904
  26547634.921    -1302120.254 5   -983831.27549  26547636.9254
  27315433.046    16105005.860 5  12656150.61949  27315435.4254
  27483898.085     -147587.848 5    -97349.25449  27483901.2724
  23931799.390    -1618154.116 7  -1180378.32549  23931799.7414
 95  2  9 20  4 30.0110000  0  8 18 14 28 19 31 22 27 29
  23779425.960    -7209125.041 7  -5560747.55949  23779426.2654
  26563938.007    18818972.660 5  14754170.64549  26563940.7024
  26670625.710      167431.075 5    231362.26149  26670627.4214
  24739449.913    -4704097.594 7  -3600564.26449  24739451.4484
  26543074.733    -1326085.921 5  -1002505.79549  26543076.3154
  27345565.929    16263355.151 5  12779539.62849  27345567.9334
  27480758.257     -164087.501 5   -110206.06949  27480761.7144
  23945913.561    -1543982.963 7  -1122582.62949  23945913.9014
 95  2  9 20  5  0.0110000  0  8 18 14 28 19 31 22 27 29
  23783007.569    -7190303.472 7  -5546081.39449  23783008.2024
  26594737.218    18980824.443 5  14880288.85349  26594739.6794
  26675112.866      191010.732 5    249736.05549  26675114.6594
  24743180.804    -4684488.255 7  -3585284.23149  24743182.5974
  26538553.327    -1349844.550 5  -1021018.93149  26538555.7654
  27375724.257    16421836.892 5  12903031.83749  27375725.7104
  27477636.163     -180499.457 5   -122994.54649  27477639.1044
  23960109.288    -1469383.542 7  -1064453.22749  23960109.6044
 95  2  9 20  5 30.0110000  0  8 18 14 28 19 31 22 27 29
  23786662.827    -7171095.043 7  -5531113.77349  23786663.3314
  26625559.765    19142797.470 5  15006501.54249  26625562.7414
  26679685.499      215044.583 5    268463.77849  26679687.2924
  24746950.655    -4664680.329 7  -3569849.45849  24746952.5774
  26534070.233    -1373399.301 5  -1039373.28149  26534073.1514
  27405906.561    16580446.505 5  13026623.71749  27405908.4364
  27474529.405     -196822.553 5   -135713.78849  27474531.3974
  23974384.155    -1394368.106 7  -1005999.64749  23974384.7064
 95  2  9 20  6  0.0110000  0  8 18 14 28 19 31 22 27 29
  23790393.929    -7151487.427 7  -5515835.09949  23790394.3744
  26656404.405    19304888.139 5  15132805.90849  26656408.3434
  26684347.475      239536.275 6    287548.23549  26684349.3864
  24750752.772    -4644694.538 7  -3554276.09149  24750754.7534
  26529628.085    -1396744.671 5  -1057564.44949  26529631.2964
  27436115.554    16739196.653 5  13150325.12249  27436117.7224
  27471440.405     -213051.516 5   -148359.68849  27471444.2964
  23988738.366    -1318936.635 7   -947221.89149  23988738.9174
 95  2  9 20  6 30.0110000  0  8 18 14 28 19 31 22 27 29
  23794199.663    -7131489.161 7  -5500252.02549  23794200.0854
  26687270.866    19467093.799 5  15259199.89049  26687274.8514
  26689094.850      264484.449 6    306988.40349  26689095.9054
  24754587.983    -4624543.784 7  -3538574.17049  24754589.7184
  26525225.132    -1419886.334 6  -1075596.88049  26525227.7104
  27466347.186    16898064.199 5  13274118.01149  27466349.6364
  27468366.132     -229208.229 5   -160949.28949  27468370.1754
  24003170.108    -1243097.412 7   -888126.40149  24003170.7764
 95  2  9 20  7  0.0110000  0  8 18 14 28 19 31 22 27 29
  23798080.726    -7111091.879 7  -5484358.03949  23798081.1714
  26718156.233    19629397.905 5  15385670.57149  26718160.4994
  26693929.186      289892.752 5    326787.13849  26693930.6634
  24758452.163    -4604237.326 7  -3522750.92549  24758453.5694
  26520863.218    -1442810.493 6  -1093459.82249  26520865.5974
  27496600.663    17057047.242 5  13398000.83549  27496602.9484
  27465304.140     -245299.064 5   -173487.50749  27465307.5384
  24017679.858    -1166848.351 7   -828711.55749  24017680.4564
 95  2  9 20  7 30.0110000  0  8 18 14 28 19 31 22 27 29
  23802037.194    -7090301.500 7  -5468157.73549  23802037.7334
  26749058.460    19791787.077 5  15512207.52849  26749062.0814
  26698851.585      315757.380 5    346941.42749  26698852.7574
  24762345.921    -4583777.579 7  -3506808.24049  24762346.6834
  26516540.686    -1465523.270 6  -1111158.06449  26516542.9484
  27526878.679    17216158.020 5  13521983.20749  27526880.9294
  27462249.233     -261354.366 5   -185998.08749  27462252.7964
  24032265.874    -1090198.924 7   -768984.73449  24032266.5184
 95  2  9 20  8  0.0110000  0  8 18 14 28 19 31 22 27 29
  23806069.382    -7069113.183 7  -5451647.34549  23806069.8624
  26779981.171    19954285.324 5  15638829.48749  26779985.4254
  26703864.319      342098.801 5    367467.23049  26703865.5384
  24766276.444    -4563122.640 7  -3490713.45549  24766277.3934
  26512261.632    -1488006.312 5  -1128677.29449  26512264.3274
  27557180.710    17375397.430 5  13646065.82849  27557182.7374
  27459201.905     -277367.647 5   -198475.91749  27459205.3044
  24046931.632    -1013131.379 7   -708932.10849  24046932.2184
 95  2  9 20  8 30.0110000  0  8 18 14 28 19 31 22 27 29
  23810174.225    -7047542.400 7  -5434838.92949  23810174.6244
  26810924.999    20116897.719 5  15765540.38049  26810928.7374
  26708964.452      368900.606 5    388351.79649  26708965.9174
  24770243.319    -4542274.516 7  -3474468.13549  24770244.5504
  26508025.538    -1510268.759 6  -1146024.63049  26508027.5304
  27587501.975    17534734.220 5  13770224.35249  27587504.0154
  27456160.468     -293349.446 5   -210929.20549  27456163.8904
  24061674.772     -935653.520 7   -648559.75149  24061675.3934
 95  2  9 20  9  0.0110000  0  8 18 14 28 19 31 22 27 29
  23814353.905    -7025578.760 7  -5417724.40049  23814354.3864
  26841893.210    20279634.007 5  15892347.80649  26841896.7144
  26714153.561      396167.921 6    409599.09849  26714154.4994
  24774245.530    -4521240.583 7  -3458078.03049  24774247.4994
  26503834.569    -1532291.624 5  -1163185.25949  26503836.8314
  27617843.124    17694180.123 5  13894467.91149  27617845.4684
  27453128.757     -309277.932 5   -223340.95449  27453131.3704
  24076499.116     -857751.669 7   -587857.02649  24076499.6324
 95  2  9 20  9 30.0110000  0  8 18 14 28 19 31 22 27 29
  23818605.155    -7003236.088 7  -5400314.52349  23818605.3194
  26872886.405    20442506.192 5  16019261.13849  26872890.1204
  26719429.968      423902.301 5    431210.33549  26719431.6084
  24778284.350    -4500016.965 7  -3441540.10549  24778286.2494
  26499690.702    -1554069.616 6  -1180155.09849  26499692.2614
  27648204.319    17853727.421 5  14018790.48049  27648206.3824
  27450111.132     -325140.241 5   -235701.14349  27450114.4724
  24091404.866     -779422.251 7   -526821.11949  24091405.1594
 95  2  9 20 10  0.0110000  0  8 18 14 28 19 31 22 27 29
  23822933.218    -6980491.924 7  -5382591.78549  23822933.7804
  26903910.280    20605537.146 5  16146298.20449  26903912.9174
  26724801.272      452125.501 5    453202.48149  26724803.2064
  24782361.327    -4478594.455 7  -3424847.19849  24782362.7574
  26495598.421    -1575575.241 6  -1196912.68049  26495600.5424
  27678585.944    18013385.358 5  14143199.21849  27678588.3114
  27447114.866     -340882.495 5   -247967.77749  27447117.5264
  24106397.866     -700633.927 7   -465427.62349  24106398.3354
 95  2  9 20 10 30.0110000  0  8 18 14 28 19 31 22 27 29
  23827336.796    -6957350.899 7  -5364559.80449  23827337.1244
  26934959.772    20768703.237 5  16273440.55449  26934963.0654
  26730262.140      480822.269 5    475563.59949  26730263.7684
  24786468.405    -4457012.641 7  -3408030.16149  24786469.4364
  26491556.194    -1596818.332 6  -1213465.71349  26491558.8434
  27708989.515    18173156.754 5  14267696.36549  27708991.5894
  27444141.780     -356506.492 5   -260142.27749  27444143.5734
  24121475.069     -621400.122 7   -403686.99549  24121475.5154
 95  2  9 20 11  0.0110000  0  8 18 14 28 19 31 22 27 29
  23831815.241    -6933815.189 7  -5346220.28549  23831815.7334
  26966028.226    20931969.469 5  16400660.90549  26966032.0814
  26735812.436      509991.512 6    498292.91849  26735814.4874
  24790605.304    -4435271.578 7  -3391089.06049  24790606.4054
  26487562.515    -1617804.451 6  -1229818.52349  26487564.3784
  27739413.679    18333037.069 5  14392278.37449  27739415.5304
  27441188.233     -372024.068 5   -272233.87949  27441190.5074
  24136636.350     -541728.729 7   -341605.40649  24136636.9254
 95  2  9 20 11 30.0110000  0  8 18 14 28 19 31 22 27 29
  23836374.429    -6909856.376 7  -5327551.07649  23836374.9564
  26997116.741    21095340.122 5  16527962.65849  26997119.7654
  26741457.694      539655.384 6    521407.66149  26741458.7494
  24794778.991    -4413337.212 7  -3373997.32949  24794780.5154
  26483621.530    -1638515.695 6  -1245957.10849  26483623.8274
  27769861.968    18493042.528 6  14516957.92449  27769864.2764
  27438258.741     -387417.452 5   -284228.69149  27438262.8904
  24151882.288     -461611.060 7   -279176.07049  24151882.7924
 95  2  9 20 12  0.0110000  0  8 18 14 28 19 31 22 27 29
  23841017.366    -6885459.819 7  -5308540.76549  23841017.9404
  27028225.241    21258815.266 5  16655345.83149  27028228.4294
  26747197.163      569814.593 6    544908.33849  26747197.3504
  24798989.475    -4391212.691 7  -3356757.41449  24798990.7184
  26479732.116    -1658953.329 6  -1261882.53949  26479734.6124
  27800333.382    18653169.954 6  14641732.51949  27800335.8904
  27435352.397     -402694.605 5   -296132.91349  27435355.8544
  24167211.593     -381054.996 7   -216405.12149  24167211.9564
 95  2  9 20 12 30.0110000  0  8 18 14 28 19 31 22 27 29
  23845744.210    -6860618.728 7  -5289184.05649  23845744.9014
  27059354.530    21422400.345 5  16782814.66549  27059356.8744
  26753031.952      600484.560 5    568807.04349  26753035.1164
  24803240.468    -4368874.782 7  -3339351.22849  24803241.6044
  26475899.382    -1679093.621 6  -1277576.24249  26475900.4954
  27830828.100    18813422.522 6  14766604.63149  27830830.0224
  27432464.397     -417868.501 4   -307956.66449  27432469.0974
  24182624.522     -300059.326 7   -153291.62849  24182625.0264
 95  2  9 20 13  0.0110000  0  8 18 14 28 19 31 22 27 29
  23850555.249    -6835337.701 7  -5269484.54849  23850555.6364
  27090503.944    21586092.645 5  16910367.06549  27090506.8044
  26758968.515      631673.322 6    593110.00149  26758969.5464
  24807535.038    -4346307.137 7  -3321766.01949  24807536.3154
  26472126.421    -1698922.801 6  -1293027.49949  26472128.4724
  27861344.515    18973786.712 5  14891563.72049  27861346.5424
  27429593.952     -432952.441 4   -319710.30449  27429597.7264
  24198120.054     -218628.403 7    -89838.97249  24198120.6984
 95  2  9 20 13 30.0110000  0  8 18 14 28 19 31 22 27 29
  23855446.960    -6809630.979 7  -5249453.32949  23855447.3474
  27121676.054    21749902.892 5  17038011.35449  27121678.5264
  26764999.983      663375.229 6    617812.79049  26765001.8474
  24811869.632    -4323526.799 7  -3304015.08849  24811870.6164
  26468409.952    -1718447.031 6  -1308241.14049  26468411.8274
  27891880.397    19134253.418 5  15016602.70449  27891881.9214
  27426738.186     -447959.891 4   -331404.35649  27426741.0934
  24213697.624     -136769.675 7    -26052.96549  24213698.2804
 95  2  9 20 14  0.0110000  0  8 18 14 28 19 31 22 27 29
  23860418.358    -6783508.172 7  -5229097.88849  23860418.4644
  27152870.858    21913830.725 5  17165747.27449  27152873.9054
  26771132.054      695592.687 6    642917.33549  26771133.4954
  24816244.311    -4300535.893 7  -3286100.08449  24816245.5654
  26464753.358    -1737664.918 6  -1323216.07249  26464754.9294
  27922435.874    19294825.015 5  15141723.40349  27922437.8664
  27423893.507     -462909.978 5   -343053.71449  27423896.8474
  24229359.272      -54467.111 7     38078.88949  24229359.6834
 95  2  9 20 14 30.0110000  0  8 18 14 28 19 31 22 27 29
  23865468.968    -6756963.558 7  -5208413.77249  23865469.1904
  27184082.280    22077852.596 5  17293556.46449  27184085.7144
  26777359.616      728323.188 6    668421.63249  26777360.8474
  24820659.249    -4277336.722 7  -3268022.78949  24820660.6904
  26461152.850    -1756585.484 6  -1337959.34949  26461154.4444
  27953010.616    19455495.338 5  15266921.05048  27953012.5384
  27421058.421     -477805.316 5   -354660.41149  27421061.5614
  24245105.397       28279.210 7    102556.52049  24245105.8194
 95  2  9 20 15  0.0110000  0  8 18 14 28 19 31 22 27 29
  23870600.202    -6729997.515 7  -5187401.26049  23870600.6474
  27215309.280    22241953.634 5  17421427.36249  27215313.8624
  26783683.819      761556.006 6    694317.38949  26783685.0614
  24825109.983    -4253948.203 7  -3249797.95949  24825111.2264
  26457604.866    -1775231.800 6  -1352488.87949  26457606.7764
  27983600.975    19616248.859 4  15392183.52946  27983603.8584
  27418236.030     -492639.786 5   -366219.66849  27418239.1594
  24260934.874      111464.297 7    167376.05949  24260935.2374
 95  2  9 20 15 30.0120000  0  8 18 14 28 19 31 22 27 29
  23875814.582    -6702597.346 7  -5166050.46549  23875815.1444
  27246553.144    22406138.084 5  17549363.24249  27246556.7544
  26790103.871      795292.089 6    720605.25249  26790105.3714
  24829596.012    -4230372.859 7  -3231427.54649  24829597.3484
  26454107.543    -1793607.457 6  -1366807.54549  26454109.8874
  28014210.629    19777101.275 3  15517523.08348  28014213.5824
  27415426.715     -507395.573 5   -377717.63249  27415429.6214
  24276850.809      195102.374 7    232548.57049  24276851.1374
 95  2  9 20 16  0.0120000  0  8 18 14 28 19 31 22 27 29
  23881113.027    -6674754.233 7  -5144354.53149  23881113.5904
  27277806.441    22570371.511 5  17677337.29349  27277810.0164
  26796618.660      829529.460 6    747283.74749  26796620.0314
  24834117.894    -4206608.170 7  -3212909.60049  24834119.6524
  26450664.262    -1811703.555 6  -1380908.34849  26450666.6414
  28044837.519    19938046.505 3  15642934.90645  28044838.3164
  27412637.394     -522060.765 5   -389145.02149  27412640.5004
  24292851.293      279185.133 7    298067.59249  24292851.7974
 95  2  9 20 16 30.0120000  0  8 18 14 28 19 31 22 27 29
  23886493.121    -6646481.496 7  -5122323.81049  23886493.7424
  27309068.605    22734657.254 5  17805352.09149  27309072.4734
  26803228.098      864263.297 6    774349.12449  26803229.2934
  24838674.113    -4182664.949 7  -3194252.52849  24838676.1414
  26447273.262    -1829521.279 6  -1394792.25749  26447275.4654
  28075479.426    20099075.171 3  15768411.82845  28075479.7774
  27409867.715     -536614.886 5   -400485.84549  27409870.9374
  24308933.098      363695.704 7    363919.97949  24308933.6954
 95  2  9 20 17  0.0120000  0  8 18 14 28 19 31 22 27 29
  23891952.652    -6617793.494 7  -5099969.51449  23891953.2034
  27340343.769    22899004.388 5  17933414.74649  27340347.2264
  26809932.902      899497.594 6    801804.43649  26809935.0944
  24843264.168    -4158546.961 7  -3175459.28249  24843265.4694
  26443938.746    -1847045.224 6  -1408447.22749  26443940.9374
  28106141.793    20260202.564 2
  27407119.090     -551058.837 5   -411740.78049  27407122.0664
  24325098.738      448646.666 7    430115.52849  24325099.1374
 95  2  9 20 17 30.0120000  0  8 18 14 28 19 31 22 27 29
  23897491.894    -6588685.436 7  -5077287.90449  23897492.3634
  27371629.363    23063415.009 5  18061526.89449  27371633.1954
  26816734.629      935237.379 6    829653.65949  26816735.9654
  24847888.441    -4134247.149 7  -3156524.35349  24847889.5904
  26440661.363    -1864265.432 6  -1421865.51749  26440663.0514
  28136825.512    20421446.263 1
  27404390.223     -565398.226 5   -422914.26149  27404393.5864
  24341349.676      534047.330 7    496661.49349  24341350.0164
 95  2  9 20 18  0.0120000  0  8 18 14 28 19 31 22 27 29
  23903104.582    -6559187.703 7  -5054302.64349  23903105.1214
  27402924.449    23227871.058 5  18189674.37849  27402928.6684
  26823627.558      971462.928 6    857881.37949  26823628.7194
  24852542.551    -4109788.080 7  -3137465.32449  24852543.8284
  26437438.777    -1881204.599 6  -1435064.78849  26437440.9104
  28167523.715    20582760.513 1
  27401673.512     -579675.937 5   -434039.71449  27401677.0864
  24357681.793      619870.229 7    563536.46849  24357682.0044
 95  2  9 20 18 30.0120000  0  8 18 14 28 19 31 22 27 29
  23908796.316    -6529276.421 7  -5030995.14149  23908796.7264
  27434233.238    23392403.429 5  18317881.36949  27434237.5624
  26830619.082     1008199.862 6    886507.61849  26830620.9454
  24857231.113    -4085150.185 7  -3118266.94949  24857232.1684
  26434272.215    -1897840.970 6  -1448028.15249  26434273.9264
  28198233.863    20744147.767 1
  27398970.566     -593877.630 5   -445105.90849  27398974.8324
  24374098.160      706141.362 7    630760.72649  24374098.5004
 95  2  9 20 19  0.0120000  0  8 18 14 28 19 31 22 27 29
  23914570.199    -6498937.329 7  -5007354.27749  23914570.5984
  27465555.957    23556996.733 5  18446135.83649  27465559.6954
  26837706.207     1045445.308 6    915530.06449  26837706.8164
  24861954.613    -4060329.119 7  -3098925.85449  24861955.3984
  26431164.543    -1914174.153 6  -1460755.25249  26431166.3714
  28228958.394    20905605.660 1
  27396278.277     -608024.101 5   -456129.05249  27396282.4494
  24390600.801      792860.643 7    698334.18649  24390601.0474
 95  2  9 20 19 30.0120000  0  8 18 14 28 19 31 22 27 29
  23920425.496    -6468167.317 7  -4983377.63549  23920425.7424
  27496886.418    23721644.264 5  18574432.56649  27496890.9764
  26844890.160     1083198.054 6    944947.82049  26844891.4614
  24866712.394    -4035323.048 7  -3079440.58449  24866713.7774
  26428112.926    -1930207.604 6  -1473248.79849  26428115.5164
  28259690.012    21067104.150 1
  27393596.918     -622114.252 5   -467108.35349  27393599.8014
  24407185.152      880013.237 7    766245.29749  24407185.4574
 95  2  9 20 20  0.0120000  0  8 18 14 28 19 31 22 27 29
  23926359.668    -6436982.546 7  -4959077.80649  23926360.0784
  27528224.738    23886325.335 5  18702755.43649  27528228.8404
  26852169.105     1121447.199 6    974752.37949  26852169.7384
  24871502.363    -4010153.855 7  -3059828.21449  24871503.4534
  26425118.035    -1945949.019 6  -1485514.78349  26425119.8164
  28290422.637    21228613.708 1
  27390925.988     -636152.318 5   -478047.05349  27390929.3984
  24423848.418      967577.895 7    834477.48049  24423848.6294
 95  2  9 20 20 30.0120000  0  8 18 14 28 19 31 22 27 29
  23932372.574    -6405384.357 7  -4934455.82949  23932372.9844
  27559566.457    24051025.804 5  18831093.42549  27559570.3244
  26859540.777     1160187.243 6   1004939.43549  26859541.7264
  24876320.746    -3984831.959 7  -3040096.85949  24876321.4964
  26422178.551    -1961395.515 6  -1497550.94449  26422180.2854
  28321166.348    21390157.985 1
  27388268.879     -650119.573 5   -488930.56549  27388271.3054
  24440589.559     1055555.417 7    903031.39149  24440589.8054
 95  2  9 20 21  0.0120000  0  8 18 14 28 19 31 22 27 29
  23938462.246    -6373381.700 7  -4909518.67849  23938462.7854
  27590908.238    24215727.561 5  18959432.42349  27590912.1524
  26867004.855     1199409.968 6   1035502.61949  26867005.7114
  24881166.926    -3959364.434 7  -3020252.00849  24881168.1564
  26419295.558    -1976547.445 6  -1509357.58049  26419296.9184
  28351912.434       10767.14411
  27385622.918     -664024.033 5   -499765.14149  27385625.1214
  24457407.832     1143933.797 7    971897.65249  24457408.0434
 95  2  9 20 21 30.0120000  0  8 18 14 28 19 31 22 27 29
  23944626.699    -6340988.465 7  -4884277.18449  23944627.1334
  27622247.621    24380417.938 5  19087762.53249  27622251.2424
  26874557.433     1239105.169 6   1066433.96749  26874558.6994
  24886037.769    -3933772.025 7  -3000309.83949  24886038.7544
  26416465.566    -1991414.741 6  -1520942.41049  26416467.7344
  28382667.644      118502.92311
  27382986.465     -677873.991 5   -510557.27149  27382989.1604
  24474300.434     1232705.374 7   1041070.30549  24474300.5394
 95  2  9 20 22  0.0120000  0  7 18 14 28 19 31 27 29
  23950868.676    -6308185.419 7  -4858716.36149  23950868.8874
  27653584.926    24545099.784 5  19216085.99549  27653587.7854
  26882202.809     1279278.408 6   1097737.81149  26882203.3124
  24890932.926    -3908045.658 7  -2980263.30849  24890933.5354
  26413693.598    -2005982.382 6  -1532293.76749  26413695.9654
  27380361.730     -691664.384 5   -521302.97949  27380365.1414
  24491269.504     1321879.076 7   1110556.29349  24491269.3404
 95  2  9 20 22 30.0120000  0  7 18 14 28 19 31 27 29
  23957192.855    -6274952.280 7  -4832820.40249  23957193.0554
  27684922.957    24709782.224 5  19344409.91749  27684925.3594
  26889938.723     1319933.297 6   1129416.96749  26889939.9184
  24895857.090    -3882168.292 7  -2960099.10849  24895858.0274
  26410979.816    -2020240.820 6  -1543404.16349  26410982.3834
  27377745.660     -705409.319 5   -532013.25649  27377750.6174
  24508316.598     1411461.642 7   1180360.87949  24508316.6334
 95  2  9 20 23  0.0120000  0  7 18 14 28 19 31 27 29
  23963602.949    -6241267.255 7  -4806572.32849  23963603.5004
  27716262.613    24874471.197 5  19472738.92647  27716266.0004
  26897769.019     1361079.003 6   1161478.59049  26897770.1684
  24900812.980    -3856125.014 7  -2939805.61849  24900814.3284
  26408328.098    -2034179.138 6  -1554265.10949  26408328.9654
  27375137.449     -719120.210 5   -542697.03648  27375141.4694
  24525441.363     1501454.396 7   1250485.09849  24525441.5984
 95  2  9 20 23 30.0120000  0  7 18 14 28 19 31 27 29
  23970099.543    -6207127.820 7  -4779970.16249  23970099.8484
  27747603.683    25039165.030 5  19601071.77949  27747606.6134
  26905692.629     1402713.477 6   1193921.05749  26905692.4064
  24905799.855    -3829920.289 7  -2919386.32849  24905800.5234
  26405734.754    -2047804.684 6  -1564882.36449  26405737.6724
  27372534.246     -732798.972 5   -553355.71349  27372536.6254
  24542644.840     1591857.720 7   1320929.24449  24542644.8284
 95  2  9 20 24  0.0120000  0  7 18 14 28 19 31 27 29
  23976682.605    -6172534.198 7  -4753014.08049  23976683.0164
  27778942.613    25203858.295 5  19729404.13849  27778946.7504
  26913708.629     1444846.302 5   1226751.84749  26913710.9964
  24910818.512    -3803546.022 7  -2898834.93949  24910819.0274
  26403203.066    -2061109.147 6  -1575249.41249  26403204.3324
  27369938.434     -746443.050 5   -563987.45649  27369940.9884
  24559926.043     1682670.149 7   1391692.16749  24559926.0784
 95  2  9 20 24 30.0120000  0  7 18 14 28 19 31 27 29
  23983350.809    -6137494.071 7  -4725710.07949  23983351.2074
  27810282.715    25368547.323 5  19857733.15449  27810286.4064
  26921824.285     1487487.952 6   1259979.13549  26921824.7074
  24915869.512    -3777001.850 7  -2878151.14649  24915870.9414
  26400732.551    -2074092.583 6  -1585366.32049  26400734.9414
  27367350.066     -760044.333 5   -574585.80549  27367351.1444
  24577286.426     1773900.878 7   1462781.03449  24577286.4964
 95  2  9 20 25  0.0120000  0  7 18 14 28 19 31 27 29
  23990101.926    -6102015.602 7  -4698064.51049  23990102.2194
  27841622.308    25533241.844 4  19986066.49749  27841626.1294
  26930037.434     1530657.272 5   1293617.59949  26930040.8554
  24920954.699    -3750282.225 7  -2857330.63149  24920955.6834
  26398325.238    -2086739.433 6  -1595220.96349  26398327.0784
  27364775.652     -773572.760 5   -585127.38549  27364777.6094
  24594728.668     1865562.429 7   1534205.60849  24594728.7854
 95  2  9 20 25 30.0120000  0  7 18 14 28 19 31 27 29
  23996932.019    -6066122.090 7  -4670095.53649  23996932.3714
  27872962.340    25697931.411 5  20114395.97149  27872965.7154
  26938352.527     1574346.925 5   1327661.51649  26938352.9844
  24926070.098    -3723399.790 7  -2836383.26549  24926070.5554
  26395981.176    -2099062.484 6  -1604823.29149  26395982.6874
  27362213.246     -787032.563 5   -595615.47149  27362215.0624
  24612252.832     1957649.540 7   1605961.78449  24612253.0084
 95  2  9 20 26  0.0120000  0  7 18 14 28 19 31 27 29
  24003840.785    -6029815.586 7  -4641804.75149  24003841.0194
  27904302.621    25862628.742 5  20242731.50748  27904306.5944
  26946766.246     1618563.608 5   1362116.08149  26946769.1874
  24931216.277    -3696355.817 7  -2815310.02049  24931217.1334
  26393699.996    -2111046.745 6  -1614161.61449  26393702.6214
  27359666.621     -800417.476 5   -606045.22049  27359669.6914
  24629859.293     2050173.683 7   1678058.50849  24629859.4344
 95  2  9 20 26 30.0120000  0  7 18 14 28 19 31 27 29
  24010829.941    -5993087.158 7  -4613185.19349  24010830.1524
  27935648.933    26027352.800 5  20371087.85749  27935652.9184
  26955280.527     1663303.972 5   1396978.73949  26955281.7694
  24936392.082    -3669156.060 7  -2794115.38749  24936392.7504
  26391485.207    -2122689.493 6  -1623233.84349  26391486.8364
  27357133.473     -813727.580 5   -616416.68349  27357136.8124
  24647549.488     2143135.186 7   1750496.03749  24647549.5124
 95  2  9 20 27  0.0120000  0  7 18 14 28 19 31 27 29
  24017901.785    -5955924.304 7  -4584227.12149  24017902.0904
  27967002.535    26192115.687 5  20499474.46549  27967007.1644
  26963895.324     1708570.499 6   1432251.38049  26963895.8164
  24941598.363    -3641794.582 7  -2772794.73149  24941599.9454
  26389337.277    -2133972.649 6  -1632025.84749  26389339.3284
  27354616.394     -826957.724 5   -626725.83549  27354619.5474
  24665323.652     2236540.753 7   1823279.58449  24665323.7344
 95  2  9 20 27 30.0120000  0  7 18 14 28 19 31 27 29
  24025056.933    -5918324.274 7  -4554928.39449  24025057.4024
  27998360.098    26356903.578 5  20627880.58849  27998364.8554
  26972603.363     1754346.329 5   1467920.87249  26972606.2234
  24946832.230    -3614292.820 7  -2751364.76749  24946833.3444
  26387255.504    -2144910.868 6  -1640549.11149  26387257.0984
  27352112.394     -840119.460 6   -636981.69049  27352115.5124
  24683181.605     2330383.584 7   1896403.85649  24683181.8164
 95  2  9 20 28  0.0120000  0  7 18 14 28 19 31 27 29
  24032298.840    -5880268.562 7  -4525274.58849  24032299.2154
  28029724.918    26521724.155 5  20756312.13949  28029729.6994
  26981414.410     1800638.565 5   1503992.75349  26981415.6294
  24952093.098    -3586643.259 7  -2729819.64749  24952093.9534
  26385243.637    -2155488.194 6  -1648791.13049  26385244.8444
  27349622.590     -853201.856 6   -647175.71549  27349624.9924
  24701122.371     2424662.138 7   1969867.64749  24701122.6644
 95  2  9 20 28 30.0120000  0  7 18 14 28 19 31 27 29
  24039633.090    -5841726.808 7  -4495242.04649  24039633.3594
  28061094.887    26686576.701 5  20884768.65249  28061100.3244
  26990323.684     1847462.416 5   1540478.91349  26990327.2814
  24957388.074    -3558821.312 7  -2708140.19249  24957389.3634
  26383301.316    -2165691.492 6  -1656741.70349  26383303.5434
  27347151.394     -866188.505 6   -657295.12349  27347154.1374
  24719145.965     2519377.779 7   2043672.03349  24719146.1874
 95  2  9 20 29  0.0120000  0  7 18 14 28 19 31 27 29
  24047054.855    -5802724.306 7  -4464850.48249  24047055.0434
  28092464.754    26851421.740 5  21013219.30249  28092468.7154
  26999331.629     1894799.126 5   1577364.64749  26999333.0474
  24962711.262    -3530845.376 7  -2686340.74649  24962712.5864
  26381427.676    -2175539.964 6  -1664415.78649  26381429.0824
  27344693.215     -879103.150 6   -667358.41349  27344696.1444
  24737249.699     2614512.943 7   2117803.31349  24737250.1094
 95  2  9 20 29 30.0120000  0  7 18 14 28 19 31 27 29
  24054564.105    -5763263.989 7  -4434102.18749  24054564.1874
  28123829.504    27016248.472 5  21141655.67549  28123834.5554
  27008437.840     1942648.450 5   1614649.88049  27008439.5864
  24968065.941    -3502709.033 7  -2664416.31249  24968066.7384
  26379619.777    -2185037.481 6  -1671816.41649  26379621.5234
  27342247.934     -891952.790 6   -677371.07349  27342250.5704
  24755430.965     2710058.496 7   2192254.38849  24755431.5274
 95  2  9 20 30  0.0130000  0  7 18 14 28 19 31 27 29
  24062160.071    -5723346.464 7  -4402997.61749  24062160.3414
  28155189.642    27181043.229 4  21270067.09849  28155192.9344
  27017641.524     1991016.573 5   1652339.33049  27017642.5204
  24973453.290    -3474398.939 7  -2642356.48849  24973453.8294
  26377881.243    -2194175.517 6  -1678936.91049  26377883.1414
  27339811.931     -904751.862 6   -687344.31749  27339814.8494
  24773691.306     2806015.810 7   2267026.30449  24773691.7514
 95  2  9 20 30 30.0130000  0  7 18 14 28 19 31 27 29
  24069841.954    -5682978.039 7  -4371541.70049  24069842.2244
  28186539.056    27345786.822 3  21398438.69448  28186542.2784
  27026945.720     2039908.464 5   1690436.90949  27026947.5714
  24978875.649    -3445903.661 7  -2620152.34449  24978876.6104
  26376211.399    -2202949.661 6  -1685773.84149  26376213.1924
  27337385.524     -917505.843 6   -697282.42249  27337388.2084
  24792032.024     2902394.954 7   2342126.91449  24792032.6574
 95  2  9 20 31  0.0130000  0  7 18 14 28 19 31 27 29
  24077608.571    -5642163.600 7  -4339738.23249  24077608.9464
  28217880.345    27510485.281 3  21526775.09947  28217883.3804
  27036350.415     2089332.378 5   1728949.08049  27036351.4464
  24984335.860    -3417210.977 7  -2597794.40349  24984336.2944
  26374612.220    -2211352.907 6  -1692321.76149  26374613.5564
  27334968.681     -930206.032 6   -707178.60049  27334971.2594
  24810456.704     2999218.624 7   2417573.91449  24810457.1494
 95  2  9 20 31 30.0130000  0  7 18 14 28 19 31 27 29
  24085461.720    -5600894.418 7  -4307580.42649  24085461.9664
  28249210.767    27675131.129 3  21655070.46847  28249215.0674
  27045857.509     2139290.021 5   1767877.12149  27045858.3994
  24989832.907    -3388318.795 7  -2575280.99849  24989834.4314
  26373085.165    -2219378.938 6  -1698575.73849  26373087.2394
  27332561.923     -942854.766 6   -717034.68249  27332564.4314
  24828965.220     3096482.135 7   2493363.64949  24828965.4664
 95  2  9 20 32  0.0130000  0  7 18 14 28 19 31 27 29
  24093401.540    -5559171.071 7  -4275068.72249  24093401.8804
  28280530.634    27839716.575 3  21783318.79647  28280534.7004
  27055463.384     2189769.077 5   1807211.47749  27055463.7824
  24995363.063    -3359259.635 7  -2552637.47649  24995363.9314
  26371626.782    -2227040.581 6  -1704545.78249  26371628.3884
  27330162.673     -955460.371 5   -726857.15549  27330165.4624
  24847554.454     3194169.861 7   2569483.94049  24847554.8994
 95  2  9 20 32 30.0130000  0  7 18 14 28 19 31 27 29
  24101427.157    -5516997.525 8  -4242206.21649  24101427.4624
  28311839.681    28004246.278 3  21911523.70049  28311844.1814
  27065166.704     2240760.293 5   1846944.91349  27065167.7354
  25000922.188    -3330048.153 7  -2529875.27549  25000923.0204
  26370236.829    -2234346.365 6  -1710238.52549  26370238.4464
  27327774.321     -968009.237 5   -736635.42449  27327777.2744
  24866223.188     3292272.098 7   2645927.22149  24866223.8094
 95  2  9 20 33  0.0130000  0  7 18 14 28 19 31 27 29
  24109541.188    -5474356.449 7  -4208979.40349  24109541.6454
  28343140.368    28168735.442 3  22039696.99148  28343144.4464
  27074968.829     2292273.936 5   1887085.42549  27074970.4584
  25006507.696    -3300692.503 7  -2507000.72049  25006509.1964
  26368918.259    -2241275.675 6  -1715637.91149  26368920.1344
  27325401.087     -980480.459 5   -746353.18949  27325404.3564
  24884971.743     3390796.148 7   2722699.19649  24884972.1774
 95  2  9 20 33 30.0130000  0  7 18 14 28 19 31 27 29
  24117743.688    -5431252.585 7  -4175391.97749  24117744.2164
  28374432.673    28333178.011 3  22167833.96848  28374437.6184
  27084870.048     2344302.265 6   1927627.00949  27084870.3884
  25012117.274    -3271215.735 7  -2484031.79149  25012118.5754
  26367669.220    -2247835.291 6  -1720749.23249  26367671.4344
  27323038.485     -992896.664 5   -756028.06549  27323041.9194
  24903797.243     3489725.347 7   2799786.86549  24903797.7474
 95  2  9 20 34  0.0130000  0  7 18 14 28 19 31 27 29
  24126028.985    -5387714.196 7  -4141465.95649  24126029.5014
  28405714.071    28497558.959 4  22295922.92649  28405718.7594
  27094865.407     2396829.791 5   1968557.58849  27094866.5674
  25017748.759    -3241624.389 7  -2460973.58549  25017749.7204
  26366486.681    -2254050.476 6  -1725592.16049  26366487.9114
  27320683.610    -1005272.039 5   -765671.14049  27320686.2704
  24922699.048     3589054.027 7   2877185.81949  24922699.3414
 95  2  9 20 34 30.0130000  0  7 18 14 28 19 31 27 29
  24134396.337    -5343741.482 7  -4107201.51049  24134396.8764
  28436983.079    28661877.999 5  22423963.65249  28436986.7124
  27104959.056     2449872.910 5   2009889.89349  27104960.2744
  25023409.157    -3211878.950 7  -2437795.30349  25023409.7664
  26365373.743    -2259900.257 6  -1730150.36849  26365375.4314
  27318338.009    -1017598.891 5   -775276.41049  27318340.0484
  24941679.813     3688800.351 7   2954910.20549  24941680.3414
 95  2  9 20 35  0.0130000  0  8 18 14 28 19 31  2 27 29
  24142840.852    -5299366.525 7  -4072623.61849  24142841.3684
  28468233.899       87567.09915
  27115145.563     2503404.894 6   2051603.16149  27115146.8414
  25029095.548    -3181995.583 7  -2414509.55449  25029096.0634
  26364327.087    -2265401.251 6  -1734436.81349  26364328.8334
  28749598.798      -36542.621 5
  27315990.892    -1029931.519 5   -784886.17349  27315993.3524
  24960733.798     3788929.387 7   3032932.81549  24960734.3954
 95  2  9 20 35 30.0130000  0  8 18 14 28 19 31  2 27 29
  24151363.134    -5254582.218 8  -4037726.75949  24151363.7664
  28499466.329      251698.125 4
  27125427.079     2557436.060 5   2093705.39549  27125428.9194
  25034811.985    -3151954.836 7  -2391101.15349  25034812.9234
  26363349.188    -2270540.622 6  -1738441.45549  26363350.2904
  28742427.798      -74225.696 5    -13689.31359  28742432.5564
  27313643.829    -1042264.623 5   -794496.31749  27313647.0634
  24979860.227     3889438.655 7   3111251.71649  24979860.7314
 95  2  9 20 36  0.0130000  0  8 18 14 28 19 31  2 27 29
  24159965.415    -5209376.730 8  -4002501.70349  24159965.8134
  28530683.532      415745.408 4     76685.04059  28530689.1344
  27135805.517     2611972.451 6   2136201.29949  27135806.3724
  25040559.759    -3121749.447 7  -2367564.47149  25040560.5794
  26362443.595    -2275298.414 6  -1742148.77549  26362444.5444
  28735281.938     -111775.991 4    -42949.24949  28735286.5794
  27311300.243    -1054578.350 5   -804091.35849  27311303.3844
  24999059.931     3990333.572 7   3189871.11949  24999060.2704
 95  2  9 20 36 30.0130000  0  8 18 14 28 19 31  2 27 29
  24168649.251    -5163741.914 8  -3966942.10849  24168649.6384
  28561882.977                       27315.64213
  27146277.126     2667002.074 6   2179081.55749  27146277.7944
  25046332.071    -3091416.414 7  -2343928.34049  25046332.7864
  26361612.134    -2279663.354 6  -1745549.98149  26361614.3724
  28728158.618     -149209.341 4    -72118.03849  28728162.8954
  27308958.556    -1066882.459 5   -813678.92249  27308961.8844
  25018328.626     4091592.605 7   3268774.24649  25018329.1304
 95  2  9 20 37  0.0130000  0  8 18 14 28 19 31  2 27 29
  24177418.556    -5117657.846 7  -3931032.44349  24177419.0714
  28593069.579                      191201.245 3
  27156844.290     2722531.910 6   2222351.58049  27156844.5134
  25052123.813    -3060979.481 7  -2320211.22849  25052124.7394
  26360857.204    -2283632.070 6  -1748642.44649  26360858.9274
  28721055.634     -186533.620 3   -101201.83249  28721061.0364
  27306621.563    -1079166.996 5   -823251.22049  27306624.2594
  25037669.587     4193229.155 7   3347971.54649  25037669.9854
 95  2  9 20 37 30.0130000  0  8 18 14 28 19 31  2 27 29
  24186271.626    -5071136.032 8  -3894781.67749  24186272.0484
  28624238.876      354992.032 3    102092.15355  28624243.2474
  27167503.001     2778542.740 6   2265996.39749  27167503.9624
  25057927.204    -3030482.146 7  -2296447.05749  25057927.7904
  26360172.891    -2287226.696 6  -1751443.41949  26360175.1774
  28713967.352     -223788.647 4   -130231.68048  28713970.8334
  27304289.040    -1091426.946 5   -832804.37149  27304291.3134
  25057081.860     4295239.952 7   3427460.45849  25057082.2824
 95  2  9 20 38  0.0130000  0  8 18 14 28 19 31  2 27 29
  24195212.126    -5024153.718 8  -3858172.08449  24195212.4194
  28655389.774      518694.355 1    229652.34545  28655395.1414
  27178254.157     2835042.583 5   2310022.24849  27178255.2474
  25063743.431    -2999919.269 7  -2272631.82249  25063744.1104
  26359560.548    -2290447.487 6  -1753953.08349  26359561.6734
  28706890.532     -260972.537 3   -159206.09347  28706894.3064
  27301963.173    -1103648.094 5   -842327.25949  27301965.0364
  25076569.056     4397645.444 7   3507256.93149  25076569.3494
 95  2  9 20 38 30.0130000  0  8 18 14 28 19 31  2 27 29
  24204242.079    -4976701.076 8  -3821195.99849  24204242.3494
  28686526.595      682318.882 2    357151.87945  28686529.3604
  27189103.235     2892051.535 6   2354444.81149  27189104.2554
  25069576.313    -2969266.880 7  -2248746.83349  25069577.2044
  26359021.017    -2293281.806 6  -1756161.59949  26359022.3294
  28699832.376     -298063.689 3   -188108.22848  28699835.7274
  27299648.126    -1115811.435 5   -851805.13049  27299650.7984
  25096134.157     4500462.966 7   3587374.47149  25096134.4384
 95  2  9 20 39  0.0130000  0  8 18 14 28 19 31  2 27 29
  24213359.556    -4928788.496 8  -3783861.51849  24213359.7084
  28717648.634      845869.703 2
  27200050.985     2949583.747 6   2399275.13649  27200050.6104
  25075432.884    -2938489.049 7  -2224764.10049  25075433.4704
  26358554.806    -2295731.765 6  -1758070.61149  26358556.1064
  28692795.446     -335039.173 3   -216920.25147  28692799.9584
  27297345.407    -1127909.642 5   -861232.23049  27297348.6774
  25115780.798     4603705.445 7   3667823.14149  25115781.2784
 95  2  9 20 39 30.0130000  0  8 18 14 28 19 31  2 27 29
  24222561.321    -4880431.299 7  -3746180.58849  24222561.6264
  28748753.907     1009324.459 2
  27211096.704     3007629.718 5   2444505.78749  27211098.0634
  25081316.579    -2907572.922 7  -2200673.59649  25081317.2824
  26358160.985    -2297802.381 6  -1759684.02649  26358162.2274
  28685783.446     -371888.148 3   -245633.62348  28685786.0954
  27295053.118    -1139956.833 5   -870619.58549  27295056.3174
  25135503.321     4707348.978 7   3748584.32249  25135503.9544
 95  2  9 20 40  0.0130000  0  8 18 14 28 19 31  2 27 29
  24231851.321    -4831612.076 7  -3708139.62949  24231851.7664
  28779843.548     1172702.222 3
  27222242.993     3066206.387 5   2490149.94149  27222244.7394
  25087234.095    -2876474.778 7  -2176441.27249  25087234.3294
  26357841.368    -2299479.354 6  -1760990.70049  26357843.4774
  28678802.587     -408571.980 3   -274218.33547  28678806.2204
  27292768.720    -1151962.748 5   -879974.77649  27292771.7784
  25155301.610     4811389.604 7   3829654.93349  25155301.9854
 95  2  9 20 40 30.0130000  0  8 18 14 28 19 31  2 27 29
  24241229.391    -4782330.104 7  -3669738.08549  24241229.6144
  28810923.009     1336020.670 3     89072.47157  28810926.7124
  27233495.048     3125333.938 6   2536223.36749  27233496.8524
  25093189.438    -2845176.788 7  -2152053.21349  25093190.4344
  26357602.532    -2300736.158 6  -1761969.97949  26357603.8684
  28671859.337     -445058.996 3   -302649.71148  28671865.2084
  27290493.181    -1163919.424 5   -889291.59349  27290495.8644
  25175180.337     4915850.106 7   3911052.71349  25175180.8644
 95  2  9 20 41  0.0130000  0  7 18 28 19 31  2 27 29
  24250696.563    -4732580.299 7  -3630971.99449  24250696.9854
  27244849.360     3185001.465 6   2582717.56149  27244850.6494
  25099180.235    -2813697.366 7  -2127523.77149  25099180.9384
  26357441.524    -2301581.034 6  -1762628.28049  26357443.0484
  28664953.743     -481353.823 3   -330931.28946  28664958.3134
  27288224.165    -1175844.170 5   -898583.53149  27288226.5204
  25195137.556     5020727.545 7   3992775.37649  25195138.1304
 95  2  9 20 41 30.0130000  0  7 18 28 19 31  2 27 29
  24260256.259    -4682342.546 7  -3591825.68649  24260256.5284
  27256305.352     3245201.596 6   2629626.78149  27256306.6064
  25105202.048    -2782053.941 7  -2102866.55349  25105202.1304
  26357360.759    -2302005.370 6  -1762958.89449  26357362.6224
  28658080.790     -517467.610 3   -359071.85246  28658085.3024
  27285960.602    -1187736.891 5   -907850.52049  27285962.8064
  25215174.946     5126023.411 7   4074824.08849  25215175.4274
 95  2  9 20 42  0.0130000  0  7 18 28 19 31  2 27 29
  24269911.040    -4631606.225 7  -3552290.88849  24269911.2744
  27267864.548     3305948.407 6   2676961.97549  27267866.1184
  25111255.845    -2750240.788 7  -2078077.07649  25111256.1264
  26357362.079    -2301995.454 6  -1762951.12749  26357363.6844
  28651244.563     -553392.464 3   -387065.15947  28651249.5204
  27283708.610    -1199571.825 5   -917072.46349  27283711.4234
  25235297.837     5231771.294 7   4157225.02349  25235298.4114
 95  2  9 20 42 30.0130000  0  7 18 28 19 31  2 27 29
  24279656.063    -4580395.469 7  -3512386.40449  24279656.6144
  27279523.712     3367217.546 6   2724704.18849  27279524.6844
  25117333.173    -2718303.678 7  -2053190.99749  25117333.3954
  26357442.915    -2301573.159 6  -1762622.03849  26357444.3454
  28644438.290     -589160.768 4   -414936.49548  28644440.3414
  27281465.556    -1211355.793 5   -926254.69449  27281468.5794
  25255506.087     5337966.499 7   4239974.52249  25255506.6264
 95  2  9 20 43  0.0130000  0  7 18 28 19 31  2 27 29
  24289496.743    -4528683.004 7  -3472090.97349  24289497.1534
  27291284.102     3429018.200 6   2772860.57849  27291285.3564
  25123437.688    -2686225.025 7  -2028194.64849  25123437.8174
  26357605.048    -2300724.221 6  -1761960.45949  26357606.0674
  28637661.626     -624773.802 4   -442686.80748  28637663.9464
  27279236.102    -1223073.256 5   -935385.11749  27279239.0564
  25275798.048     5444602.682 7   4323067.64149  25275798.6924
 95  2  9 20 43 30.0130000  0  7 18 28 19 31  2 27 29
  24299427.454    -4476496.456 7  -3431426.13149  24299427.9814
  27303144.142     3491343.559 6   2821425.80649  27303144.9154
  25129568.470    -2654002.963 7  -2003086.52749  25129569.8414
  26357845.821    -2299459.868 6  -1760975.21049  26357846.8064
  28630912.056     -660241.877 5   -470324.19849  28630915.8644
  27277020.438    -1234719.702 6   -944460.20249  27277022.5134
  25296171.321     5551665.416 7   4406493.13149  25296172.0714
 95  2  9 20 44  0.0140000  0  7 18 28 19 31  2 27 29
  24309443.982    -4423859.258 7  -3390410.13849  24309444.5454
  27315102.928     3554187.018 6   2870394.77649  27315103.8894
  25135726.021    -2621647.684 7  -1977874.59149  25135727.3924
  26358162.787    -2297792.138 6  -1759675.63849  26358163.9004
  28624190.396     -695564.193 5   -497848.00949  28624193.7604
  27274815.185    -1246308.552 6   -953490.41549  27274817.1314
  25316621.443     5659131.357 7   4490232.80549  25316621.9944
 95  2  9 20 44 30.0140000  0  7 18 28 19 31  2 27 29
  24319549.998    -4370753.138 7  -3349028.74549  24319550.4674
  27327161.740     3617557.068 6   2919774.06949  27327162.9124
  25141911.162    -2589143.980 7  -1952547.01549  25141911.7134
  26358561.662    -2295693.125 6  -1758040.02149  26358563.1394
  28617497.185     -730738.064 5   -525256.12149  28617500.5724
  27272622.217    -1257831.991 6   -962469.65649  27272624.5024
  25337144.443     5766979.235 7   4574270.10249  25337145.0644
 95  2  9 20 45  0.0140000  0  7 18 28 19 31  2 27 29
  24329744.959    -4317179.382 8  -3307282.97349  24329745.2524
  27339322.170     3681460.498 6   2969568.97149  27339323.3534
  25148130.912    -2556463.691 7  -1927081.83249  25148131.2404
  26359046.185    -2293146.601 6  -1756055.69149  26359047.6504
  28610832.615     -765761.178 5   -552546.81749  28610836.2604
  27270441.365    -1269290.423 6   -971398.24849  27270442.6664
  25357737.709     5875196.522 7   4658595.24349  25357738.2484
 95  2  9 20 45 30.0140000  0  7 18 28 19 31  2 27 29
  24340026.920    -4263147.893 8  -3265180.52149  24340027.2364
  27351583.818     3745898.662 6   3019780.54749  27351585.0374
  25154382.162    -2523609.274 7  -1901480.98449  25154381.7524
  26359619.139    -2290133.495 6  -1753707.79549  26359620.5214
  28604197.912     -800626.174 5   -579714.28249  28604201.4044
  27268272.842    -1280688.364 6   -980279.70149  27268274.5414
  25378402.959     5983795.325 7   4743217.67249  25378403.5334
 95  2  9 20 46  0.0140000  0  7 18 28 19 31  2 27 29
  24350402.139    -4208624.491 8  -3222694.75549  24350402.6424
  27363949.881     3810881.614 6   3070416.62749  27363950.6784
  25160668.115    -2490575.538 7  -1875740.39249  25160668.2914
  26360285.803    -2286630.150 6  -1750977.91649  26360287.0334
  28597593.599     -835326.652 4   -606753.55549  28597597.6074
  27266112.842    -1292034.451 6   -989120.74249  27266114.8694
  25399144.287     6092790.422 7   4828148.89549  25399144.8504
 95  2  9 20 46 30.0140000  0  7 18 28 19 31  2 27 29
  24360871.685    -4153605.679 8  -3179822.95649  24360872.2014
  27376419.178     3876406.396 6   3121474.93049  27376419.6704
  25166987.842    -2457361.848 7  -1849859.56849  25166988.9904
  26361044.623    -2282644.546 6  -1747872.22349  26361046.4634
  28591017.982     -869888.135 5   -633684.53349  28591021.1584
  27263961.396    -1303341.131 5   -997931.06649  27263963.7754
  25419962.959     6202193.047 7   4913397.66949  25419963.3574
 95  2  9 20 47  0.0140000  0  7 18 28 19 31  2 27 29
  24371437.467    -4098083.378 8  -3136558.82449  24371437.8304
  27388993.310     3942487.713 6   3172966.88849  27388994.2834
  25173343.185    -2423968.296 7  -1823838.59649  25173343.7714
  26361895.006    -2278178.318 6  -1744392.03449  26361895.9784
  28584473.162     -904277.101 5   -660481.08149  28584477.0064
  27261819.185    -1314599.389 5  -1006703.66649  27261821.1894
  25440866.639     6312040.985 7   4998993.44649  25440866.9434
 95  2  9 20 47 30.0140000  0  7 18 28 19 31  2 27 29
  24382098.303    -4042060.208 8  -3092904.41549  24382098.6894
  27401672.560     4009114.005 6   3224883.47549  27401673.9204
  25179725.123    -2390428.307 7  -1797703.51949  25179725.6744
  26362831.912    -2273253.545 6  -1740554.53449  26362832.7214
  28577960.185     -938502.810 4   -687150.37049  28577965.2714
  27259683.826    -1325820.212 5  -1015447.09549  27259686.7564
  25461854.045     6422332.583 7   5084934.92749  25461854.4324
 95  2  9 20 48  0.0140000  0  7 18 28 19 31  2 27 29
  24392853.490    -3985541.746 8  -3048864.06549  24392853.9594
  27414452.459     4076272.542 6   3277214.79049  27414453.1854
  25186132.248    -2356761.977 7  -1771469.99549  25186133.0334
  26363849.357    -2267906.492 6  -1736387.98049  26363849.9784
  28571474.685     -972584.173 4   -713707.19249  28571479.9354
  27257552.654    -1337019.633 6  -1024173.85349  27257554.5294
  25482921.646     6533043.193 7   5171202.91549  25482921.9284
 95  2  9 20 48 30.0140000  0  7 18 28 19 31  2 27 29
  24403700.178    -3928542.012 8  -3004448.69849  24403700.6004
  27427333.357     4143962.154 6   3329959.95149  27427333.7324
  25192561.850    -2322971.033 7  -1745139.38349  25192562.0374
  26364947.560    -2262136.307 6  -1731891.71149  26364948.2644
  28565016.943    -1006516.891 3   -740148.17949  28565021.6664
  27255428.373    -1348184.029 6  -1032873.32449  27255429.8034
  25504066.295     6644157.967 7   5257785.82349  25504066.7284
 95  2  9 20 49  0.0140000  0  7 18 28 19 31  2 27 29
  24414638.037    -3871063.929 8  -2959660.58149  24414638.5884
  27440314.209     4212178.288 6   3383115.38949  27440315.0884
  25199014.975    -2289057.356 7  -1718713.12949  25199015.8894
  26366128.639    -2255925.311 6  -1727051.94449  26366129.6464
  28558591.498    -1040285.613 3   -766461.35649  28558594.2174
  27253312.264    -1359302.814 6  -1041537.27149  27253313.6704
  25525285.701     6755668.636 7   5344677.22449  25525286.2054
 95  2  9 20 49 30.0140000  0  7 18 28 19 31  2 27 29
  24425669.154    -3813094.335 8  -2914489.47249  24425669.5884
  27453395.576     4280920.296 6   3436680.59249  27453396.1854
  25205495.420    -2255009.635 7  -1692182.42049  25205495.8074
  26367398.498    -2249254.078 6  -1721853.53849  26367400.0334
  28552195.014    -1073897.447 4   -792652.30049  28552199.1974
  27251206.310    -1370371.620 6  -1050162.26549  27251207.1894
  25546578.920     6867564.114 7   5431868.47649  25546579.3074
 95  2  9 20 50  0.0140000  0  7 18 28 19 31  2 27 29
  24436792.732    -3754641.020 8  -2868941.43549  24436793.0604
  27466575.350     4350178.514 6   3490648.03049  27466575.8304
  25211998.334    -2220834.121 7  -1665552.15749  25211998.3574
  26368757.592    -2242114.855 6  -1716290.48649  26368758.6704
  28545828.131    -1107354.593 5   -818722.72349  28545832.3144
  27249109.834    -1381387.165 6  -1058745.75049  27249111.3694
  25567944.764     6979841.233 7   5519357.11749  25567945.2324
 95  2  9 20 50 30.0140000  0  7 18 28 19 31  2 27 29
  24448010.264    -3695690.699 8  -2823006.12349  24448010.6974
  27479854.959     4419964.232 6   3545026.52249  27479855.4754
  25218530.685    -2186505.992 7  -1638802.94749  25218531.5644
  26370209.006    -2234484.234 6  -1710344.51549  26370210.6934
  28539494.279    -1140637.958 5   -844657.72849  28539498.2874
  27247028.670    -1392321.553 6  -1067266.00349  27247030.6854
  25589387.271     7092522.503 7   5607160.68149  25589387.8574
 95  2  9 20 51  0.0140000  0  7 18 28 19 31  2 27 29
  24459323.326    -3636240.799 8  -2776681.52749  24459323.7954
  27493235.443     4490278.610 6   3599816.95949  27493236.2284
  25225091.771    -2152024.496 7  -1611934.25649  25225092.1584
  26371754.803    -2226364.665 6  -1704017.53049  26371756.1154
  28533195.201    -1173743.211 5   -870453.95949  28533198.0254
  27244962.435    -1403179.253 6  -1075726.49149  27244964.6854
  25610910.201     7205626.326 7   5695293.51749  25610910.7874
 95  2  9 20 51 30.0140000  0  7 18 28 19 31  2 27 29
  24470730.396    -3576295.129 8  -2729970.61549  24470730.9244
  27506715.303     4561119.262 6   3655017.47249  27506716.3344
  25231681.396    -2117400.955 7  -1584954.84649  25231681.2444
  26373388.615    -2217778.109 6  -1697326.66649  26373389.4714
  28526929.287    -1206669.391 5   -896110.62249  28526933.0024
  27242909.521    -1413968.958 6  -1084134.01549  27242911.1504
  25632511.084     7319137.261 7   5783743.57149  25632511.4594
 95  2  9 20 52  0.0140000  0  7 18 28 19 31  2 27 29
  24482230.709    -3515861.548 8  -2682879.51149  24482231.1784
  27520296.724     4632486.624 6   3710628.42549  27520297.5684
  25238297.006    -2082630.510 7  -1557861.01349  25238297.3344
  26375109.834    -2208732.412 6  -1690278.03449  26375110.7834
  28520698.685    -1239410.614 5   -921623.20849  28520702.3774
  27240867.240    -1424704.238 6  -1092499.10749  27240868.7174
  25654187.967     7433051.153 7   5872507.60849  25654188.3774
 95  2  9 20 52 30.0140000  0  7 18 28 19 31  2 27 29
  24493824.381    -3454937.143 8  -2635405.94849  24493824.9204
  27533979.849     4704392.791 6   3766659.22549  27533980.5644
  25244946.826    -2047689.692 7  -1530634.36649  25244947.9984
  26376919.264    -2199222.796 6  -1682867.89749  26376920.4944
  28514505.998    -1271952.470 5   -946980.44649  28514509.9004
  27238833.326    -1435390.568 6  -1100826.06549  27238834.3924
  25675942.678     7547374.296 7   5961590.55749  25675943.2284
 95  2  9 20 53  0.0140000  0  7 18 28 19 31  2 27 29
  24505509.795    -3393528.353 8  -2587554.94549  24505510.2174
  27547765.896     4776839.041 6   3823110.85449  27547766.6234
  25251626.014    -2012587.066 7  -1503281.66349  25251626.6934
  26378816.943    -2189250.768 6  -1675097.44849  26378818.0924
  28508354.115    -1304280.558 5   -972171.07949  28508357.5254
  27236806.435    -1446037.976 6  -1109122.69449  27236807.6664
  25697774.185     7662099.690 7   6050986.95649  25697774.8894
 95  2  9 20 53 30.0140000  0  7 18 28 19 31  2 27 29
  24517288.990    -3331627.876 8  -2539320.80349  24517289.3774
  27561655.162     4849828.440 6   3879985.73049  27561656.3924
  25258338.389    -1977316.726 7  -1475798.26549  25258338.9044
  26380804.490    -2178808.283 6  -1666960.40349  26380805.6154
  28502243.162    -1336394.328 5   -997194.72749  28502245.9284
  27234788.053    -1456643.677 6  -1117386.82049  27234790.1854
  25719679.248     7777210.687 7   6140683.82549  25719679.9754
 95  2  9 20 54  0.0140000  0  7 18 28 19 31  2 27 29
  24529161.810    -3269237.382 8  -2490704.83049  24529162.1854
  27575647.217     4923357.435 6   3937281.06849  27575647.5454
  25265082.607    -1941874.717 7  -1448181.11749  25265082.9474
  26382882.631    -2167887.000 6  -1658450.27149  26382883.5454
  28496168.920    -1368315.837 5  -1022068.53249  28496172.0024
  27232778.248    -1467206.973 6  -1125617.91749  27232780.1584
  25741659.217     7892717.413 7   6230689.03849  25741659.9204
 95  2  9 20 54 30.0140000  0  7 18 28 19 31  2 27 29
  24541125.678    -3206366.017 8  -2441714.16349  24541125.9474
  27589740.529     4997417.048 6   3994989.87349  27589741.2214
  25271856.732    -1906274.908 7  -1420440.98049  25271857.6464
  26385049.951    -2156498.008 7  -1649575.69049  26385050.8774
  28490129.123    -1400055.957 5  -1046801.02649  28490132.5924
  27230778.810    -1477716.677 6  -1133807.25749  27230780.2524
  25763712.935     8008610.826 7   6320995.57149  25763713.7444
 95  2  9 20 55  0.0140000  0  7 18 28 19 31  2 27 29
  24553181.350    -3143013.014 8  -2392348.19649  24553181.7834
  27603932.373     5071995.695 6   4053103.12449  27603933.3814
  25278657.240    -1870537.727 7  -1392593.81849  25278657.5924
  26387307.045    -2144638.619 7  -1640334.56049  26387307.5724
  28484120.771    -1431630.742 5  -1071404.70349  28484124.1824
  27228787.857    -1488178.482 6  -1141959.25949  27228789.2404
  25785837.021     8124871.996 7   6411588.67749  25785837.6784
 95  2  9 20 55 30.0140000  0  7 18 28 19 31  2 27 29
  24565330.748    -3079166.908 8  -2342597.99449  24565331.2754
  27618225.084     5147103.776 6   4111628.90249  27618226.1034
  25285487.045    -1834648.331 7  -1364628.04049  25285487.6424
  26389657.256    -2132281.883 6  -1630705.89849  26389657.9944
  28478141.982    -1463049.982 5  -1095887.16849  28478145.0884
  27226808.709    -1498577.959 6  -1150062.66949  27226810.1974
  25808033.896     8241516.311 7   6502480.32349  25808034.5884
 95  2  9 20 56  0.0140000  0  7 18 28 19 31  2 27 29
  24577572.974    -3014834.269 8  -2292468.66249  24577573.5374
  27632617.717     5222737.327 6   4170564.14549  27632618.3384
  25292343.607    -1798615.473 7  -1336550.47549  25292344.6154
  26392104.498    -2119423.886 6  -1620686.63749  26392105.6584
  28472192.428    -1494309.744 5  -1120245.35149  28472196.5644
  27224840.357    -1508921.911 6  -1158122.83849  27224841.6584
  25830306.685     8358560.776 7   6593683.77649  25830307.1784
 95  2  9 20 56 30.0140000  0  7 18 28 19 31  2 27 29
  24589902.834    -2950039.525 8  -2241979.25049  24589903.5254
  27647106.803     5298878.532 6   4229894.96649  27647107.7524
  25299222.209    -1762469.091 7  -1308384.45549  25299222.6314
  26394643.568    -2106077.097 6  -1610286.50949  26394644.7284
  28466274.396    -1525409.275 5  -1144478.69049  28466279.2604
  27222878.771    -1519228.790 6  -1166154.11749  27222880.4124
  25852650.732     8475979.525 7   6685178.88449  25852651.1784
 95  2  9 20 57  0.0140000  0  7 18 28 19 31  2 27 29
  24602320.303    -2884785.834 8  -2191132.22049  24602320.9004
  27661691.131     5375519.654 6   4289615.32049  27661692.1154
  25306119.545    -1726221.492 7  -1280139.55149  25306120.5644
  26397278.693    -2092232.336 6  -1599498.33349  26397279.6074
  28460383.100    -1556368.762 5  -1168602.90949  28460387.3894
  27220919.904    -1529520.988 6  -1174173.95549  27220921.7564
  25875063.779     8593761.949 7   6776957.37649  25875064.4594
 95  2  9 20 57 30.0140000  0  7 18 28 19 31  2 27 29
  24614822.498    -2819086.644 8  -2139938.04949  24614823.1194
  27676368.662     5452652.897 6   4349719.14149  27676369.4474
  25313035.787    -1689879.532 7  -1251821.13049  25313036.2444
  26400003.818    -2077912.049 6  -1588339.63749  26400004.6154
  28454515.779    -1587196.602 5  -1192624.54849  28454519.8224
  27218962.107    -1539811.039 6  -1182192.12249  27218963.7364
  25897546.537     8711910.902 7   6869021.47949  25897547.3464
 95  2  9 20 58  0.0140000  0  7 18 28 19 31  2 27 29
  24627409.115    -2752943.957 8  -2088398.30049  24627409.6664
  27691137.178     5530262.175 6   4410193.89249  27691138.5844
  25319965.514    -1653461.826 7  -1223443.68549  25319966.3574
  26402812.685    -2063149.612 6  -1576836.40549  26402813.4594
  28448675.123    -1617893.154 5  -1216543.88549  28448678.6624
  27217000.170    -1550121.792 6  -1190226.43549  27217001.7644
  25920095.303     8830402.903 7   6961352.88149  25920095.9594
 95  2  9 20 58 30.0150000  0  7 18 28 19 31  2 27 29
  24640079.636    -2686359.470 8  -2036514.27949  24640080.1284
  27705994.558     5608337.301 6   4471031.64949  27705996.0224
  25326910.683    -1616965.081 7  -1195004.64549  25326911.4564
  26405703.417    -2047961.213 7  -1565001.24149  26405704.4604
  28442854.034    -1648480.476 5  -1240378.10749  28442858.5344
  27215032.284    -1560460.185 6  -1198282.26349  27215034.6044
  25942704.362     8949211.958 7   7053931.33849  25942704.8664
 95  2  9 20 59  0.0150000  0  7 18 28 19 31  2 27 29
  24652834.433    -2619332.931 8  -1984285.81049  24652834.7844
  27720940.143     5686877.385 6   4532231.69549  27720941.4334
  25333874.729    -1580369.433 7  -1166488.53249  25333875.2924
  26408672.893    -2032353.675 6  -1552839.50549  26408674.0074
  28437056.401    -1678952.953 5  -1264122.83549  28437059.8354
  27213060.511    -1570820.540 6  -1206355.22349  27213062.4564
  25965373.034     9068338.785 7   7146757.41049  25965373.5034
 95  2  9 20 59 30.0150000  0  7 18 28 19 31  2 27 29
  24665674.901    -2551855.737 8  -1931706.18549  24665675.2764
  27735975.987     5765889.951 6   4593799.92249  27735977.1364
  25340859.323    -1543663.341 7  -1137886.38349  25340859.9564
  26411721.589    -2016332.945 6  -1540355.79449  26411723.0074
  28431285.089    -1709276.671 5  -1287751.67949  28431288.6044
  27211087.792    -1581187.831 6  -1214433.58349  27211089.3864
  25988105.792     9187800.788 7   7239844.66349  25988106.4134
 95  2  9 21  0  0.0150000  0  7 18 28 19 31  2 27 29
  24678600.800    -2483929.878 8  -1878776.94349  24678601.1984
  27751100.370     5845371.721 6   4655733.78149  27751101.7764
  25347865.495    -1506845.481 7  -1109197.12449  25347866.7254
  26414850.393    -1999891.945 6  -1527544.61649  26414851.8004
  28425543.972    -1739447.505 5  -1311261.33149  28425547.4874
  27209115.339    -1591556.336 6  -1222512.87249  27209116.7804
  26010899.518     9307584.107 7   7333182.29649  26010900.1864
 95  2  9 21  0 30.0150000  0  7 18 28 19 31  2 27 29
  24691610.683    -2415562.754 8  -1825503.86249  24691611.1634
  27766315.690     5925328.805 6   4718037.98849  27766317.0734
  25354894.495    -1469909.477 7  -1080415.80949  25354894.8934
  26418062.933    -1983008.325 6  -1514388.53549  26418064.1284
  28419832.253    -1769459.038 5  -1334646.88049  28419835.4644
  27207145.565    -1601908.934 6  -1230579.79049  27207146.5974
  26033755.886     9427694.238 7   7426774.58149  26033756.3784
 95  2  9 21  1  0.0150000  0  7 18 28 19 31  2 27 29
  24704703.659    -2346758.052 8  -1771889.81049  24704704.0694
  27781621.183     6005757.944 6   4780710.05349  27781621.7454
  25361940.886    -1432878.505 7  -1051560.48649  25361941.7764
  26421360.370    -1965682.158 6  -1500887.60549  26421361.4604
  28414152.792    -1799310.500 5  -1357907.66649  28414155.3704
  27205177.112    -1612253.208 6  -1238640.22249  27205178.6714
  26056675.558     9548136.174 7   7520625.42249  26056676.0614
 95  2  9 21  1 30.0150000  0  7 18 28 19 31  2 27 29
  24717880.464    -2277512.467 8  -1717932.20749  24717880.9684
  27797014.933     6086651.907 6   4843744.30649  27797016.5264
  25369000.550    -1395777.472 7  -1022650.59349  25369001.3234
  26424744.050    -1947900.699 7  -1487031.91949  26424744.7654
  28408500.081    -1829015.445 5  -1381054.30549  28408502.4954
  27203205.800    -1622606.393 6  -1246707.58849  27203208.2724
  26079657.370     9668906.578 7   7614732.20749  26079657.8624
 95  2  9 21  2  0.0150000  0  7 18 28 19 31  2 27 29
  24731142.628    -2207820.987 8  -1663627.16049  24731143.1434
  27812499.104     6168023.401 6   4907150.65149  27812499.8434
  25376076.183    -1358597.714 7   -993679.32649  25376076.8044
  26428220.417    -1929631.012 6  -1472795.76849  26428221.7534
  28402872.472    -1858588.755 5  -1404098.33749  28402874.8394
  27201236.503    -1632954.277 6  -1254770.82249  27201239.3394
  26102702.675     9790010.293 7   7709098.71749  26102703.0734
 95  2  9 21  2 30.0150000  0  7 18 28 19 31  2 27 29
  24744490.597    -2137677.359 8  -1608969.78949  24744491.1474
  27828075.511     6249874.646 6   4970930.86049  27828075.8624
  25383165.761    -1321341.903 7   -964648.81749  25383166.2764
  26431794.972    -1910849.433 7  -1458160.76149  26431796.2964
  28397267.878    -1888038.922 5  -1427046.37449  28397270.1864
  27199268.808    -1643297.714 6  -1262830.58349  27199270.8704
  26125813.026     9911458.083 7   7803733.33449  26125813.5654
 95  2  9 21  3  0.0150000  0  7 18 28 19 31  2 27 29
  24757925.839    -2067073.996 8  -1553954.18249  24757926.4484
  27843742.972     6332210.827 6   5035088.93249  27843743.7334
  25390271.464    -1283998.833 7   -935550.30949  25390272.5184
  26435468.229    -1891542.963 6  -1443116.73749  26435469.6714
  28391689.136    -1917355.990 5  -1449890.70849  28391691.5974
  27197302.308    -1653632.033 6  -1270883.23549  27197303.7494
  26148991.979    10033261.594 7   7898645.13049  26148992.5544
 95  2  9 21  3 30.0150000  0  7 18 28 19 31  2 27 29
  24771448.667    -1996009.953 8  -1498579.60749  24771449.2884
  27859505.245     6415040.142 6   5099631.26249  27859505.7844
  25397400.206    -1246537.789 7   -906359.87749  25397400.4294
  26439244.768    -1871700.101 7  -1427654.75549  26439245.8704
  28386139.386    -1946518.664 5  -1472614.74949  28386142.0344
  27195339.651    -1663947.025 6  -1278920.84849  27195340.5304
  26172237.995    10155422.379 7   7993835.33149  26172238.7684
 95  2  9 21  4  0.0150000  0  7 18 28 19 31  2 27 29
  24785059.417    -1924485.031 8  -1442845.89849  24785060.0384
  27875361.456     6498368.264 5   5164562.27849  27875362.5584
  25404556.167    -1208933.736 7   -877057.99349  25404556.8114
  26443120.792    -1851328.046 6  -1411780.40549  26443122.1634
  28380622.526    -1975505.889 5  -1495202.06849  28380626.2294
  27193382.831    -1674230.372 6  -1286933.81449  27193384.2844
  26195552.300    10277937.888 7   8089301.95149  26195553.0734
 95  2  9 21  4 30.0150000  0  7 18 28 19 31  2 27 29
  24798761.604    -1852480.025 8  -1386738.10449  24798761.9794
  27891315.214     6582203.864 5   5229888.71449  27891315.7414
  25411743.378    -1171166.850 7   -847629.22849  25411743.9294
  26447094.972    -1830442.747 6  -1395506.10849  26447095.8974
  28375146.198    -2004286.500 5  -1517628.37349  28375150.5934
  27191431.143    -1684482.624 6  -1294922.55549  27191433.0424
  26218935.417    10400818.869 7   8185053.33849  26218935.9914
 95  2  9 21  5  0.0150000  0  7 18 28 19 31  2 27 29
  24812555.214    -1779994.854 8  -1330256.15949  24812555.4954
  27907364.565     6666542.026 6   5295606.78449  27907363.9214
  25418960.909    -1133233.641 7   -818070.86449  25418961.7764
  26451159.440    -1809082.206 6  -1378861.50049  26451160.6714
  28369710.354    -2032852.009 5  -1539887.10849  28369714.4214
  27189485.190    -1694709.519 6  -1302891.52649  27189487.3004
  26242387.339    10524058.454 7   8281084.15649  26242387.9484
 95  2  9 21  5 30.0150000  0  7 18 28 19 31  2 27 29
  24826444.237    -1707005.797 8  -1273381.57149  24826444.8934
  27923511.667     6751397.653 6   5361728.06349  27923512.8624
  25426214.362    -1095118.544 7   -788370.76949  25426215.1004
  26455315.081    -1787245.657 6  -1361845.98249  26455316.0894
  28364316.753    -2061197.051 5  -1561974.03449  28364320.4684
  27187543.753    -1704912.035 6  -1310841.50149  27187546.0614
  26265910.315    10647670.947 7   8377405.55449  26265910.6324
 95  2  9 21  6  0.0150000  0  7 18 28 19 31  2 27 29
  24840433.300    -1633493.817 8  -1216099.51849  24840433.8864
  27939759.143     6836779.689 5   5428259.52949  27939759.8824
  25433501.448    -1056823.268 7   -758530.28549  25433502.1164
  26459562.808    -1764925.318 6  -1344453.47949  26459563.5584
  28358962.729    -2089328.355 5  -1583894.40549  28358966.6084
  27185611.268    -1715068.456 6  -1318755.54449  27185613.2254
  26289505.190    10771664.558 7   8474023.92849  26289505.7764
 95  2  9 21  6 30.0150000  0  7 18 28 19 31  2 27 29
  24854525.276    -1559440.827 8  -1158395.89549  24854525.8274
  27956110.058     6922703.281 6   5495212.98349  27956110.8664
  25440825.104    -1018338.800 7   -728542.35949  25440825.9364
  26463908.182    -1742089.410 6  -1326659.23849  26463909.2144
  28353651.839    -2117236.492 5  -1605640.91149  28353655.0974
  27183692.440    -1725148.948 6  -1326610.42649  27183693.9054
  26313175.058    10896051.351 7   8570948.68449  26313175.8434
 95  2  9 21  7  0.0150000  0  7 18 28 19 31  2 27 29
  24868714.620    -1484875.288 8  -1100292.87249  24868715.1124
  27972560.425     7009148.436 6   5562572.83849  27972561.5154
  25448179.308     -979692.856 7   -698428.62349  25448179.9524
  26468352.308    -1718733.848 6  -1308460.07349  26468353.5034
  28348380.151    -2144940.817 5  -1627228.58449  28348383.7844
  27181787.292    -1735162.516 6  -1334413.16749  27181788.8394
  26336915.815    11020807.105 7   8668160.94149  26336916.2724
 95  2  9 21  7 30.0150000  0  7 18 28 19 31  2 27 29
  24883003.362    -1409786.524 8  -1041782.14249  24883004.1244
  27989113.378     7096134.020 6   5630353.84249  27989113.5544
  25455566.401     -940873.162 7   -668179.47549  25455567.1284
  26472905.120    -1694809.065 6  -1289817.35949  26472906.1514
  28343151.011    -2172420.224 5  -1648641.02549  28343154.1634
  27179900.651    -1745077.814 6  -1342139.34449  27179901.8474
  26360729.198    11145947.900 7   8765673.22749  26360729.9014
 95  2  9 21  8  0.0150000  0  7 18 28 19 31  2 27 29
  24897388.589    -1334192.985 8   -982878.08549  24897389.2454
  28005764.831     7183642.375 6   5698542.20249  28005765.8864
  25462980.722     -901910.187 7   -637818.69449  25462981.5424
  26477569.042    -1670303.626 7  -1270722.19449  26477569.8504
  28337963.011    -2199683.407 5  -1669884.97949  28337965.9994
  27178033.464    -1754889.165 6  -1349784.53649  27178034.8004
  26384612.518    11271457.291 6   8863472.72249  26384613.5614
 95  2  9 21  8 30.0150000  0  7 18 28 19 31  2 27 29
  24911866.050    -1258112.477 8   -923594.57249  24911866.7184
  28022515.175     7271663.825 6   5767130.34049  28022516.0544
  25470418.597     -862824.054 7   -607361.94149  25470419.2294
  26482342.362    -1645216.577 7  -1251173.82049  26482343.0304
  28332816.870    -2226725.954 5  -1690957.01849  28332819.2144
  27176179.839    -1764629.102 6  -1357374.06549  27176181.3504
  26408565.065    11397326.464 7   8961552.57349  26408565.5814
 95  2  9 21  9  0.0150000  0  7 18 28 19 31  2 27 29
  24926438.081    -1181536.177 8   -863924.72949  24926438.3744
  28039363.370     7360200.661 6   5836120.08849  28039364.2494
  25477879.433     -823616.613 7   -576810.66849  25477880.3934
  26487227.120    -1619549.387 7  -1231173.38249  26487227.6594
  28327712.503    -2253552.553 5  -1711860.80149  28327715.3154
  27174337.597    -1774309.986 6  -1364917.55349  27174339.6824
  26432586.753    11523564.740 6   9059920.04849  26432587.5264
 95  2  9 21  9 30.0150000  0  7 18 28 19 31  2 27 29
  24941106.472    -1104452.830 8   -803859.78049  24941106.8234
  28056308.690     7449251.082 6   5905510.03049  28056309.3704
  25485363.018     -784290.523 7   -546166.94049  25485363.7684
  26492219.573    -1593308.672 6  -1210726.04449  26492220.6864
  28322645.206    -2280181.915 5  -1732610.88949  28322648.1244
  27172504.073    -1783942.629 6  -1372423.44649  27172506.0544
  26456679.972    11650171.756 7   9158574.84749  26456680.6514
 95  2  9 21 10  0.0150000  0  7 18 28 19 31  2 27 29
  24955876.886    -1026834.347 8   -743377.84749  24955877.3084
  28073355.628     7538830.865 6   5975312.47149  28073356.1204
  25492874.034     -744817.944 7   -515409.06949  25492875.0304
  26497321.182    -1566499.278 6  -1189835.57549  26497322.4014
  28317618.222    -2306595.487 5  -1753192.83649  28317619.6404
  27170681.690    -1793522.075 6  -1379887.90849  27170683.4834
  26480844.690    11777160.066 7   9257526.74649  26480845.5694
 95  2  9 21 10 30.0150000  0  7 18 28 19 31  2 27 29
  24970747.112     -948690.738 8   -682486.72249  24970747.5934
  28090500.386     7628930.421 6   6045519.92649  28090500.9134
  25500416.292     -705183.696 7   -484525.22949  25500417.1124
  26502526.190    -1539151.167 7  -1168525.33549  26502527.3744
  28312630.159    -2332810.810 5  -1773620.31449  28312632.6084
  27168863.987    -1803072.948 6  -1387330.10749  27168865.3114
  26505079.378    11904513.781 7   9356763.38149  26505080.0814
 95  2  9 21 11  0.0150000  0  7 18 28 19 31  2 27 29
  24985719.815     -870007.436 8   -621175.05949  24985720.2724
  28107746.253     7719554.974 6   6116136.49549  28107747.1674
  25507993.847     -665365.355 7   -453497.92849  25507994.6434
  26507832.901    -1511263.941 7  -1146795.00749  26507833.8864
  28307678.784    -2358826.963 5  -1793892.58849  28307681.6554
  27167055.612    -1812576.480 6  -1394735.41249  27167056.1164
  26529386.073    12032246.164 7   9456295.09049  26529386.8934
 95  2  9 21 11 30.0150000  0  7 18 28 19 31  2 27 29
  25000795.050     -790786.971 8   -559444.82849  25000795.3544
  28125091.143     7810704.700 6   6187162.25849  28125092.3044
  25515606.745     -625358.657 7   -422323.85449  25515607.0734
  26513242.222    -1482836.981 7  -1124644.09049  26513243.2884
  28302770.190    -2384619.785 5  -1813990.84749  28302773.4484
  27165257.932    -1822024.886 6  -1402097.76449  27165258.6714
  26553762.987    12160346.238 7   9556113.29449  26553764.1834
 95  2  9 21 12  0.0150000  0  7 18 28 19 31  2 27 29
  25015968.464     -711050.566 7   -497312.56649  25015968.9094
  28142535.909     7902377.666 6   6258595.72649  28142536.8114
  25523255.987     -585162.576 7   -391002.21449  25523256.5264
  26518755.776    -1453865.545 7  -1102068.93049  26518756.6904
  28297906.097    -2410178.462 5  -1833906.63849  28297909.4484
  27163469.472    -1831422.704 6  -1409420.70449  27163470.5384
  26578209.628    12288813.300 7   9656217.46649  26578210.6124
 95  2  9 21 12 30.0150000  0  7 18 28 19 31  2 27 29
  25031238.284     -630806.584 7   -434784.78949  25031238.7534
  28160081.534     7994582.150 6   6330443.39149  28160082.4254
  25530938.401     -544789.131 7   -359542.36049  25530938.7764
  26524376.112    -1424323.589 6  -1079049.18449  26524377.1794
  28293088.081    -2435501.241 5  -1853638.61749  28293091.8074
  27161693.393    -1840754.482 6  -1416692.16649  27161695.3864
  26602727.651    12417661.955 6   9756619.00249  26602728.6714
 95  2  9 21 13  0.0150000  0  7 18 28 19 31  2 27 29
  25046606.417     -550047.289 7   -371855.47549  25046606.9444
  28177730.815     8087328.327 5   6402713.14349  28177732.0934
  25538654.659     -504236.914 7   -327943.22849  25538655.2574
  26530111.386    -1394189.277 7  -1055567.87649  26530112.0894
  28288320.190    -2460553.497 5  -1873159.78849  28288323.6834
  27159934.776    -1849994.400 6  -1423892.04649  27159936.5694
  26627321.831    12546899.775 6   9857323.76449  26627323.1324
 95  2  9 21 13 30.0160000  0  7 18 28 19 31  2 27 29
  25062074.273     -468761.677 7   -308516.04149  25062074.7774
  28195486.976     8180638.196 5   6475422.13649  28195487.4104
  25546410.805     -463482.901 7   -296186.82949  25546411.2034
  26535964.601    -1363430.975 7  -1031600.32349  26535965.4694
  28283607.641    -2485320.814 5  -1892458.93849  28283611.0044
  27158197.797    -1859123.051 6  -1431005.22549  27158199.1804
  26651992.953    12676545.896 7   9958346.68549  26651993.6094
 95  2  9 21 14  0.0160000  0  7 18 28 19 31  2 27 29
  25077640.039     -386965.100 7   -244778.45449  25077640.5904
  28213348.125     8274498.922 5   6548560.35949  28213349.2264
  25554204.375     -422525.194 7   -264271.71549  25554205.1254
  26541935.398    -1332053.910 7  -1007150.64349  26541936.2194
  28278944.383    -2509827.153 5  -1911554.71749  28278947.3484
  27156481.945    -1868141.598 6  -1438032.61949  27156482.6834
  26676740.609    12806599.575 6  10059687.18949  26676740.9494
 95  2  9 21 14 30.0160000  0  7 18 28 19 31  2 27 29
  25093307.570     -304630.874 7   -180621.91449  25093308.1804
  28231314.515     8368911.286 5   6622128.41749  28231315.3594
  25562038.133     -381359.721 7   -232194.71649  25562038.5554
  26548023.703    -1300058.758 7   -982219.32649  26548024.3484
  28274331.476    -2534068.365 5  -1930443.90349  28274333.5984
  27154789.828    -1877031.568 6  -1444959.84349  27154791.0584
  26701565.625    12937054.158 6  10161340.07549  26701566.3984
 95  2  9 21 15  0.0160000  0  7 18 28 19 31  2 27 29
  25109080.648     -221743.648 7   -116034.46249  25109081.1644
  28249384.828     8463872.743 5   6696124.36349  28249386.1644
  25569914.117     -339970.990 7   -199943.73849  25569914.7974
  26554229.719    -1267444.653 7   -956805.71849  26554230.8324
  28269769.953    -2558040.972 6  -1949123.79349  28269772.2974
  27153122.609    -1885790.635 6  -1451785.05749  27153124.7774
  26726464.297    13067897.718 6  10263296.06549  26726465.3054
 95  2  9 21 15 30.0160000  0  7 18 28 19 31  2 27 29
  25124959.383     -138299.787 7    -51013.28049  25124959.7344
  28267557.687     8559373.061 5   6770540.20049  28267559.0824
  25577827.820     -298383.631 7   -167537.99449  25577828.5474
  26560549.922    -1234232.319 7   -930925.95449  26560550.7304
  28265252.101    -2581777.708 5  -1967619.87949  28265254.4694
  27151478.187    -1894430.483 6  -1458517.36049  27151480.6374
  26751436.086    13199124.058 6  10365550.32749  26751436.9764
 95  2  9 21 16  0.0160000  0  7 18 28 19 31  2 27 29
  25140950.695      -54266.128 7     14467.48449  25140951.1644
  28285835.906     8655425.572 6   6845386.31149  28285836.9964
  25585778.976     -256600.879 7   -134979.98449  25585779.5274
  26566983.437    -1200425.234 7   -904582.71849  26566984.4574
  28260784.859    -2605254.643 5  -1985913.52149  28260787.2734
  27149861.094    -1902932.008 6  -1465141.88549  27149862.8754
  26776482.414    13330744.846 6  10468111.95049  26776483.5044
 95  2  9 21 16 30.0160000  0  7 18 28 19 31  2 27 29
  25157055.805       30369.610 7     80417.40249  25157056.3674
  28304221.672     8752039.842 6   6920670.14949  28304222.4574
  25593766.875     -214623.388 7   -102270.23749  25593767.4374
  26573530.914    -1166016.997 7   -877771.09649  26573531.5124
  28256369.578    -2628454.493 5  -2003991.26049  28256372.5554
  27148270.641    -1911291.013 6  -1471655.36849  27148271.5664
  26801603.601    13462757.887 6  10570979.22749  26801604.7734
 95  2  9 21 17  0.0160000  0  7 18 28 19 31  2 27 29
  25173274.883      115600.278 7    146830.90549  25173275.3404
  28322715.437     8849227.450 6   6996400.75549  28322715.9654
  25601794.930     -172436.290 7    -69397.16249  25601795.3404
  26580194.773    -1130999.879 7   -850484.99849  26580195.4064
  28252008.391    -2651370.424 5  -2021847.76649  28252010.7934
  27146706.305    -1919511.607 6  -1478060.98849  27146707.4064
  26826804.180    13595188.584 6  10674171.96249  26826805.3634
 95  2  9 21 17 30.0160000  0  7 18 28 19 31  2 27 29
  25189606.383      201422.741 7    213705.55249  25189606.9334
  28341317.976     8946984.822 6   7072575.30749  28341318.8904
  25609863.062     -130036.401 7    -36358.27049  25609863.4264
  26586971.867    -1095383.478 7   -822731.92749  26586972.6644
  28247701.320    -2674005.362 5  -2039485.32649  28247704.4024
  27145165.367    -1927605.815 6  -1484368.12749  27145167.1254
  26852085.992    13728044.351 6  10777695.92349  26852087.2114
 95  2  9 21 18  0.0160000  0  7 18 28 19 31  2 27 29
  25206050.344      287837.225 7    281041.51449  25206050.8944
  28360032.851     9045330.694 6   7149208.46649  28360032.9224
  25617981.164      -87375.870 7     -3116.28349  25617981.4574
  26593871.250    -1059127.462 7   -794480.46149  26593872.0704
  28243453.992    -2696324.850 5  -2056877.06149  28243457.2034
  27143651.133    -1935563.934 6  -1490569.23049  27143652.7854
  26877451.836    13861341.985 6  10881564.18449  26877452.8794
 95  2  9 21 18 30.0160000  0  7 18 28 19 31  2 27 29
  25222611.976      374869.110 7    348858.56449  25222612.5164
  28378868.086     9144311.476 6   7226336.34949  28378868.9534
  25626162.883      -44381.347 7     30385.95349  25626163.1874
  26600906.898    -1022153.315 7   -765669.40449  26600907.7664
  28239277.000    -2718277.673 6  -2073983.11049  28239279.5194
  27142170.125    -1943347.657 6  -1496634.44549  27142171.4734
  26902910.609    13995127.904 6  10985812.93449  26902911.4884
 95  2  9 21 19  0.0160000  0  7 18 28 19 31  2 27 29
  25239290.766      462517.377 7    417155.91749  25239291.3404
  28397824.305     9243926.978 6   7303958.78649  28397824.9024
  25634409.625       -1044.810 7     64154.69449  25634409.9304
  26608082.047     -984448.413 7   -736288.92949  26608082.4694
  28235170.828    -2739856.498 6  -2090797.71349  28235172.9264
  27140723.094    -1950950.868 6  -1502558.99249  27140724.4414
  26928462.758    14129405.940 6  11090445.14349  26928463.7074
 95  2  9 21 19 30.0160000  0  7 18 28 19 31  2 27 29
  25256086.367      550778.795 7    485931.04549  25256086.9764
  28416900.453     9344171.793 6   7382071.63849  28416900.9334
  25642718.742       42618.982 7     98178.44049  25642718.9064
  26615396.141     -946015.126 7   -706340.87749  26615396.6914
  28231135.250    -2761062.238 6  -2107321.61149  28231137.6294
  27139311.172    -1958373.104 6  -1508342.50849  27139312.5554
  26954106.820    14264166.467 6  11195453.31449  26954107.4414
